<?xml version='1.0' encoding='UTF-8'?>
<gpx version="1.1" creator="https://www.komoot.de" xmlns="http://www.topografix.com/GPX/1/1" xmlns:xsi="http://www.w3.org/2001/XMLSchema-instance" xsi:schemaLocation="http://www.topografix.com/GPX/1/1 http://www.topografix.com/GPX/1/1/gpx.xsd">
  <metadata>
    <name>DVV Tarp - Wanderung durch das Treenetal</name>
    <author>
      <link href="https://www.komoot.de">
        <text>komoot</text>
        <type>text/html</type>
      </link>
    </author>
  </metadata>
  <trk>
    <name>DVV Tarp - Wanderung durch das Treenetal</name>
    <trkseg>
      <trkpt lat="54.660627" lon="9.396690">
        <ele>85.562388</ele>
        <time>2021-07-22T10:25:01.000Z</time>
      </trkpt>
      <trkpt lat="54.660625" lon="9.396691">
        <ele>85.562388</ele>
        <time>2021-07-22T10:25:02.000Z</time>
      </trkpt>
      <trkpt lat="54.660625" lon="9.396687">
        <ele>85.562388</ele>
        <time>2021-07-22T10:25:03.000Z</time>
      </trkpt>
      <trkpt lat="54.660624" lon="9.396688">
        <ele>85.562388</ele>
        <time>2021-07-22T10:25:04.000Z</time>
      </trkpt>
      <trkpt lat="54.660607" lon="9.396722">
        <ele>85.562388</ele>
        <time>2021-07-22T10:25:06.000Z</time>
      </trkpt>
      <trkpt lat="54.660525" lon="9.396839">
        <ele>85.562388</ele>
        <time>2021-07-22T10:25:09.000Z</time>
      </trkpt>
      <trkpt lat="54.660486" lon="9.396934">
        <ele>85.562388</ele>
        <time>2021-07-22T10:25:11.000Z</time>
      </trkpt>
      <trkpt lat="54.660425" lon="9.397075">
        <ele>85.562388</ele>
        <time>2021-07-22T10:25:16.000Z</time>
      </trkpt>
      <trkpt lat="54.660396" lon="9.397114">
        <ele>85.562388</ele>
        <time>2021-07-22T10:25:18.000Z</time>
      </trkpt>
      <trkpt lat="54.660337" lon="9.397220">
        <ele>85.562388</ele>
        <time>2021-07-22T10:25:24.000Z</time>
      </trkpt>
      <trkpt lat="54.660303" lon="9.397309">
        <ele>85.562388</ele>
        <time>2021-07-22T10:25:30.000Z</time>
      </trkpt>
      <trkpt lat="54.660284" lon="9.397345">
        <ele>85.562388</ele>
        <time>2021-07-22T10:25:32.000Z</time>
      </trkpt>
      <trkpt lat="54.660232" lon="9.397452">
        <ele>85.562388</ele>
        <time>2021-07-22T10:25:37.000Z</time>
      </trkpt>
      <trkpt lat="54.660215" lon="9.397485">
        <ele>85.562388</ele>
        <time>2021-07-22T10:25:39.000Z</time>
      </trkpt>
      <trkpt lat="54.660207" lon="9.397503">
        <ele>85.562388</ele>
        <time>2021-07-22T10:25:40.000Z</time>
      </trkpt>
      <trkpt lat="54.660199" lon="9.397520">
        <ele>85.562388</ele>
        <time>2021-07-22T10:25:41.000Z</time>
      </trkpt>
      <trkpt lat="54.660190" lon="9.397539">
        <ele>85.562388</ele>
        <time>2021-07-22T10:25:42.000Z</time>
      </trkpt>
      <trkpt lat="54.660166" lon="9.397585">
        <ele>85.562388</ele>
        <time>2021-07-22T10:25:44.000Z</time>
      </trkpt>
      <trkpt lat="54.660155" lon="9.397609">
        <ele>85.562388</ele>
        <time>2021-07-22T10:25:45.000Z</time>
      </trkpt>
      <trkpt lat="54.660142" lon="9.397634">
        <ele>85.562388</ele>
        <time>2021-07-22T10:25:46.000Z</time>
      </trkpt>
      <trkpt lat="54.660132" lon="9.397656">
        <ele>85.562388</ele>
        <time>2021-07-22T10:25:47.000Z</time>
      </trkpt>
      <trkpt lat="54.660113" lon="9.397701">
        <ele>85.562388</ele>
        <time>2021-07-22T10:25:49.000Z</time>
      </trkpt>
      <trkpt lat="54.660104" lon="9.397724">
        <ele>85.562388</ele>
        <time>2021-07-22T10:25:50.000Z</time>
      </trkpt>
      <trkpt lat="54.660084" lon="9.397791">
        <ele>85.562388</ele>
        <time>2021-07-22T10:25:53.000Z</time>
      </trkpt>
      <trkpt lat="54.660037" lon="9.397943">
        <ele>85.568216</ele>
        <time>2021-07-22T10:25:59.000Z</time>
      </trkpt>
      <trkpt lat="54.660012" lon="9.398057">
        <ele>85.577023</ele>
        <time>2021-07-22T10:26:03.000Z</time>
      </trkpt>
      <trkpt lat="54.659998" lon="9.398170">
        <ele>85.585371</ele>
        <time>2021-07-22T10:26:07.000Z</time>
      </trkpt>
      <trkpt lat="54.659995" lon="9.398192">
        <ele>85.587004</ele>
        <time>2021-07-22T10:26:08.000Z</time>
      </trkpt>
      <trkpt lat="54.659978" lon="9.398238">
        <ele>85.590947</ele>
        <time>2021-07-22T10:26:10.000Z</time>
      </trkpt>
      <trkpt lat="54.659944" lon="9.398355">
        <ele>85.600405</ele>
        <time>2021-07-22T10:26:15.000Z</time>
      </trkpt>
      <trkpt lat="54.659920" lon="9.398427">
        <ele>85.606408</ele>
        <time>2021-07-22T10:26:18.000Z</time>
      </trkpt>
      <trkpt lat="54.659901" lon="9.398493">
        <ele>85.611734</ele>
        <time>2021-07-22T10:26:21.000Z</time>
      </trkpt>
      <trkpt lat="54.659888" lon="9.398533">
        <ele>85.615048</ele>
        <time>2021-07-22T10:26:23.000Z</time>
      </trkpt>
      <trkpt lat="54.659867" lon="9.398601">
        <ele>85.620617</ele>
        <time>2021-07-22T10:26:26.000Z</time>
      </trkpt>
      <trkpt lat="54.659813" lon="9.398739">
        <ele>85.632652</ele>
        <time>2021-07-22T10:26:32.000Z</time>
      </trkpt>
      <trkpt lat="54.659774" lon="9.398846">
        <ele>85.641788</ele>
        <time>2021-07-22T10:26:37.000Z</time>
      </trkpt>
      <trkpt lat="54.659749" lon="9.398939">
        <ele>85.649197</ele>
        <time>2021-07-22T10:26:41.000Z</time>
      </trkpt>
      <trkpt lat="54.659689" lon="9.399132">
        <ele>85.665025</ele>
        <time>2021-07-22T10:26:49.000Z</time>
      </trkpt>
      <trkpt lat="54.659626" lon="9.399340">
        <ele>85.681985</ele>
        <time>2021-07-22T10:26:57.000Z</time>
      </trkpt>
      <trkpt lat="54.659605" lon="9.399422">
        <ele>85.688464</ele>
        <time>2021-07-22T10:27:01.000Z</time>
      </trkpt>
      <trkpt lat="54.659582" lon="9.399481">
        <ele>85.693603</ele>
        <time>2021-07-22T10:27:04.000Z</time>
      </trkpt>
      <trkpt lat="54.659540" lon="9.399579">
        <ele>85.702414</ele>
        <time>2021-07-22T10:27:10.000Z</time>
      </trkpt>
      <trkpt lat="54.659535" lon="9.399585">
        <ele>85.703174</ele>
        <time>2021-07-22T10:27:11.000Z</time>
      </trkpt>
      <trkpt lat="54.659527" lon="9.399588">
        <ele>85.704196</ele>
        <time>2021-07-22T10:27:12.000Z</time>
      </trkpt>
      <trkpt lat="54.659487" lon="9.399662">
        <ele>85.711513</ele>
        <time>2021-07-22T10:27:16.000Z</time>
      </trkpt>
      <trkpt lat="54.659476" lon="9.399679">
        <ele>85.713355</ele>
        <time>2021-07-22T10:27:17.000Z</time>
      </trkpt>
      <trkpt lat="54.659428" lon="9.399774">
        <ele>85.722468</ele>
        <time>2021-07-22T10:27:22.000Z</time>
      </trkpt>
      <trkpt lat="54.659396" lon="9.399839">
        <ele>85.728633</ele>
        <time>2021-07-22T10:27:25.000Z</time>
      </trkpt>
      <trkpt lat="54.659388" lon="9.399852">
        <ele>85.730005</ele>
        <time>2021-07-22T10:27:26.000Z</time>
      </trkpt>
      <trkpt lat="54.659381" lon="9.399865">
        <ele>85.731288</ele>
        <time>2021-07-22T10:27:27.000Z</time>
      </trkpt>
      <trkpt lat="54.659354" lon="9.399922">
        <ele>85.736610</ele>
        <time>2021-07-22T10:27:31.000Z</time>
      </trkpt>
      <trkpt lat="54.659345" lon="9.399936">
        <ele>85.738122</ele>
        <time>2021-07-22T10:27:33.000Z</time>
      </trkpt>
      <trkpt lat="54.659329" lon="9.399963">
        <ele>85.740914</ele>
        <time>2021-07-22T10:27:35.000Z</time>
      </trkpt>
      <trkpt lat="54.659288" lon="9.400027">
        <ele>85.747813</ele>
        <time>2021-07-22T10:27:38.000Z</time>
      </trkpt>
      <trkpt lat="54.659244" lon="9.400106">
        <ele>85.755735</ele>
        <time>2021-07-22T10:27:42.000Z</time>
      </trkpt>
      <trkpt lat="54.659234" lon="9.400127">
        <ele>85.757700</ele>
        <time>2021-07-22T10:27:43.000Z</time>
      </trkpt>
      <trkpt lat="54.659193" lon="9.400216">
        <ele>85.765919</ele>
        <time>2021-07-22T10:27:47.000Z</time>
      </trkpt>
      <trkpt lat="54.659132" lon="9.400401">
        <ele>85.781302</ele>
        <time>2021-07-22T10:27:54.000Z</time>
      </trkpt>
      <trkpt lat="54.659120" lon="9.400434">
        <ele>85.784118</ele>
        <time>2021-07-22T10:27:55.000Z</time>
      </trkpt>
      <trkpt lat="54.659090" lon="9.400537">
        <ele>85.805114</ele>
        <time>2021-07-22T10:27:59.000Z</time>
      </trkpt>
      <trkpt lat="54.659087" lon="9.400568">
        <ele>85.812676</ele>
        <time>2021-07-22T10:28:01.000Z</time>
      </trkpt>
      <trkpt lat="54.659090" lon="9.400571">
        <ele>85.814118</ele>
        <time>2021-07-22T10:28:02.000Z</time>
      </trkpt>
      <trkpt lat="54.659095" lon="9.400591">
        <ele>85.819360</ele>
        <time>2021-07-22T10:28:08.000Z</time>
      </trkpt>
      <trkpt lat="54.659094" lon="9.400609">
        <ele>85.823710</ele>
        <time>2021-07-22T10:28:13.000Z</time>
      </trkpt>
      <trkpt lat="54.659094" lon="9.400610">
        <ele>85.823951</ele>
        <time>2021-07-22T10:28:14.000Z</time>
      </trkpt>
      <trkpt lat="54.659078" lon="9.400593">
        <ele>85.831762</ele>
        <time>2021-07-22T10:28:19.000Z</time>
      </trkpt>
      <trkpt lat="54.659062" lon="9.400608">
        <ele>85.839333</ele>
        <time>2021-07-22T10:28:29.000Z</time>
      </trkpt>
      <trkpt lat="54.659062" lon="9.400610">
        <ele>85.839814</ele>
        <time>2021-07-22T10:28:32.000Z</time>
      </trkpt>
      <trkpt lat="54.659047" lon="9.400649">
        <ele>85.851082</ele>
        <time>2021-07-22T10:28:35.000Z</time>
      </trkpt>
      <trkpt lat="54.659020" lon="9.400715">
        <ele>85.870531</ele>
        <time>2021-07-22T10:28:39.000Z</time>
      </trkpt>
      <trkpt lat="54.658998" lon="9.400782">
        <ele>85.889067</ele>
        <time>2021-07-22T10:28:43.000Z</time>
      </trkpt>
      <trkpt lat="54.658946" lon="9.400995">
        <ele>85.944691</ele>
        <time>2021-07-22T10:28:52.000Z</time>
      </trkpt>
      <trkpt lat="54.658939" lon="9.401019">
        <ele>85.951157</ele>
        <time>2021-07-22T10:28:53.000Z</time>
      </trkpt>
      <trkpt lat="54.658903" lon="9.401138">
        <ele>85.983467</ele>
        <time>2021-07-22T10:28:59.000Z</time>
      </trkpt>
      <trkpt lat="54.658904" lon="9.401152">
        <ele>85.986861</ele>
        <time>2021-07-22T10:29:00.000Z</time>
      </trkpt>
      <trkpt lat="54.658894" lon="9.401240">
        <ele>86.008438</ele>
        <time>2021-07-22T10:29:05.000Z</time>
      </trkpt>
      <trkpt lat="54.658871" lon="9.401334">
        <ele>86.032994</ele>
        <time>2021-07-22T10:29:09.000Z</time>
      </trkpt>
      <trkpt lat="54.658857" lon="9.401376">
        <ele>86.044657</ele>
        <time>2021-07-22T10:29:11.000Z</time>
      </trkpt>
      <trkpt lat="54.658854" lon="9.401391">
        <ele>86.048475</ele>
        <time>2021-07-22T10:29:12.000Z</time>
      </trkpt>
      <trkpt lat="54.658845" lon="9.401418">
        <ele>86.055973</ele>
        <time>2021-07-22T10:29:14.000Z</time>
      </trkpt>
      <trkpt lat="54.658840" lon="9.401430">
        <ele>86.059531</ele>
        <time>2021-07-22T10:29:15.000Z</time>
      </trkpt>
      <trkpt lat="54.658828" lon="9.401455">
        <ele>86.067347</ele>
        <time>2021-07-22T10:29:16.000Z</time>
      </trkpt>
      <trkpt lat="54.658819" lon="9.401473">
        <ele>86.073071</ele>
        <time>2021-07-22T10:29:17.000Z</time>
      </trkpt>
      <trkpt lat="54.658753" lon="9.401585">
        <ele>86.111538</ele>
        <time>2021-07-22T10:29:23.000Z</time>
      </trkpt>
      <trkpt lat="54.658721" lon="9.401637">
        <ele>86.129805</ele>
        <time>2021-07-22T10:29:26.000Z</time>
      </trkpt>
      <trkpt lat="54.658666" lon="9.401704">
        <ele>86.157791</ele>
        <time>2021-07-22T10:29:29.000Z</time>
      </trkpt>
      <trkpt lat="54.658615" lon="9.401765">
        <ele>86.183585</ele>
        <time>2021-07-22T10:29:32.000Z</time>
      </trkpt>
      <trkpt lat="54.658597" lon="9.401816">
        <ele>86.197959</ele>
        <time>2021-07-22T10:29:34.000Z</time>
      </trkpt>
      <trkpt lat="54.658586" lon="9.401842">
        <ele>86.205710</ele>
        <time>2021-07-22T10:29:35.000Z</time>
      </trkpt>
      <trkpt lat="54.658490" lon="9.401933">
        <ele>86.251248</ele>
        <time>2021-07-22T10:29:43.000Z</time>
      </trkpt>
      <trkpt lat="54.658415" lon="9.401991">
        <ele>86.285422</ele>
        <time>2021-07-22T10:29:48.000Z</time>
      </trkpt>
      <trkpt lat="54.658408" lon="9.401995">
        <ele>86.288488</ele>
        <time>2021-07-22T10:29:49.000Z</time>
      </trkpt>
      <trkpt lat="54.658395" lon="9.402009">
        <ele>86.294859</ele>
        <time>2021-07-22T10:29:50.000Z</time>
      </trkpt>
      <trkpt lat="54.658341" lon="9.402020">
        <ele>86.317475</ele>
        <time>2021-07-22T10:29:54.000Z</time>
      </trkpt>
      <trkpt lat="54.658302" lon="9.402033">
        <ele>86.333995</ele>
        <time>2021-07-22T10:29:57.000Z</time>
      </trkpt>
      <trkpt lat="54.658285" lon="9.402040">
        <ele>86.341263</ele>
        <time>2021-07-22T10:29:58.000Z</time>
      </trkpt>
      <trkpt lat="54.658221" lon="9.402070">
        <ele>86.368844</ele>
        <time>2021-07-22T10:30:02.000Z</time>
      </trkpt>
      <trkpt lat="54.658205" lon="9.402081">
        <ele>86.376006</ele>
        <time>2021-07-22T10:30:03.000Z</time>
      </trkpt>
      <trkpt lat="54.658165" lon="9.402107">
        <ele>86.393781</ele>
        <time>2021-07-22T10:30:06.000Z</time>
      </trkpt>
      <trkpt lat="54.658132" lon="9.402123">
        <ele>86.408036</ele>
        <time>2021-07-22T10:30:08.000Z</time>
      </trkpt>
      <trkpt lat="54.658113" lon="9.402140">
        <ele>86.416935</ele>
        <time>2021-07-22T10:30:09.000Z</time>
      </trkpt>
      <trkpt lat="54.658099" lon="9.402158">
        <ele>86.424192</ele>
        <time>2021-07-22T10:30:10.000Z</time>
      </trkpt>
      <trkpt lat="54.658021" lon="9.402240">
        <ele>86.462162</ele>
        <time>2021-07-22T10:30:15.000Z</time>
      </trkpt>
      <trkpt lat="54.658009" lon="9.402241">
        <ele>86.467159</ele>
        <time>2021-07-22T10:30:16.000Z</time>
      </trkpt>
      <trkpt lat="54.657991" lon="9.402242">
        <ele>86.474650</ele>
        <time>2021-07-22T10:30:17.000Z</time>
      </trkpt>
      <trkpt lat="54.657911" lon="9.402279">
        <ele>86.509095</ele>
        <time>2021-07-22T10:30:22.000Z</time>
      </trkpt>
      <trkpt lat="54.657849" lon="9.402326">
        <ele>86.527700</ele>
        <time>2021-07-22T10:30:25.000Z</time>
      </trkpt>
      <trkpt lat="54.657784" lon="9.402356">
        <ele>86.429756</ele>
        <time>2021-07-22T10:30:29.000Z</time>
      </trkpt>
      <trkpt lat="54.657774" lon="9.402353">
        <ele>86.414981</ele>
        <time>2021-07-22T10:30:30.000Z</time>
      </trkpt>
      <trkpt lat="54.657679" lon="9.402386">
        <ele>86.273912</ele>
        <time>2021-07-22T10:30:38.000Z</time>
      </trkpt>
      <trkpt lat="54.657656" lon="9.402386">
        <ele>86.240427</ele>
        <time>2021-07-22T10:30:40.000Z</time>
      </trkpt>
      <trkpt lat="54.657611" lon="9.402390">
        <ele>86.174828</ele>
        <time>2021-07-22T10:30:44.000Z</time>
      </trkpt>
      <trkpt lat="54.657588" lon="9.402399">
        <ele>86.140497</ele>
        <time>2021-07-22T10:30:46.000Z</time>
      </trkpt>
      <trkpt lat="54.657565" lon="9.402419">
        <ele>86.103015</ele>
        <time>2021-07-22T10:30:47.000Z</time>
      </trkpt>
      <trkpt lat="54.657552" lon="9.402416">
        <ele>86.083921</ele>
        <time>2021-07-22T10:30:48.000Z</time>
      </trkpt>
      <trkpt lat="54.657499" lon="9.402433">
        <ele>86.005445</ele>
        <time>2021-07-22T10:30:53.000Z</time>
      </trkpt>
      <trkpt lat="54.657423" lon="9.402445">
        <ele>85.894341</ele>
        <time>2021-07-22T10:30:57.000Z</time>
      </trkpt>
      <trkpt lat="54.657353" lon="9.402459">
        <ele>85.791753</ele>
        <time>2021-07-22T10:31:01.000Z</time>
      </trkpt>
      <trkpt lat="54.657249" lon="9.402421">
        <ele>85.637001</ele>
        <time>2021-07-22T10:31:08.000Z</time>
      </trkpt>
      <trkpt lat="54.657178" lon="9.402370">
        <ele>85.525068</ele>
        <time>2021-07-22T10:31:14.000Z</time>
      </trkpt>
      <trkpt lat="54.657168" lon="9.402358">
        <ele>85.507346</ele>
        <time>2021-07-22T10:31:15.000Z</time>
      </trkpt>
      <trkpt lat="54.657157" lon="9.402352">
        <ele>85.490554</ele>
        <time>2021-07-22T10:31:16.000Z</time>
      </trkpt>
      <trkpt lat="54.657076" lon="9.402292">
        <ele>85.362261</ele>
        <time>2021-07-22T10:31:22.000Z</time>
      </trkpt>
      <trkpt lat="54.657024" lon="9.402250">
        <ele>85.278702</ele>
        <time>2021-07-22T10:31:26.000Z</time>
      </trkpt>
      <trkpt lat="54.656996" lon="9.402221">
        <ele>85.231183</ele>
        <time>2021-07-22T10:31:29.000Z</time>
      </trkpt>
      <trkpt lat="54.656981" lon="9.402212">
        <ele>85.208067</ele>
        <time>2021-07-22T10:31:30.000Z</time>
      </trkpt>
      <trkpt lat="54.656962" lon="9.402199">
        <ele>85.178318</ele>
        <time>2021-07-22T10:31:31.000Z</time>
      </trkpt>
      <trkpt lat="54.656929" lon="9.402167">
        <ele>85.123234</ele>
        <time>2021-07-22T10:31:34.000Z</time>
      </trkpt>
      <trkpt lat="54.656910" lon="9.402149">
        <ele>85.091691</ele>
        <time>2021-07-22T10:31:36.000Z</time>
      </trkpt>
      <trkpt lat="54.656893" lon="9.402130">
        <ele>85.062220</ele>
        <time>2021-07-22T10:31:37.000Z</time>
      </trkpt>
      <trkpt lat="54.656843" lon="9.402072">
        <ele>84.974559</ele>
        <time>2021-07-22T10:31:40.000Z</time>
      </trkpt>
      <trkpt lat="54.656800" lon="9.402018">
        <ele>84.897183</ele>
        <time>2021-07-22T10:31:43.000Z</time>
      </trkpt>
      <trkpt lat="54.656784" lon="9.402001">
        <ele>84.869841</ele>
        <time>2021-07-22T10:31:44.000Z</time>
      </trkpt>
      <trkpt lat="54.656757" lon="9.401973">
        <ele>84.824003</ele>
        <time>2021-07-22T10:31:46.000Z</time>
      </trkpt>
      <trkpt lat="54.656731" lon="9.401951">
        <ele>84.781861</ele>
        <time>2021-07-22T10:31:48.000Z</time>
      </trkpt>
      <trkpt lat="54.656670" lon="9.401845">
        <ele>84.655942</ele>
        <time>2021-07-22T10:31:53.000Z</time>
      </trkpt>
      <trkpt lat="54.656664" lon="9.401835">
        <ele>84.643808</ele>
        <time>2021-07-22T10:31:54.000Z</time>
      </trkpt>
      <trkpt lat="54.656658" lon="9.401825">
        <ele>84.631675</ele>
        <time>2021-07-22T10:31:55.000Z</time>
      </trkpt>
      <trkpt lat="54.656642" lon="9.401800">
        <ele>84.600276</ele>
        <time>2021-07-22T10:31:57.000Z</time>
      </trkpt>
      <trkpt lat="54.656604" lon="9.401760">
        <ele>84.535505</ele>
        <time>2021-07-22T10:32:00.000Z</time>
      </trkpt>
      <trkpt lat="54.656522" lon="9.401686">
        <ele>84.400839</ele>
        <time>2021-07-22T10:32:05.000Z</time>
      </trkpt>
      <trkpt lat="54.656513" lon="9.401671">
        <ele>84.382638</ele>
        <time>2021-07-22T10:32:06.000Z</time>
      </trkpt>
      <trkpt lat="54.656490" lon="9.401636">
        <ele>84.338029</ele>
        <time>2021-07-22T10:32:08.000Z</time>
      </trkpt>
      <trkpt lat="54.656453" lon="9.401606">
        <ele>84.278532</ele>
        <time>2021-07-22T10:32:11.000Z</time>
      </trkpt>
      <trkpt lat="54.656442" lon="9.401593">
        <ele>84.259133</ele>
        <time>2021-07-22T10:32:12.000Z</time>
      </trkpt>
      <trkpt lat="54.656426" lon="9.401561">
        <ele>84.223512</ele>
        <time>2021-07-22T10:32:14.000Z</time>
      </trkpt>
      <trkpt lat="54.656417" lon="9.401541">
        <ele>84.202172</ele>
        <time>2021-07-22T10:32:15.000Z</time>
      </trkpt>
      <trkpt lat="54.656412" lon="9.401520">
        <ele>84.183047</ele>
        <time>2021-07-22T10:32:16.000Z</time>
      </trkpt>
      <trkpt lat="54.656409" lon="9.401492">
        <ele>84.159066</ele>
        <time>2021-07-22T10:32:17.000Z</time>
      </trkpt>
      <trkpt lat="54.656406" lon="9.401470">
        <ele>84.140030</ele>
        <time>2021-07-22T10:32:18.000Z</time>
      </trkpt>
      <trkpt lat="54.656409" lon="9.401385">
        <ele>84.068313</ele>
        <time>2021-07-22T10:32:21.000Z</time>
      </trkpt>
      <trkpt lat="54.656405" lon="9.401336">
        <ele>84.026637</ele>
        <time>2021-07-22T10:32:23.000Z</time>
      </trkpt>
      <trkpt lat="54.656406" lon="9.401308">
        <ele>84.003012</ele>
        <time>2021-07-22T10:32:24.000Z</time>
      </trkpt>
      <trkpt lat="54.656405" lon="9.401201">
        <ele>83.911965</ele>
        <time>2021-07-22T10:32:28.000Z</time>
      </trkpt>
      <trkpt lat="54.656396" lon="9.401133">
        <ele>83.838626</ele>
        <time>2021-07-22T10:32:31.000Z</time>
      </trkpt>
      <trkpt lat="54.656394" lon="9.401085">
        <ele>83.788030</ele>
        <time>2021-07-22T10:32:33.000Z</time>
      </trkpt>
      <trkpt lat="54.656376" lon="9.401014">
        <ele>83.706530</ele>
        <time>2021-07-22T10:32:36.000Z</time>
      </trkpt>
      <trkpt lat="54.656341" lon="9.400982">
        <ele>83.634570</ele>
        <time>2021-07-22T10:32:39.000Z</time>
      </trkpt>
      <trkpt lat="54.656319" lon="9.400967">
        <ele>83.591588</ele>
        <time>2021-07-22T10:32:40.000Z</time>
      </trkpt>
      <trkpt lat="54.656307" lon="9.400961">
        <ele>83.568885</ele>
        <time>2021-07-22T10:32:41.000Z</time>
      </trkpt>
      <trkpt lat="54.656274" lon="9.400949">
        <ele>83.507596</ele>
        <time>2021-07-22T10:32:43.000Z</time>
      </trkpt>
      <trkpt lat="54.656208" lon="9.400951">
        <ele>83.387626</ele>
        <time>2021-07-22T10:32:46.000Z</time>
      </trkpt>
      <trkpt lat="54.656138" lon="9.400998">
        <ele>83.251145</ele>
        <time>2021-07-22T10:32:52.000Z</time>
      </trkpt>
      <trkpt lat="54.656088" lon="9.401128">
        <ele>83.087015</ele>
        <time>2021-07-22T10:32:58.000Z</time>
      </trkpt>
      <trkpt lat="54.656066" lon="9.401157">
        <ele>83.036733</ele>
        <time>2021-07-22T10:33:00.000Z</time>
      </trkpt>
      <trkpt lat="54.656024" lon="9.401183">
        <ele>82.955653</ele>
        <time>2021-07-22T10:33:03.000Z</time>
      </trkpt>
      <trkpt lat="54.656006" lon="9.401189">
        <ele>82.922336</ele>
        <time>2021-07-22T10:33:04.000Z</time>
      </trkpt>
      <trkpt lat="54.655951" lon="9.401218">
        <ele>82.817830</ele>
        <time>2021-07-22T10:33:07.000Z</time>
      </trkpt>
      <trkpt lat="54.655885" lon="9.401289">
        <ele>82.676547</ele>
        <time>2021-07-22T10:33:12.000Z</time>
      </trkpt>
      <trkpt lat="54.655775" lon="9.401420">
        <ele>82.433777</ele>
        <time>2021-07-22T10:33:19.000Z</time>
      </trkpt>
      <trkpt lat="54.655677" lon="9.401512">
        <ele>82.231097</ele>
        <time>2021-07-22T10:33:27.000Z</time>
      </trkpt>
      <trkpt lat="54.655676" lon="9.401512">
        <ele>82.229279</ele>
        <time>2021-07-22T10:33:28.000Z</time>
      </trkpt>
      <trkpt lat="54.655677" lon="9.401510">
        <ele>82.226500</ele>
        <time>2021-07-22T10:33:30.000Z</time>
      </trkpt>
      <trkpt lat="54.655676" lon="9.401514">
        <ele>82.221919</ele>
        <time>2021-07-22T10:33:31.000Z</time>
      </trkpt>
      <trkpt lat="54.655676" lon="9.401526">
        <ele>82.209302</ele>
        <time>2021-07-22T10:33:33.000Z</time>
      </trkpt>
      <trkpt lat="54.655633" lon="9.401608">
        <ele>82.092940</ele>
        <time>2021-07-22T10:33:39.000Z</time>
      </trkpt>
      <trkpt lat="54.655573" lon="9.401758">
        <ele>81.901204</ele>
        <time>2021-07-22T10:33:45.000Z</time>
      </trkpt>
      <trkpt lat="54.655566" lon="9.401781">
        <ele>81.873880</ele>
        <time>2021-07-22T10:33:46.000Z</time>
      </trkpt>
      <trkpt lat="54.655526" lon="9.401955">
        <ele>81.677025</ele>
        <time>2021-07-22T10:33:53.000Z</time>
      </trkpt>
      <trkpt lat="54.655493" lon="9.402113">
        <ele>81.500411</ele>
        <time>2021-07-22T10:34:00.000Z</time>
      </trkpt>
      <trkpt lat="54.655490" lon="9.402135">
        <ele>81.476647</ele>
        <time>2021-07-22T10:34:01.000Z</time>
      </trkpt>
      <trkpt lat="54.655446" lon="9.402304">
        <ele>81.281797</ele>
        <time>2021-07-22T10:34:08.000Z</time>
      </trkpt>
      <trkpt lat="54.655424" lon="9.402378">
        <ele>81.194322</ele>
        <time>2021-07-22T10:34:12.000Z</time>
      </trkpt>
      <trkpt lat="54.655419" lon="9.402407">
        <ele>81.162507</ele>
        <time>2021-07-22T10:34:15.000Z</time>
      </trkpt>
      <trkpt lat="54.655393" lon="9.402508">
        <ele>81.046278</ele>
        <time>2021-07-22T10:34:20.000Z</time>
      </trkpt>
      <trkpt lat="54.655388" lon="9.402553">
        <ele>80.998101</ele>
        <time>2021-07-22T10:34:22.000Z</time>
      </trkpt>
      <trkpt lat="54.655345" lon="9.402673">
        <ele>80.849691</ele>
        <time>2021-07-22T10:34:29.000Z</time>
      </trkpt>
      <trkpt lat="54.655313" lon="9.402770">
        <ele>80.732289</ele>
        <time>2021-07-22T10:34:34.000Z</time>
      </trkpt>
      <trkpt lat="54.655306" lon="9.402813">
        <ele>80.685324</ele>
        <time>2021-07-22T10:34:36.000Z</time>
      </trkpt>
      <trkpt lat="54.655305" lon="9.402834">
        <ele>80.663170</ele>
        <time>2021-07-22T10:34:37.000Z</time>
      </trkpt>
      <trkpt lat="54.655272" lon="9.402977">
        <ele>80.677751</ele>
        <time>2021-07-22T10:34:43.000Z</time>
      </trkpt>
      <trkpt lat="54.655225" lon="9.403180">
        <ele>80.725030</ele>
        <time>2021-07-22T10:34:51.000Z</time>
      </trkpt>
      <trkpt lat="54.655198" lon="9.403259">
        <ele>80.744870</ele>
        <time>2021-07-22T10:34:55.000Z</time>
      </trkpt>
      <trkpt lat="54.655189" lon="9.403298">
        <ele>80.753949</ele>
        <time>2021-07-22T10:34:57.000Z</time>
      </trkpt>
      <trkpt lat="54.655179" lon="9.403325">
        <ele>80.760882</ele>
        <time>2021-07-22T10:34:59.000Z</time>
      </trkpt>
      <trkpt lat="54.655174" lon="9.403356">
        <ele>80.767840</ele>
        <time>2021-07-22T10:35:01.000Z</time>
      </trkpt>
      <trkpt lat="54.655175" lon="9.403381">
        <ele>80.773259</ele>
        <time>2021-07-22T10:35:02.000Z</time>
      </trkpt>
      <trkpt lat="54.655180" lon="9.403420">
        <ele>80.781896</ele>
        <time>2021-07-22T10:35:04.000Z</time>
      </trkpt>
      <trkpt lat="54.655189" lon="9.403442">
        <ele>80.787722</ele>
        <time>2021-07-22T10:35:07.000Z</time>
      </trkpt>
      <trkpt lat="54.655192" lon="9.403455">
        <ele>80.790749</ele>
        <time>2021-07-22T10:35:09.000Z</time>
      </trkpt>
      <trkpt lat="54.655195" lon="9.403471">
        <ele>80.794386</ele>
        <time>2021-07-22T10:35:10.000Z</time>
      </trkpt>
      <trkpt lat="54.655244" lon="9.403592">
        <ele>80.826323</ele>
        <time>2021-07-22T10:35:16.000Z</time>
      </trkpt>
      <trkpt lat="54.655269" lon="9.403636">
        <ele>80.839658</ele>
        <time>2021-07-22T10:35:18.000Z</time>
      </trkpt>
      <trkpt lat="54.655332" lon="9.403776">
        <ele>80.878010</ele>
        <time>2021-07-22T10:35:23.000Z</time>
      </trkpt>
      <trkpt lat="54.655355" lon="9.403915">
        <ele>80.909271</ele>
        <time>2021-07-22T10:35:28.000Z</time>
      </trkpt>
      <trkpt lat="54.655357" lon="9.403941">
        <ele>80.914942</ele>
        <time>2021-07-22T10:35:29.000Z</time>
      </trkpt>
      <trkpt lat="54.655360" lon="9.403968">
        <ele>80.920887</ele>
        <time>2021-07-22T10:35:30.000Z</time>
      </trkpt>
      <trkpt lat="54.655361" lon="9.404065">
        <ele>80.941864</ele>
        <time>2021-07-22T10:35:35.000Z</time>
      </trkpt>
      <trkpt lat="54.655354" lon="9.404083">
        <ele>80.946554</ele>
        <time>2021-07-22T10:35:36.000Z</time>
      </trkpt>
      <trkpt lat="54.655299" lon="9.404233">
        <ele>80.984954</ele>
        <time>2021-07-22T10:35:43.000Z</time>
      </trkpt>
      <trkpt lat="54.655271" lon="9.404339">
        <ele>81.010150</ele>
        <time>2021-07-22T10:35:49.000Z</time>
      </trkpt>
      <trkpt lat="54.655267" lon="9.404388">
        <ele>81.020850</ele>
        <time>2021-07-22T10:35:52.000Z</time>
      </trkpt>
      <trkpt lat="54.655267" lon="9.404400">
        <ele>81.023445</ele>
        <time>2021-07-22T10:35:53.000Z</time>
      </trkpt>
      <trkpt lat="54.655251" lon="9.404440">
        <ele>81.033960</ele>
        <time>2021-07-22T10:35:55.000Z</time>
      </trkpt>
      <trkpt lat="54.655250" lon="9.404459">
        <ele>81.038086</ele>
        <time>2021-07-22T10:35:56.000Z</time>
      </trkpt>
      <trkpt lat="54.655242" lon="9.404489">
        <ele>81.045229</ele>
        <time>2021-07-22T10:35:58.000Z</time>
      </trkpt>
      <trkpt lat="54.655222" lon="9.404538">
        <ele>81.058195</ele>
        <time>2021-07-22T10:36:01.000Z</time>
      </trkpt>
      <trkpt lat="54.655213" lon="9.404552">
        <ele>81.062721</ele>
        <time>2021-07-22T10:36:02.000Z</time>
      </trkpt>
      <trkpt lat="54.655202" lon="9.404588">
        <ele>81.071524</ele>
        <time>2021-07-22T10:36:04.000Z</time>
      </trkpt>
      <trkpt lat="54.655200" lon="9.404598">
        <ele>81.073812</ele>
        <time>2021-07-22T10:36:05.000Z</time>
      </trkpt>
      <trkpt lat="54.655157" lon="9.404685">
        <ele>81.098555</ele>
        <time>2021-07-22T10:36:10.000Z</time>
      </trkpt>
      <trkpt lat="54.655139" lon="9.404720">
        <ele>81.108681</ele>
        <time>2021-07-22T10:36:12.000Z</time>
      </trkpt>
      <trkpt lat="54.655104" lon="9.404817">
        <ele>81.133400</ele>
        <time>2021-07-22T10:36:17.000Z</time>
      </trkpt>
      <trkpt lat="54.655084" lon="9.404866">
        <ele>81.146367</ele>
        <time>2021-07-22T10:36:21.000Z</time>
      </trkpt>
      <trkpt lat="54.655063" lon="9.404871">
        <ele>81.154291</ele>
        <time>2021-07-22T10:36:24.000Z</time>
      </trkpt>
      <trkpt lat="54.655043" lon="9.404878">
        <ele>81.161918</ele>
        <time>2021-07-22T10:36:26.000Z</time>
      </trkpt>
      <trkpt lat="54.655032" lon="9.404888">
        <ele>81.166563</ele>
        <time>2021-07-22T10:36:27.000Z</time>
      </trkpt>
      <trkpt lat="54.655022" lon="9.404890">
        <ele>81.170326</ele>
        <time>2021-07-22T10:36:28.000Z</time>
      </trkpt>
      <trkpt lat="54.655010" lon="9.404892">
        <ele>81.174832</ele>
        <time>2021-07-22T10:36:30.000Z</time>
      </trkpt>
      <trkpt lat="54.655003" lon="9.404890">
        <ele>81.177484</ele>
        <time>2021-07-22T10:36:31.000Z</time>
      </trkpt>
      <trkpt lat="54.654993" lon="9.404890">
        <ele>81.181222</ele>
        <time>2021-07-22T10:36:32.000Z</time>
      </trkpt>
      <trkpt lat="54.654957" lon="9.404861">
        <ele>81.196067</ele>
        <time>2021-07-22T10:36:36.000Z</time>
      </trkpt>
      <trkpt lat="54.654936" lon="9.404844">
        <ele>81.204734</ele>
        <time>2021-07-22T10:36:39.000Z</time>
      </trkpt>
      <trkpt lat="54.654929" lon="9.404840">
        <ele>81.207490</ele>
        <time>2021-07-22T10:36:40.000Z</time>
      </trkpt>
      <trkpt lat="54.654920" lon="9.404839">
        <ele>81.210861</ele>
        <time>2021-07-22T10:36:41.000Z</time>
      </trkpt>
      <trkpt lat="54.654907" lon="9.404816">
        <ele>81.217814</ele>
        <time>2021-07-22T10:36:43.000Z</time>
      </trkpt>
      <trkpt lat="54.654879" lon="9.404791">
        <ele>81.229593</ele>
        <time>2021-07-22T10:36:46.000Z</time>
      </trkpt>
      <trkpt lat="54.654871" lon="9.404778">
        <ele>81.233697</ele>
        <time>2021-07-22T10:36:47.000Z</time>
      </trkpt>
      <trkpt lat="54.654834" lon="9.404759">
        <ele>81.248124</ele>
        <time>2021-07-22T10:36:51.000Z</time>
      </trkpt>
      <trkpt lat="54.654828" lon="9.404748">
        <ele>81.251393</ele>
        <time>2021-07-22T10:36:53.000Z</time>
      </trkpt>
      <trkpt lat="54.654810" lon="9.404748">
        <ele>81.258121</ele>
        <time>2021-07-22T10:36:56.000Z</time>
      </trkpt>
      <trkpt lat="54.654754" lon="9.404694">
        <ele>81.282089</ele>
        <time>2021-07-22T10:37:04.000Z</time>
      </trkpt>
      <trkpt lat="54.654710" lon="9.404615">
        <ele>81.305801</ele>
        <time>2021-07-22T10:37:09.000Z</time>
      </trkpt>
      <trkpt lat="54.654696" lon="9.404578">
        <ele>81.315361</ele>
        <time>2021-07-22T10:37:11.000Z</time>
      </trkpt>
      <trkpt lat="54.654638" lon="9.404467">
        <ele>81.450970</ele>
        <time>2021-07-22T10:37:16.000Z</time>
      </trkpt>
      <trkpt lat="54.654617" lon="9.404436">
        <ele>81.499684</ele>
        <time>2021-07-22T10:37:18.000Z</time>
      </trkpt>
      <trkpt lat="54.654605" lon="9.404405">
        <ele>81.537748</ele>
        <time>2021-07-22T10:37:20.000Z</time>
      </trkpt>
      <trkpt lat="54.654553" lon="9.404341">
        <ele>81.650351</ele>
        <time>2021-07-22T10:37:25.000Z</time>
      </trkpt>
      <trkpt lat="54.654539" lon="9.404323">
        <ele>81.681129</ele>
        <time>2021-07-22T10:37:26.000Z</time>
      </trkpt>
      <trkpt lat="54.654436" lon="9.404205">
        <ele>81.899101</ele>
        <time>2021-07-22T10:37:32.000Z</time>
      </trkpt>
      <trkpt lat="54.654374" lon="9.404101">
        <ele>82.051498</ele>
        <time>2021-07-22T10:37:39.000Z</time>
      </trkpt>
      <trkpt lat="54.654364" lon="9.404083">
        <ele>82.076965</ele>
        <time>2021-07-22T10:37:40.000Z</time>
      </trkpt>
      <trkpt lat="54.654316" lon="9.404022">
        <ele>82.182057</ele>
        <time>2021-07-22T10:37:44.000Z</time>
      </trkpt>
      <trkpt lat="54.654291" lon="9.403995">
        <ele>82.234057</ele>
        <time>2021-07-22T10:37:46.000Z</time>
      </trkpt>
      <trkpt lat="54.654265" lon="9.403971">
        <ele>82.286051</ele>
        <time>2021-07-22T10:37:48.000Z</time>
      </trkpt>
      <trkpt lat="54.654238" lon="9.403946">
        <ele>82.340081</ele>
        <time>2021-07-22T10:37:51.000Z</time>
      </trkpt>
      <trkpt lat="54.654227" lon="9.403920">
        <ele>82.372952</ele>
        <time>2021-07-22T10:37:53.000Z</time>
      </trkpt>
      <trkpt lat="54.654210" lon="9.403898">
        <ele>82.410413</ele>
        <time>2021-07-22T10:37:55.000Z</time>
      </trkpt>
      <trkpt lat="54.654204" lon="9.403891">
        <ele>82.423182</ele>
        <time>2021-07-22T10:37:56.000Z</time>
      </trkpt>
      <trkpt lat="54.654150" lon="9.403840">
        <ele>82.531728</ele>
        <time>2021-07-22T10:38:02.000Z</time>
      </trkpt>
      <trkpt lat="54.654073" lon="9.403750">
        <ele>82.695693</ele>
        <time>2021-07-22T10:38:11.000Z</time>
      </trkpt>
      <trkpt lat="54.654057" lon="9.403719">
        <ele>82.738088</ele>
        <time>2021-07-22T10:38:14.000Z</time>
      </trkpt>
      <trkpt lat="54.654034" lon="9.403692">
        <ele>82.787132</ele>
        <time>2021-07-22T10:38:16.000Z</time>
      </trkpt>
      <trkpt lat="54.654026" lon="9.403669">
        <ele>82.814519</ele>
        <time>2021-07-22T10:38:17.000Z</time>
      </trkpt>
      <trkpt lat="54.653994" lon="9.403598">
        <ele>82.906367</ele>
        <time>2021-07-22T10:38:21.000Z</time>
      </trkpt>
      <trkpt lat="54.653974" lon="9.403579">
        <ele>82.946624</ele>
        <time>2021-07-22T10:38:22.000Z</time>
      </trkpt>
      <trkpt lat="54.653962" lon="9.403565">
        <ele>82.972162</ele>
        <time>2021-07-22T10:38:23.000Z</time>
      </trkpt>
      <trkpt lat="54.653952" lon="9.403551">
        <ele>82.994862</ele>
        <time>2021-07-22T10:38:24.000Z</time>
      </trkpt>
      <trkpt lat="54.653940" lon="9.403543">
        <ele>83.017550</ele>
        <time>2021-07-22T10:38:25.000Z</time>
      </trkpt>
      <trkpt lat="54.653929" lon="9.403532">
        <ele>83.039967</ele>
        <time>2021-07-22T10:38:26.000Z</time>
      </trkpt>
      <trkpt lat="54.653879" lon="9.403457">
        <ele>83.156745</ele>
        <time>2021-07-22T10:38:31.000Z</time>
      </trkpt>
      <trkpt lat="54.653862" lon="9.403433">
        <ele>83.195463</ele>
        <time>2021-07-22T10:38:33.000Z</time>
      </trkpt>
      <trkpt lat="54.653852" lon="9.403422">
        <ele>83.216372</ele>
        <time>2021-07-22T10:38:34.000Z</time>
      </trkpt>
      <trkpt lat="54.653845" lon="9.403410">
        <ele>83.233763</ele>
        <time>2021-07-22T10:38:35.000Z</time>
      </trkpt>
      <trkpt lat="54.653825" lon="9.403376">
        <ele>83.283245</ele>
        <time>2021-07-22T10:38:37.000Z</time>
      </trkpt>
      <trkpt lat="54.653812" lon="9.403363">
        <ele>83.309738</ele>
        <time>2021-07-22T10:38:38.000Z</time>
      </trkpt>
      <trkpt lat="54.653697" lon="9.403262">
        <ele>83.537280</ele>
        <time>2021-07-22T10:38:43.000Z</time>
      </trkpt>
      <trkpt lat="54.653670" lon="9.403217">
        <ele>83.603442</ele>
        <time>2021-07-22T10:38:47.000Z</time>
      </trkpt>
      <trkpt lat="54.653656" lon="9.403196">
        <ele>83.636139</ele>
        <time>2021-07-22T10:38:48.000Z</time>
      </trkpt>
      <trkpt lat="54.653648" lon="9.403180">
        <ele>83.657721</ele>
        <time>2021-07-22T10:38:49.000Z</time>
      </trkpt>
      <trkpt lat="54.653635" lon="9.403163">
        <ele>83.686476</ele>
        <time>2021-07-22T10:38:50.000Z</time>
      </trkpt>
      <trkpt lat="54.653589" lon="9.403080">
        <ele>83.803773</ele>
        <time>2021-07-22T10:38:54.000Z</time>
      </trkpt>
      <trkpt lat="54.653585" lon="9.403064">
        <ele>83.821561</ele>
        <time>2021-07-22T10:38:55.000Z</time>
      </trkpt>
      <trkpt lat="54.653570" lon="9.403010">
        <ele>83.882691</ele>
        <time>2021-07-22T10:38:58.000Z</time>
      </trkpt>
      <trkpt lat="54.653552" lon="9.402979">
        <ele>83.927513</ele>
        <time>2021-07-22T10:39:00.000Z</time>
      </trkpt>
      <trkpt lat="54.653542" lon="9.402962">
        <ele>83.952254</ele>
        <time>2021-07-22T10:39:01.000Z</time>
      </trkpt>
      <trkpt lat="54.653516" lon="9.402912">
        <ele>84.020862</ele>
        <time>2021-07-22T10:39:04.000Z</time>
      </trkpt>
      <trkpt lat="54.653471" lon="9.402868">
        <ele>84.112062</ele>
        <time>2021-07-22T10:39:07.000Z</time>
      </trkpt>
      <trkpt lat="54.653343" lon="9.402762">
        <ele>84.362428</ele>
        <time>2021-07-22T10:39:14.000Z</time>
      </trkpt>
      <trkpt lat="54.653320" lon="9.402727">
        <ele>84.416482</ele>
        <time>2021-07-22T10:39:17.000Z</time>
      </trkpt>
      <trkpt lat="54.653278" lon="9.402674">
        <ele>84.499463</ele>
        <time>2021-07-22T10:39:21.000Z</time>
      </trkpt>
      <trkpt lat="54.653266" lon="9.402669">
        <ele>84.508928</ele>
        <time>2021-07-22T10:39:22.000Z</time>
      </trkpt>
      <trkpt lat="54.653223" lon="9.402641">
        <ele>84.544161</ele>
        <time>2021-07-22T10:39:26.000Z</time>
      </trkpt>
      <trkpt lat="54.653199" lon="9.402606">
        <ele>84.568239</ele>
        <time>2021-07-22T10:39:28.000Z</time>
      </trkpt>
      <trkpt lat="54.653183" lon="9.402593">
        <ele>84.581795</ele>
        <time>2021-07-22T10:39:29.000Z</time>
      </trkpt>
      <trkpt lat="54.653151" lon="9.402589">
        <ele>84.606396</ele>
        <time>2021-07-22T10:39:32.000Z</time>
      </trkpt>
      <trkpt lat="54.653121" lon="9.402592">
        <ele>84.629438</ele>
        <time>2021-07-22T10:39:35.000Z</time>
      </trkpt>
      <trkpt lat="54.653104" lon="9.402598">
        <ele>84.642743</ele>
        <time>2021-07-22T10:39:37.000Z</time>
      </trkpt>
      <trkpt lat="54.653095" lon="9.402604">
        <ele>84.650139</ele>
        <time>2021-07-22T10:39:38.000Z</time>
      </trkpt>
      <trkpt lat="54.653085" lon="9.402611">
        <ele>84.658412</ele>
        <time>2021-07-22T10:39:39.000Z</time>
      </trkpt>
      <trkpt lat="54.653047" lon="9.402646">
        <ele>84.691428</ele>
        <time>2021-07-22T10:39:44.000Z</time>
      </trkpt>
      <trkpt lat="54.653038" lon="9.402658">
        <ele>84.700144</ele>
        <time>2021-07-22T10:39:45.000Z</time>
      </trkpt>
      <trkpt lat="54.653030" lon="9.402669">
        <ele>84.707982</ele>
        <time>2021-07-22T10:39:46.000Z</time>
      </trkpt>
      <trkpt lat="54.653009" lon="9.402689">
        <ele>84.726367</ele>
        <time>2021-07-22T10:39:49.000Z</time>
      </trkpt>
      <trkpt lat="54.652999" lon="9.402697">
        <ele>84.734817</ele>
        <time>2021-07-22T10:39:50.000Z</time>
      </trkpt>
      <trkpt lat="54.652990" lon="9.402706">
        <ele>84.742789</ele>
        <time>2021-07-22T10:39:51.000Z</time>
      </trkpt>
      <trkpt lat="54.652962" lon="9.402733">
        <ele>84.767374</ele>
        <time>2021-07-22T10:39:55.000Z</time>
      </trkpt>
      <trkpt lat="54.652937" lon="9.402751">
        <ele>84.788140</ele>
        <time>2021-07-22T10:39:57.000Z</time>
      </trkpt>
      <trkpt lat="54.652903" lon="9.402805">
        <ele>84.823545</ele>
        <time>2021-07-22T10:40:00.000Z</time>
      </trkpt>
      <trkpt lat="54.652890" lon="9.402825">
        <ele>84.836890</ele>
        <time>2021-07-22T10:40:01.000Z</time>
      </trkpt>
      <trkpt lat="54.652879" lon="9.402839">
        <ele>84.847364</ele>
        <time>2021-07-22T10:40:02.000Z</time>
      </trkpt>
      <trkpt lat="54.652865" lon="9.402860">
        <ele>84.861578</ele>
        <time>2021-07-22T10:40:03.000Z</time>
      </trkpt>
      <trkpt lat="54.652851" lon="9.402879">
        <ele>84.875226</ele>
        <time>2021-07-22T10:40:04.000Z</time>
      </trkpt>
      <trkpt lat="54.652792" lon="9.402971">
        <ele>84.936155</ele>
        <time>2021-07-22T10:40:07.000Z</time>
      </trkpt>
      <trkpt lat="54.652775" lon="9.402985">
        <ele>84.950594</ele>
        <time>2021-07-22T10:40:08.000Z</time>
      </trkpt>
      <trkpt lat="54.652758" lon="9.403008">
        <ele>84.967148</ele>
        <time>2021-07-22T10:40:10.000Z</time>
      </trkpt>
      <trkpt lat="54.652739" lon="9.403016">
        <ele>84.982143</ele>
        <time>2021-07-22T10:40:12.000Z</time>
      </trkpt>
      <trkpt lat="54.652714" lon="9.403011">
        <ele>85.001440</ele>
        <time>2021-07-22T10:40:14.000Z</time>
      </trkpt>
      <trkpt lat="54.652689" lon="9.403020">
        <ele>85.021021</ele>
        <time>2021-07-22T10:40:16.000Z</time>
      </trkpt>
      <trkpt lat="54.652665" lon="9.403036">
        <ele>85.040745</ele>
        <time>2021-07-22T10:40:18.000Z</time>
      </trkpt>
      <trkpt lat="54.652638" lon="9.403074">
        <ele>85.067443</ele>
        <time>2021-07-22T10:40:20.000Z</time>
      </trkpt>
      <trkpt lat="54.652617" lon="9.403081">
        <ele>85.083843</ele>
        <time>2021-07-22T10:40:21.000Z</time>
      </trkpt>
      <trkpt lat="54.652578" lon="9.403097">
        <ele>85.114578</ele>
        <time>2021-07-22T10:40:23.000Z</time>
      </trkpt>
      <trkpt lat="54.652564" lon="9.403107">
        <ele>85.126193</ele>
        <time>2021-07-22T10:40:24.000Z</time>
      </trkpt>
      <trkpt lat="54.652531" lon="9.403126">
        <ele>85.152864</ele>
        <time>2021-07-22T10:40:28.000Z</time>
      </trkpt>
      <trkpt lat="54.652526" lon="9.403123">
        <ele>85.156922</ele>
        <time>2021-07-22T10:40:29.000Z</time>
      </trkpt>
      <trkpt lat="54.652512" lon="9.403120">
        <ele>85.167740</ele>
        <time>2021-07-22T10:40:30.000Z</time>
      </trkpt>
      <trkpt lat="54.652477" lon="9.403125">
        <ele>85.194669</ele>
        <time>2021-07-22T10:40:32.000Z</time>
      </trkpt>
      <trkpt lat="54.652398" lon="9.403171">
        <ele>85.258589</ele>
        <time>2021-07-22T10:40:36.000Z</time>
      </trkpt>
      <trkpt lat="54.652270" lon="9.403273">
        <ele>85.366666</ele>
        <time>2021-07-22T10:40:42.000Z</time>
      </trkpt>
      <trkpt lat="54.652165" lon="9.403289">
        <ele>85.447491</ele>
        <time>2021-07-22T10:40:49.000Z</time>
      </trkpt>
      <trkpt lat="54.652138" lon="9.403295">
        <ele>85.468364</ele>
        <time>2021-07-22T10:40:51.000Z</time>
      </trkpt>
      <trkpt lat="54.652095" lon="9.403299">
        <ele>85.501384</ele>
        <time>2021-07-22T10:40:54.000Z</time>
      </trkpt>
      <trkpt lat="54.652073" lon="9.403292">
        <ele>85.518536</ele>
        <time>2021-07-22T10:40:55.000Z</time>
      </trkpt>
      <trkpt lat="54.651986" lon="9.403283">
        <ele>85.585366</ele>
        <time>2021-07-22T10:40:59.000Z</time>
      </trkpt>
      <trkpt lat="54.651901" lon="9.403279">
        <ele>85.650567</ele>
        <time>2021-07-22T10:41:04.000Z</time>
      </trkpt>
      <trkpt lat="54.651852" lon="9.403268">
        <ele>85.688455</ele>
        <time>2021-07-22T10:41:07.000Z</time>
      </trkpt>
      <trkpt lat="54.651793" lon="9.403259">
        <ele>85.733871</ele>
        <time>2021-07-22T10:41:10.000Z</time>
      </trkpt>
      <trkpt lat="54.651759" lon="9.403257">
        <ele>85.759957</ele>
        <time>2021-07-22T10:41:12.000Z</time>
      </trkpt>
      <trkpt lat="54.651664" lon="9.403249">
        <ele>85.832888</ele>
        <time>2021-07-22T10:41:17.000Z</time>
      </trkpt>
      <trkpt lat="54.651620" lon="9.403263">
        <ele>85.867193</ele>
        <time>2021-07-22T10:41:19.000Z</time>
      </trkpt>
      <trkpt lat="54.651597" lon="9.403274">
        <ele>85.859018</ele>
        <time>2021-07-22T10:41:21.000Z</time>
      </trkpt>
      <trkpt lat="54.651576" lon="9.403283">
        <ele>85.843277</ele>
        <time>2021-07-22T10:41:23.000Z</time>
      </trkpt>
      <trkpt lat="54.651553" lon="9.403276">
        <ele>85.826286</ele>
        <time>2021-07-22T10:41:25.000Z</time>
      </trkpt>
      <trkpt lat="54.651541" lon="9.403273">
        <ele>85.817465</ele>
        <time>2021-07-22T10:41:27.000Z</time>
      </trkpt>
      <trkpt lat="54.651539" lon="9.403244">
        <ele>85.805171</ele>
        <time>2021-07-22T10:41:30.000Z</time>
      </trkpt>
      <trkpt lat="54.651536" lon="9.403223">
        <ele>85.796067</ele>
        <time>2021-07-22T10:41:32.000Z</time>
      </trkpt>
      <trkpt lat="54.651524" lon="9.403219">
        <ele>85.787175</ele>
        <time>2021-07-22T10:41:33.000Z</time>
      </trkpt>
      <trkpt lat="54.651504" lon="9.403209">
        <ele>85.772027</ele>
        <time>2021-07-22T10:41:34.000Z</time>
      </trkpt>
      <trkpt lat="54.651462" lon="9.403210">
        <ele>85.741467</ele>
        <time>2021-07-22T10:41:36.000Z</time>
      </trkpt>
      <trkpt lat="54.651382" lon="9.403196">
        <ele>85.682966</ele>
        <time>2021-07-22T10:41:40.000Z</time>
      </trkpt>
      <trkpt lat="54.651370" lon="9.403193">
        <ele>85.674144</ele>
        <time>2021-07-22T10:41:41.000Z</time>
      </trkpt>
      <trkpt lat="54.651350" lon="9.403184">
        <ele>85.659108</ele>
        <time>2021-07-22T10:41:43.000Z</time>
      </trkpt>
      <trkpt lat="54.651257" lon="9.403166">
        <ele>85.591023</ele>
        <time>2021-07-22T10:41:48.000Z</time>
      </trkpt>
      <trkpt lat="54.651207" lon="9.403166">
        <ele>85.554645</ele>
        <time>2021-07-22T10:41:52.000Z</time>
      </trkpt>
      <trkpt lat="54.651198" lon="9.403175">
        <ele>85.547080</ele>
        <time>2021-07-22T10:41:54.000Z</time>
      </trkpt>
      <trkpt lat="54.651192" lon="9.403183">
        <ele>85.541567</ele>
        <time>2021-07-22T10:41:55.000Z</time>
      </trkpt>
      <trkpt lat="54.651158" lon="9.403207">
        <ele>85.514847</ele>
        <time>2021-07-22T10:42:02.000Z</time>
      </trkpt>
      <trkpt lat="54.651093" lon="9.403213">
        <ele>85.467489</ele>
        <time>2021-07-22T10:42:08.000Z</time>
      </trkpt>
      <trkpt lat="54.651078" lon="9.403217">
        <ele>85.456447</ele>
        <time>2021-07-22T10:42:09.000Z</time>
      </trkpt>
      <trkpt lat="54.651002" lon="9.403222">
        <ele>85.401113</ele>
        <time>2021-07-22T10:42:16.000Z</time>
      </trkpt>
      <trkpt lat="54.650918" lon="9.403301">
        <ele>85.331537</ele>
        <time>2021-07-22T10:42:23.000Z</time>
      </trkpt>
      <trkpt lat="54.650891" lon="9.403348">
        <ele>85.303657</ele>
        <time>2021-07-22T10:42:26.000Z</time>
      </trkpt>
      <trkpt lat="54.650883" lon="9.403367">
        <ele>85.293766</ele>
        <time>2021-07-22T10:42:27.000Z</time>
      </trkpt>
      <trkpt lat="54.650875" lon="9.403389">
        <ele>85.282828</ele>
        <time>2021-07-22T10:42:28.000Z</time>
      </trkpt>
      <trkpt lat="54.650872" lon="9.403411">
        <ele>85.273314</ele>
        <time>2021-07-22T10:42:29.000Z</time>
      </trkpt>
      <trkpt lat="54.650872" lon="9.403520">
        <ele>85.227433</ele>
        <time>2021-07-22T10:42:34.000Z</time>
      </trkpt>
      <trkpt lat="54.650872" lon="9.403538">
        <ele>85.219856</ele>
        <time>2021-07-22T10:42:35.000Z</time>
      </trkpt>
      <trkpt lat="54.650897" lon="9.403568">
        <ele>85.197713</ele>
        <time>2021-07-22T10:42:37.000Z</time>
      </trkpt>
      <trkpt lat="54.650903" lon="9.403587">
        <ele>85.188602</ele>
        <time>2021-07-22T10:42:40.000Z</time>
      </trkpt>
      <trkpt lat="54.650900" lon="9.403609">
        <ele>85.179088</ele>
        <time>2021-07-22T10:42:42.000Z</time>
      </trkpt>
      <trkpt lat="54.650912" lon="9.403671">
        <ele>85.151568</ele>
        <time>2021-07-22T10:42:45.000Z</time>
      </trkpt>
      <trkpt lat="54.650906" lon="9.403767">
        <ele>85.110924</ele>
        <time>2021-07-22T10:42:49.000Z</time>
      </trkpt>
      <trkpt lat="54.650893" lon="9.403842">
        <ele>85.077968</ele>
        <time>2021-07-22T10:42:53.000Z</time>
      </trkpt>
      <trkpt lat="54.650894" lon="9.403871">
        <ele>85.065739</ele>
        <time>2021-07-22T10:42:55.000Z</time>
      </trkpt>
      <trkpt lat="54.650876" lon="9.404005">
        <ele>85.007834</ele>
        <time>2021-07-22T10:43:02.000Z</time>
      </trkpt>
      <trkpt lat="54.650866" lon="9.404054">
        <ele>84.985963</ele>
        <time>2021-07-22T10:43:04.000Z</time>
      </trkpt>
      <trkpt lat="54.650864" lon="9.404082">
        <ele>84.974088</ele>
        <time>2021-07-22T10:43:05.000Z</time>
      </trkpt>
      <trkpt lat="54.650852" lon="9.404122">
        <ele>84.955121</ele>
        <time>2021-07-22T10:43:07.000Z</time>
      </trkpt>
      <trkpt lat="54.650836" lon="9.404144">
        <ele>84.940246</ele>
        <time>2021-07-22T10:43:08.000Z</time>
      </trkpt>
      <trkpt lat="54.650800" lon="9.404283">
        <ele>84.876142</ele>
        <time>2021-07-22T10:43:14.000Z</time>
      </trkpt>
      <trkpt lat="54.650800" lon="9.404322">
        <ele>84.859726</ele>
        <time>2021-07-22T10:43:16.000Z</time>
      </trkpt>
      <trkpt lat="54.650804" lon="9.404367">
        <ele>84.840562</ele>
        <time>2021-07-22T10:43:18.000Z</time>
      </trkpt>
      <trkpt lat="54.650799" lon="9.404432">
        <ele>84.812960</ele>
        <time>2021-07-22T10:43:20.000Z</time>
      </trkpt>
      <trkpt lat="54.650797" lon="9.404498">
        <ele>84.785141</ele>
        <time>2021-07-22T10:43:22.000Z</time>
      </trkpt>
      <trkpt lat="54.650803" lon="9.404547">
        <ele>84.764058</ele>
        <time>2021-07-22T10:43:24.000Z</time>
      </trkpt>
      <trkpt lat="54.650803" lon="9.404597">
        <ele>84.743012</ele>
        <time>2021-07-22T10:43:26.000Z</time>
      </trkpt>
      <trkpt lat="54.650804" lon="9.404659">
        <ele>84.716904</ele>
        <time>2021-07-22T10:43:28.000Z</time>
      </trkpt>
      <trkpt lat="54.650819" lon="9.404713">
        <ele>84.691689</ele>
        <time>2021-07-22T10:43:30.000Z</time>
      </trkpt>
      <trkpt lat="54.650849" lon="9.404831">
        <ele>84.637436</ele>
        <time>2021-07-22T10:43:34.000Z</time>
      </trkpt>
      <trkpt lat="54.650862" lon="9.404909">
        <ele>84.603268</ele>
        <time>2021-07-22T10:43:37.000Z</time>
      </trkpt>
      <trkpt lat="54.650857" lon="9.405049">
        <ele>84.588525</ele>
        <time>2021-07-22T10:43:41.000Z</time>
      </trkpt>
      <trkpt lat="54.650858" lon="9.405078">
        <ele>84.604694</ele>
        <time>2021-07-22T10:43:42.000Z</time>
      </trkpt>
      <trkpt lat="54.650860" lon="9.405149">
        <ele>84.644257</ele>
        <time>2021-07-22T10:43:44.000Z</time>
      </trkpt>
      <trkpt lat="54.650859" lon="9.405210">
        <ele>84.678221</ele>
        <time>2021-07-22T10:43:46.000Z</time>
      </trkpt>
      <trkpt lat="54.650852" lon="9.405245">
        <ele>84.698832</ele>
        <time>2021-07-22T10:43:47.000Z</time>
      </trkpt>
      <trkpt lat="54.650820" lon="9.405465">
        <ele>84.825087</ele>
        <time>2021-07-22T10:43:54.000Z</time>
      </trkpt>
      <trkpt lat="54.650782" lon="9.405574">
        <ele>84.895915</ele>
        <time>2021-07-22T10:44:00.000Z</time>
      </trkpt>
      <trkpt lat="54.650771" lon="9.405588">
        <ele>84.909056</ele>
        <time>2021-07-22T10:44:01.000Z</time>
      </trkpt>
      <trkpt lat="54.650703" lon="9.405642">
        <ele>84.981045</ele>
        <time>2021-07-22T10:44:06.000Z</time>
      </trkpt>
      <trkpt lat="54.650660" lon="9.405658">
        <ele>85.023358</ele>
        <time>2021-07-22T10:44:09.000Z</time>
      </trkpt>
      <trkpt lat="54.650571" lon="9.405690">
        <ele>85.110808</ele>
        <time>2021-07-22T10:44:15.000Z</time>
      </trkpt>
      <trkpt lat="54.650556" lon="9.405697">
        <ele>85.125754</ele>
        <time>2021-07-22T10:44:16.000Z</time>
      </trkpt>
      <trkpt lat="54.650534" lon="9.405713">
        <ele>85.148715</ele>
        <time>2021-07-22T10:44:18.000Z</time>
      </trkpt>
      <trkpt lat="54.650498" lon="9.405729">
        <ele>85.184473</ele>
        <time>2021-07-22T10:44:21.000Z</time>
      </trkpt>
      <trkpt lat="54.650413" lon="9.405758">
        <ele>85.267820</ele>
        <time>2021-07-22T10:44:27.000Z</time>
      </trkpt>
      <trkpt lat="54.650379" lon="9.405781">
        <ele>85.302943</ele>
        <time>2021-07-22T10:44:29.000Z</time>
      </trkpt>
      <trkpt lat="54.650297" lon="9.405832">
        <ele>85.386778</ele>
        <time>2021-07-22T10:44:34.000Z</time>
      </trkpt>
      <trkpt lat="54.650283" lon="9.405838">
        <ele>85.400653</ele>
        <time>2021-07-22T10:44:35.000Z</time>
      </trkpt>
      <trkpt lat="54.650259" lon="9.405849">
        <ele>85.424539</ele>
        <time>2021-07-22T10:44:37.000Z</time>
      </trkpt>
      <trkpt lat="54.650159" lon="9.405884">
        <ele>85.522690</ele>
        <time>2021-07-22T10:44:44.000Z</time>
      </trkpt>
      <trkpt lat="54.650055" lon="9.405931">
        <ele>85.626100</ele>
        <time>2021-07-22T10:44:52.000Z</time>
      </trkpt>
      <trkpt lat="54.649950" lon="9.405986">
        <ele>85.731646</ele>
        <time>2021-07-22T10:44:59.000Z</time>
      </trkpt>
      <trkpt lat="54.649900" lon="9.405998">
        <ele>85.780206</ele>
        <time>2021-07-22T10:45:02.000Z</time>
      </trkpt>
      <trkpt lat="54.649853" lon="9.406010">
        <ele>85.825910</ele>
        <time>2021-07-22T10:45:05.000Z</time>
      </trkpt>
      <trkpt lat="54.649759" lon="9.406069">
        <ele>85.922115</ele>
        <time>2021-07-22T10:45:11.000Z</time>
      </trkpt>
      <trkpt lat="54.649694" lon="9.406189">
        <ele>86.013607</ele>
        <time>2021-07-22T10:45:17.000Z</time>
      </trkpt>
      <trkpt lat="54.649632" lon="9.406392">
        <ele>86.141369</ele>
        <time>2021-07-22T10:45:25.000Z</time>
      </trkpt>
      <trkpt lat="54.649629" lon="9.406583">
        <ele>86.247715</ele>
        <time>2021-07-22T10:45:33.000Z</time>
      </trkpt>
      <trkpt lat="54.649640" lon="9.406692">
        <ele>86.294692</ele>
        <time>2021-07-22T10:45:37.000Z</time>
      </trkpt>
      <trkpt lat="54.649647" lon="9.406765">
        <ele>86.297622</ele>
        <time>2021-07-22T10:45:40.000Z</time>
      </trkpt>
      <trkpt lat="54.649645" lon="9.406924">
        <ele>86.303920</ele>
        <time>2021-07-22T10:45:46.000Z</time>
      </trkpt>
      <trkpt lat="54.649661" lon="9.407045">
        <ele>86.308836</ele>
        <time>2021-07-22T10:45:51.000Z</time>
      </trkpt>
      <trkpt lat="54.649665" lon="9.407066">
        <ele>86.309711</ele>
        <time>2021-07-22T10:45:52.000Z</time>
      </trkpt>
      <trkpt lat="54.649662" lon="9.407161">
        <ele>86.313479</ele>
        <time>2021-07-22T10:45:56.000Z</time>
      </trkpt>
      <trkpt lat="54.649660" lon="9.407183">
        <ele>86.314361</ele>
        <time>2021-07-22T10:45:57.000Z</time>
      </trkpt>
      <trkpt lat="54.649661" lon="9.407227">
        <ele>86.316105</ele>
        <time>2021-07-22T10:45:59.000Z</time>
      </trkpt>
      <trkpt lat="54.649669" lon="9.407493">
        <ele>86.326653</ele>
        <time>2021-07-22T10:46:08.000Z</time>
      </trkpt>
      <trkpt lat="54.649677" lon="9.407710">
        <ele>86.335264</ele>
        <time>2021-07-22T10:46:15.000Z</time>
      </trkpt>
      <trkpt lat="54.649670" lon="9.407897">
        <ele>86.342685</ele>
        <time>2021-07-22T10:46:22.000Z</time>
      </trkpt>
      <trkpt lat="54.649675" lon="9.408093">
        <ele>86.350455</ele>
        <time>2021-07-22T10:46:29.000Z</time>
      </trkpt>
      <trkpt lat="54.649691" lon="9.408262">
        <ele>86.357237</ele>
        <time>2021-07-22T10:46:35.000Z</time>
      </trkpt>
      <trkpt lat="54.649658" lon="9.408423">
        <ele>86.364001</ele>
        <time>2021-07-22T10:46:40.000Z</time>
      </trkpt>
      <trkpt lat="54.649676" lon="9.408582">
        <ele>86.370417</ele>
        <time>2021-07-22T10:46:46.000Z</time>
      </trkpt>
      <trkpt lat="54.649657" lon="9.408673">
        <ele>86.374248</ele>
        <time>2021-07-22T10:46:51.000Z</time>
      </trkpt>
      <trkpt lat="54.649642" lon="9.408693">
        <ele>86.375545</ele>
        <time>2021-07-22T10:46:52.000Z</time>
      </trkpt>
      <trkpt lat="54.649556" lon="9.408765">
        <ele>86.382086</ele>
        <time>2021-07-22T10:46:59.000Z</time>
      </trkpt>
      <trkpt lat="54.649423" lon="9.408768">
        <ele>86.391190</ele>
        <time>2021-07-22T10:47:07.000Z</time>
      </trkpt>
      <trkpt lat="54.649379" lon="9.408762">
        <ele>86.394211</ele>
        <time>2021-07-22T10:47:10.000Z</time>
      </trkpt>
      <trkpt lat="54.649321" lon="9.408748">
        <ele>86.398219</ele>
        <time>2021-07-22T10:47:14.000Z</time>
      </trkpt>
      <trkpt lat="54.649252" lon="9.408721">
        <ele>86.403062</ele>
        <time>2021-07-22T10:47:20.000Z</time>
      </trkpt>
      <trkpt lat="54.649182" lon="9.408733">
        <ele>86.407877</ele>
        <time>2021-07-22T10:47:26.000Z</time>
      </trkpt>
      <trkpt lat="54.649117" lon="9.408751">
        <ele>86.412382</ele>
        <time>2021-07-22T10:47:30.000Z</time>
      </trkpt>
      <trkpt lat="54.649075" lon="9.408759">
        <ele>86.415275</ele>
        <time>2021-07-22T10:47:33.000Z</time>
      </trkpt>
      <trkpt lat="54.649061" lon="9.408764">
        <ele>86.416253</ele>
        <time>2021-07-22T10:47:34.000Z</time>
      </trkpt>
      <trkpt lat="54.649022" lon="9.408775">
        <ele>86.419051</ele>
        <time>2021-07-22T10:47:37.000Z</time>
      </trkpt>
      <trkpt lat="54.648962" lon="9.408780">
        <ele>86.423332</ele>
        <time>2021-07-22T10:47:41.000Z</time>
      </trkpt>
      <trkpt lat="54.648860" lon="9.408747">
        <ele>86.430727</ele>
        <time>2021-07-22T10:47:48.000Z</time>
      </trkpt>
      <trkpt lat="54.648804" lon="9.408730">
        <ele>86.434779</ele>
        <time>2021-07-22T10:47:51.000Z</time>
      </trkpt>
      <trkpt lat="54.648751" lon="9.408724">
        <ele>86.438564</ele>
        <time>2021-07-22T10:47:54.000Z</time>
      </trkpt>
      <trkpt lat="54.648657" lon="9.408771">
        <ele>86.445537</ele>
        <time>2021-07-22T10:48:01.000Z</time>
      </trkpt>
      <trkpt lat="54.648618" lon="9.408798">
        <ele>86.448531</ele>
        <time>2021-07-22T10:48:04.000Z</time>
      </trkpt>
      <trkpt lat="54.648622" lon="9.408879">
        <ele>86.451883</ele>
        <time>2021-07-22T10:48:07.000Z</time>
      </trkpt>
      <trkpt lat="54.648622" lon="9.408917">
        <ele>86.453450</ele>
        <time>2021-07-22T10:48:08.000Z</time>
      </trkpt>
      <trkpt lat="54.648620" lon="9.409049">
        <ele>86.458894</ele>
        <time>2021-07-22T10:48:12.000Z</time>
      </trkpt>
      <trkpt lat="54.648627" lon="9.409244">
        <ele>86.466950</ele>
        <time>2021-07-22T10:48:18.000Z</time>
      </trkpt>
      <trkpt lat="54.648621" lon="9.409437">
        <ele>86.474919</ele>
        <time>2021-07-22T10:48:24.000Z</time>
      </trkpt>
      <trkpt lat="54.648624" lon="9.409467">
        <ele>86.476174</ele>
        <time>2021-07-22T10:48:25.000Z</time>
      </trkpt>
      <trkpt lat="54.648634" lon="9.409646">
        <ele>86.483589</ele>
        <time>2021-07-22T10:48:32.000Z</time>
      </trkpt>
      <trkpt lat="54.648641" lon="9.409817">
        <ele>86.490657</ele>
        <time>2021-07-22T10:48:39.000Z</time>
      </trkpt>
      <trkpt lat="54.648634" lon="9.409852">
        <ele>86.492184</ele>
        <time>2021-07-22T10:48:40.000Z</time>
      </trkpt>
      <trkpt lat="54.648647" lon="9.410022">
        <ele>86.499254</ele>
        <time>2021-07-22T10:48:46.000Z</time>
      </trkpt>
      <trkpt lat="54.648668" lon="9.410211">
        <ele>86.507190</ele>
        <time>2021-07-22T10:48:53.000Z</time>
      </trkpt>
      <trkpt lat="54.648682" lon="9.410390">
        <ele>86.514637</ele>
        <time>2021-07-22T10:49:00.000Z</time>
      </trkpt>
      <trkpt lat="54.648694" lon="9.410512">
        <ele>86.519740</ele>
        <time>2021-07-22T10:49:05.000Z</time>
      </trkpt>
      <trkpt lat="54.648710" lon="9.410621">
        <ele>86.524376</ele>
        <time>2021-07-22T10:49:10.000Z</time>
      </trkpt>
      <trkpt lat="54.648708" lon="9.410637">
        <ele>86.525051</ele>
        <time>2021-07-22T10:49:11.000Z</time>
      </trkpt>
      <trkpt lat="54.648714" lon="9.410654">
        <ele>86.525872</ele>
        <time>2021-07-22T10:49:12.000Z</time>
      </trkpt>
      <trkpt lat="54.648720" lon="9.410735">
        <ele>86.529239</ele>
        <time>2021-07-22T10:49:16.000Z</time>
      </trkpt>
      <trkpt lat="54.648722" lon="9.410866">
        <ele>86.534642</ele>
        <time>2021-07-22T10:49:22.000Z</time>
      </trkpt>
      <trkpt lat="54.648737" lon="9.410931">
        <ele>86.537528</ele>
        <time>2021-07-22T10:49:25.000Z</time>
      </trkpt>
      <trkpt lat="54.648752" lon="9.410980">
        <ele>86.539813</ele>
        <time>2021-07-22T10:49:27.000Z</time>
      </trkpt>
      <trkpt lat="54.648757" lon="9.411080">
        <ele>86.543952</ele>
        <time>2021-07-22T10:49:30.000Z</time>
      </trkpt>
      <trkpt lat="54.648761" lon="9.411108">
        <ele>86.544928</ele>
        <time>2021-07-22T10:49:31.000Z</time>
      </trkpt>
      <trkpt lat="54.648771" lon="9.411201">
        <ele>86.545858</ele>
        <time>2021-07-22T10:49:34.000Z</time>
      </trkpt>
      <trkpt lat="54.648777" lon="9.411254">
        <ele>86.546389</ele>
        <time>2021-07-22T10:49:36.000Z</time>
      </trkpt>
      <trkpt lat="54.648767" lon="9.411301">
        <ele>86.546881</ele>
        <time>2021-07-22T10:49:37.000Z</time>
      </trkpt>
      <trkpt lat="54.648789" lon="9.411565">
        <ele>86.549503</ele>
        <time>2021-07-22T10:49:44.000Z</time>
      </trkpt>
      <trkpt lat="54.648796" lon="9.411716">
        <ele>86.550992</ele>
        <time>2021-07-22T10:49:49.000Z</time>
      </trkpt>
      <trkpt lat="54.648802" lon="9.411740">
        <ele>86.551249</ele>
        <time>2021-07-22T10:49:50.000Z</time>
      </trkpt>
      <trkpt lat="54.648814" lon="9.411837">
        <ele>86.552225</ele>
        <time>2021-07-22T10:49:54.000Z</time>
      </trkpt>
      <trkpt lat="54.648827" lon="9.411885">
        <ele>86.552746</ele>
        <time>2021-07-22T10:49:56.000Z</time>
      </trkpt>
      <trkpt lat="54.648837" lon="9.411936">
        <ele>86.553275</ele>
        <time>2021-07-22T10:49:58.000Z</time>
      </trkpt>
      <trkpt lat="54.648837" lon="9.411959">
        <ele>86.553501</ele>
        <time>2021-07-22T10:49:59.000Z</time>
      </trkpt>
      <trkpt lat="54.648850" lon="9.412059">
        <ele>86.554509</ele>
        <time>2021-07-22T10:50:04.000Z</time>
      </trkpt>
      <trkpt lat="54.648852" lon="9.412112">
        <ele>86.555031</ele>
        <time>2021-07-22T10:50:06.000Z</time>
      </trkpt>
      <trkpt lat="54.648881" lon="9.412285">
        <ele>86.556802</ele>
        <time>2021-07-22T10:50:14.000Z</time>
      </trkpt>
      <trkpt lat="54.648898" lon="9.412494">
        <ele>86.558877</ele>
        <time>2021-07-22T10:50:22.000Z</time>
      </trkpt>
      <trkpt lat="54.648923" lon="9.412709">
        <ele>86.561033</ele>
        <time>2021-07-22T10:50:29.000Z</time>
      </trkpt>
      <trkpt lat="54.648937" lon="9.412929">
        <ele>86.563209</ele>
        <time>2021-07-22T10:50:37.000Z</time>
      </trkpt>
      <trkpt lat="54.648979" lon="9.413124">
        <ele>86.565254</ele>
        <time>2021-07-22T10:50:45.000Z</time>
      </trkpt>
      <trkpt lat="54.649011" lon="9.413191">
        <ele>86.566108</ele>
        <time>2021-07-22T10:50:50.000Z</time>
      </trkpt>
      <trkpt lat="54.649019" lon="9.413191">
        <ele>86.566244</ele>
        <time>2021-07-22T10:50:51.000Z</time>
      </trkpt>
      <trkpt lat="54.649042" lon="9.413181">
        <ele>86.566647</ele>
        <time>2021-07-22T10:50:53.000Z</time>
      </trkpt>
      <trkpt lat="54.649071" lon="9.413184">
        <ele>86.567141</ele>
        <time>2021-07-22T10:50:55.000Z</time>
      </trkpt>
      <trkpt lat="54.649167" lon="9.413146">
        <ele>86.568814</ele>
        <time>2021-07-22T10:51:02.000Z</time>
      </trkpt>
      <trkpt lat="54.649181" lon="9.413140">
        <ele>86.569059</ele>
        <time>2021-07-22T10:51:03.000Z</time>
      </trkpt>
      <trkpt lat="54.649253" lon="9.413079">
        <ele>86.570422</ele>
        <time>2021-07-22T10:51:10.000Z</time>
      </trkpt>
      <trkpt lat="54.649287" lon="9.413061">
        <ele>86.571026</ele>
        <time>2021-07-22T10:51:13.000Z</time>
      </trkpt>
      <trkpt lat="54.649315" lon="9.413032">
        <ele>86.571581</ele>
        <time>2021-07-22T10:51:16.000Z</time>
      </trkpt>
      <trkpt lat="54.649335" lon="9.413010">
        <ele>86.571984</ele>
        <time>2021-07-22T10:51:18.000Z</time>
      </trkpt>
      <trkpt lat="54.649423" lon="9.412901">
        <ele>86.573823</ele>
        <time>2021-07-22T10:51:27.000Z</time>
      </trkpt>
      <trkpt lat="54.649488" lon="9.412828">
        <ele>86.575140</ele>
        <time>2021-07-22T10:51:33.000Z</time>
      </trkpt>
      <trkpt lat="54.649495" lon="9.412823">
        <ele>86.575269</ele>
        <time>2021-07-22T10:51:34.000Z</time>
      </trkpt>
      <trkpt lat="54.649521" lon="9.412789">
        <ele>86.565959</ele>
        <time>2021-07-22T10:51:37.000Z</time>
      </trkpt>
      <trkpt lat="54.649537" lon="9.412746">
        <ele>86.554064</ele>
        <time>2021-07-22T10:51:40.000Z</time>
      </trkpt>
      <trkpt lat="54.649544" lon="9.412732">
        <ele>86.549759</ele>
        <time>2021-07-22T10:51:41.000Z</time>
      </trkpt>
      <trkpt lat="54.649561" lon="9.412719">
        <ele>86.542284</ele>
        <time>2021-07-22T10:51:43.000Z</time>
      </trkpt>
      <trkpt lat="54.649655" lon="9.412638">
        <ele>86.500049</ele>
        <time>2021-07-22T10:51:47.000Z</time>
      </trkpt>
      <trkpt lat="54.649704" lon="9.412615">
        <ele>86.479632</ele>
        <time>2021-07-22T10:51:50.000Z</time>
      </trkpt>
      <trkpt lat="54.649739" lon="9.412588">
        <ele>86.464220</ele>
        <time>2021-07-22T10:51:52.000Z</time>
      </trkpt>
      <trkpt lat="54.649820" lon="9.412478">
        <ele>86.422798</ele>
        <time>2021-07-22T10:51:58.000Z</time>
      </trkpt>
      <trkpt lat="54.649888" lon="9.412429">
        <ele>86.393174</ele>
        <time>2021-07-22T10:52:05.000Z</time>
      </trkpt>
      <trkpt lat="54.649953" lon="9.412353">
        <ele>86.361618</ele>
        <time>2021-07-22T10:52:10.000Z</time>
      </trkpt>
      <trkpt lat="54.649983" lon="9.412335">
        <ele>86.348848</ele>
        <time>2021-07-22T10:52:12.000Z</time>
      </trkpt>
      <trkpt lat="54.650103" lon="9.412248">
        <ele>86.296522</ele>
        <time>2021-07-22T10:52:19.000Z</time>
      </trkpt>
      <trkpt lat="54.650227" lon="9.412160">
        <ele>86.242621</ele>
        <time>2021-07-22T10:52:26.000Z</time>
      </trkpt>
      <trkpt lat="54.650368" lon="9.412029">
        <ele>86.178252</ele>
        <time>2021-07-22T10:52:34.000Z</time>
      </trkpt>
      <trkpt lat="54.650448" lon="9.411941">
        <ele>86.140121</ele>
        <time>2021-07-22T10:52:41.000Z</time>
      </trkpt>
      <trkpt lat="54.650454" lon="9.411933">
        <ele>86.137074</ele>
        <time>2021-07-22T10:52:42.000Z</time>
      </trkpt>
      <trkpt lat="54.650462" lon="9.411916">
        <ele>86.131976</ele>
        <time>2021-07-22T10:52:44.000Z</time>
      </trkpt>
      <trkpt lat="54.650479" lon="9.411892">
        <ele>86.123150</ele>
        <time>2021-07-22T10:52:47.000Z</time>
      </trkpt>
      <trkpt lat="54.650518" lon="9.411838">
        <ele>86.103056</ele>
        <time>2021-07-22T10:52:52.000Z</time>
      </trkpt>
      <trkpt lat="54.650579" lon="9.411764">
        <ele>86.073089</ele>
        <time>2021-07-22T10:52:56.000Z</time>
      </trkpt>
      <trkpt lat="54.650725" lon="9.411613">
        <ele>86.004673</ele>
        <time>2021-07-22T10:53:04.000Z</time>
      </trkpt>
      <trkpt lat="54.650815" lon="9.411553">
        <ele>85.965885</ele>
        <time>2021-07-22T10:53:09.000Z</time>
      </trkpt>
      <trkpt lat="54.650943" lon="9.411491">
        <ele>85.912432</ele>
        <time>2021-07-22T10:53:16.000Z</time>
      </trkpt>
      <trkpt lat="54.651038" lon="9.411442">
        <ele>85.872567</ele>
        <time>2021-07-22T10:53:23.000Z</time>
      </trkpt>
      <trkpt lat="54.651057" lon="9.411431">
        <ele>85.864510</ele>
        <time>2021-07-22T10:53:24.000Z</time>
      </trkpt>
      <trkpt lat="54.651148" lon="9.411359">
        <ele>85.894249</ele>
        <time>2021-07-22T10:53:31.000Z</time>
      </trkpt>
      <trkpt lat="54.651167" lon="9.411327">
        <ele>85.910332</ele>
        <time>2021-07-22T10:53:33.000Z</time>
      </trkpt>
      <trkpt lat="54.651214" lon="9.411278">
        <ele>85.943609</ele>
        <time>2021-07-22T10:53:37.000Z</time>
      </trkpt>
      <trkpt lat="54.651247" lon="9.411252">
        <ele>85.965596</ele>
        <time>2021-07-22T10:53:40.000Z</time>
      </trkpt>
      <trkpt lat="54.651318" lon="9.411177">
        <ele>86.016043</ele>
        <time>2021-07-22T10:53:46.000Z</time>
      </trkpt>
      <trkpt lat="54.651330" lon="9.411159">
        <ele>86.025676</ele>
        <time>2021-07-22T10:53:47.000Z</time>
      </trkpt>
      <trkpt lat="54.651368" lon="9.411126">
        <ele>86.051459</ele>
        <time>2021-07-22T10:53:50.000Z</time>
      </trkpt>
      <trkpt lat="54.651381" lon="9.411121">
        <ele>86.059533</ele>
        <time>2021-07-22T10:53:51.000Z</time>
      </trkpt>
      <trkpt lat="54.651422" lon="9.411096">
        <ele>86.085891</ele>
        <time>2021-07-22T10:53:53.000Z</time>
      </trkpt>
      <trkpt lat="54.651531" lon="9.411028">
        <ele>86.156147</ele>
        <time>2021-07-22T10:53:59.000Z</time>
      </trkpt>
      <trkpt lat="54.651568" lon="9.410999">
        <ele>86.180777</ele>
        <time>2021-07-22T10:54:02.000Z</time>
      </trkpt>
      <trkpt lat="54.651615" lon="9.410983">
        <ele>86.209819</ele>
        <time>2021-07-22T10:54:05.000Z</time>
      </trkpt>
      <trkpt lat="54.651653" lon="9.410961">
        <ele>86.234115</ele>
        <time>2021-07-22T10:54:09.000Z</time>
      </trkpt>
      <trkpt lat="54.651680" lon="9.410953">
        <ele>86.250723</ele>
        <time>2021-07-22T10:54:12.000Z</time>
      </trkpt>
      <trkpt lat="54.651712" lon="9.410942">
        <ele>86.270504</ele>
        <time>2021-07-22T10:54:15.000Z</time>
      </trkpt>
      <trkpt lat="54.651766" lon="9.410925">
        <ele>86.303781</ele>
        <time>2021-07-22T10:54:19.000Z</time>
      </trkpt>
      <trkpt lat="54.651875" lon="9.410856">
        <ele>86.374156</ele>
        <time>2021-07-22T10:54:27.000Z</time>
      </trkpt>
      <trkpt lat="54.651898" lon="9.410839">
        <ele>86.389322</ele>
        <time>2021-07-22T10:54:29.000Z</time>
      </trkpt>
      <trkpt lat="54.651943" lon="9.410822">
        <ele>86.417248</ele>
        <time>2021-07-22T10:54:32.000Z</time>
      </trkpt>
      <trkpt lat="54.652010" lon="9.410800">
        <ele>86.458594</ele>
        <time>2021-07-22T10:54:35.000Z</time>
      </trkpt>
      <trkpt lat="54.652023" lon="9.410792">
        <ele>86.466960</ele>
        <time>2021-07-22T10:54:36.000Z</time>
      </trkpt>
      <trkpt lat="54.652103" lon="9.410725">
        <ele>86.520855</ele>
        <time>2021-07-22T10:54:40.000Z</time>
      </trkpt>
      <trkpt lat="54.652217" lon="9.410635">
        <ele>86.596837</ele>
        <time>2021-07-22T10:54:45.000Z</time>
      </trkpt>
      <trkpt lat="54.652276" lon="9.410614">
        <ele>86.633357</ele>
        <time>2021-07-22T10:54:49.000Z</time>
      </trkpt>
      <trkpt lat="54.652310" lon="9.410594">
        <ele>86.655131</ele>
        <time>2021-07-22T10:54:52.000Z</time>
      </trkpt>
      <trkpt lat="54.652400" lon="9.410535">
        <ele>86.713488</ele>
        <time>2021-07-22T10:55:00.000Z</time>
      </trkpt>
      <trkpt lat="54.652508" lon="9.410457">
        <ele>86.784450</ele>
        <time>2021-07-22T10:55:07.000Z</time>
      </trkpt>
      <trkpt lat="54.652622" lon="9.410361">
        <ele>86.861331</ele>
        <time>2021-07-22T10:55:15.000Z</time>
      </trkpt>
      <trkpt lat="54.652763" lon="9.410334">
        <ele>86.940191</ele>
        <time>2021-07-22T10:55:23.000Z</time>
      </trkpt>
      <trkpt lat="54.652896" lon="9.410232">
        <ele>86.894445</ele>
        <time>2021-07-22T10:55:30.000Z</time>
      </trkpt>
      <trkpt lat="54.652912" lon="9.410219">
        <ele>86.888886</ele>
        <time>2021-07-22T10:55:32.000Z</time>
      </trkpt>
      <trkpt lat="54.652970" lon="9.410184">
        <ele>86.869572</ele>
        <time>2021-07-22T10:55:36.000Z</time>
      </trkpt>
      <trkpt lat="54.652989" lon="9.410183">
        <ele>86.863595</ele>
        <time>2021-07-22T10:55:37.000Z</time>
      </trkpt>
      <trkpt lat="54.653062" lon="9.410135">
        <ele>86.839040</ele>
        <time>2021-07-22T10:55:42.000Z</time>
      </trkpt>
      <trkpt lat="54.653079" lon="9.410120">
        <ele>86.833039</ele>
        <time>2021-07-22T10:55:44.000Z</time>
      </trkpt>
      <trkpt lat="54.653120" lon="9.410076">
        <ele>86.817866</ele>
        <time>2021-07-22T10:55:47.000Z</time>
      </trkpt>
      <trkpt lat="54.653168" lon="9.410051">
        <ele>86.802105</ele>
        <time>2021-07-22T10:55:51.000Z</time>
      </trkpt>
      <trkpt lat="54.653180" lon="9.410047">
        <ele>86.798262</ele>
        <time>2021-07-22T10:55:52.000Z</time>
      </trkpt>
      <trkpt lat="54.653222" lon="9.410009">
        <ele>86.783358</ele>
        <time>2021-07-22T10:55:56.000Z</time>
      </trkpt>
      <trkpt lat="54.653254" lon="9.409978">
        <ele>86.771825</ele>
        <time>2021-07-22T10:55:59.000Z</time>
      </trkpt>
      <trkpt lat="54.653358" lon="9.409893">
        <ele>86.735656</ele>
        <time>2021-07-22T10:56:05.000Z</time>
      </trkpt>
      <trkpt lat="54.653361" lon="9.409885">
        <ele>86.733922</ele>
        <time>2021-07-22T10:56:06.000Z</time>
      </trkpt>
      <trkpt lat="54.653417" lon="9.409861">
        <ele>86.715783</ele>
        <time>2021-07-22T10:56:10.000Z</time>
      </trkpt>
      <trkpt lat="54.653427" lon="9.409852">
        <ele>86.712238</ele>
        <time>2021-07-22T10:56:11.000Z</time>
      </trkpt>
      <trkpt lat="54.653468" lon="9.409826">
        <ele>86.698508</ele>
        <time>2021-07-22T10:56:14.000Z</time>
      </trkpt>
      <trkpt lat="54.653578" lon="9.409837">
        <ele>86.663866</ele>
        <time>2021-07-22T10:56:18.000Z</time>
      </trkpt>
      <trkpt lat="54.653604" lon="9.409835">
        <ele>86.655683</ele>
        <time>2021-07-22T10:56:19.000Z</time>
      </trkpt>
      <trkpt lat="54.653672" lon="9.409784">
        <ele>86.632379</ele>
        <time>2021-07-22T10:56:25.000Z</time>
      </trkpt>
      <trkpt lat="54.653684" lon="9.409777">
        <ele>86.628397</ele>
        <time>2021-07-22T10:56:27.000Z</time>
      </trkpt>
      <trkpt lat="54.653691" lon="9.409770">
        <ele>86.625854</ele>
        <time>2021-07-22T10:56:28.000Z</time>
      </trkpt>
      <trkpt lat="54.653726" lon="9.409738">
        <ele>86.613406</ele>
        <time>2021-07-22T10:56:33.000Z</time>
      </trkpt>
      <trkpt lat="54.653802" lon="9.409721">
        <ele>86.589312</ele>
        <time>2021-07-22T10:56:41.000Z</time>
      </trkpt>
      <trkpt lat="54.653808" lon="9.409714">
        <ele>86.587036</ele>
        <time>2021-07-22T10:56:42.000Z</time>
      </trkpt>
      <trkpt lat="54.653875" lon="9.409636">
        <ele>86.561639</ele>
        <time>2021-07-22T10:56:45.000Z</time>
      </trkpt>
      <trkpt lat="54.653897" lon="9.409631">
        <ele>86.554663</ele>
        <time>2021-07-22T10:56:49.000Z</time>
      </trkpt>
      <trkpt lat="54.653939" lon="9.409593">
        <ele>86.539759</ele>
        <time>2021-07-22T10:56:55.000Z</time>
      </trkpt>
      <trkpt lat="54.654017" lon="9.409591">
        <ele>86.515233</ele>
        <time>2021-07-22T10:57:02.000Z</time>
      </trkpt>
      <trkpt lat="54.654073" lon="9.409692">
        <ele>86.489788</ele>
        <time>2021-07-22T10:57:08.000Z</time>
      </trkpt>
      <trkpt lat="54.654116" lon="9.409784">
        <ele>86.468276</ele>
        <time>2021-07-22T10:57:13.000Z</time>
      </trkpt>
      <trkpt lat="54.654129" lon="9.409818">
        <ele>86.460863</ele>
        <time>2021-07-22T10:57:15.000Z</time>
      </trkpt>
      <trkpt lat="54.654118" lon="9.410021">
        <ele>86.423779</ele>
        <time>2021-07-22T10:57:22.000Z</time>
      </trkpt>
      <trkpt lat="54.654118" lon="9.410049">
        <ele>86.418686</ele>
        <time>2021-07-22T10:57:23.000Z</time>
      </trkpt>
      <trkpt lat="54.654116" lon="9.410096">
        <ele>86.410115</ele>
        <time>2021-07-22T10:57:24.000Z</time>
      </trkpt>
      <trkpt lat="54.654112" lon="9.410183">
        <ele>86.394241</ele>
        <time>2021-07-22T10:57:26.000Z</time>
      </trkpt>
      <trkpt lat="54.654109" lon="9.410215">
        <ele>86.388345</ele>
        <time>2021-07-22T10:57:27.000Z</time>
      </trkpt>
      <trkpt lat="54.654107" lon="9.410334">
        <ele>86.389707</ele>
        <time>2021-07-22T10:57:31.000Z</time>
      </trkpt>
      <trkpt lat="54.654137" lon="9.410483">
        <ele>86.424231</ele>
        <time>2021-07-22T10:57:38.000Z</time>
      </trkpt>
      <trkpt lat="54.654145" lon="9.410603">
        <ele>86.450664</ele>
        <time>2021-07-22T10:57:42.000Z</time>
      </trkpt>
      <trkpt lat="54.654149" lon="9.410656">
        <ele>86.462360</ele>
        <time>2021-07-22T10:57:44.000Z</time>
      </trkpt>
      <trkpt lat="54.654155" lon="9.410755">
        <ele>86.484143</ele>
        <time>2021-07-22T10:57:48.000Z</time>
      </trkpt>
      <trkpt lat="54.654161" lon="9.410822">
        <ele>86.498979</ele>
        <time>2021-07-22T10:57:51.000Z</time>
      </trkpt>
      <trkpt lat="54.654164" lon="9.410867">
        <ele>86.508892</ele>
        <time>2021-07-22T10:57:53.000Z</time>
      </trkpt>
      <trkpt lat="54.654165" lon="9.410890">
        <ele>86.513939</ele>
        <time>2021-07-22T10:57:54.000Z</time>
      </trkpt>
      <trkpt lat="54.654174" lon="9.410998">
        <ele>86.537817</ele>
        <time>2021-07-22T10:57:58.000Z</time>
      </trkpt>
      <trkpt lat="54.654185" lon="9.411091">
        <ele>86.558589</ele>
        <time>2021-07-22T10:58:01.000Z</time>
      </trkpt>
      <trkpt lat="54.654188" lon="9.411246">
        <ele>86.592527</ele>
        <time>2021-07-22T10:58:05.000Z</time>
      </trkpt>
      <trkpt lat="54.654182" lon="9.411481">
        <ele>86.644002</ele>
        <time>2021-07-22T10:58:13.000Z</time>
      </trkpt>
      <trkpt lat="54.654179" lon="9.411689">
        <ele>86.689532</ele>
        <time>2021-07-22T10:58:21.000Z</time>
      </trkpt>
      <trkpt lat="54.654229" lon="9.411780">
        <ele>86.716996</ele>
        <time>2021-07-22T10:58:28.000Z</time>
      </trkpt>
      <trkpt lat="54.654333" lon="9.411843">
        <ele>86.758681</ele>
        <time>2021-07-22T10:58:37.000Z</time>
      </trkpt>
      <trkpt lat="54.654372" lon="9.411861">
        <ele>86.773950</ele>
        <time>2021-07-22T10:58:41.000Z</time>
      </trkpt>
      <trkpt lat="54.654399" lon="9.411864">
        <ele>86.784185</ele>
        <time>2021-07-22T10:58:43.000Z</time>
      </trkpt>
      <trkpt lat="54.654414" lon="9.411874">
        <ele>86.790266</ele>
        <time>2021-07-22T10:58:44.000Z</time>
      </trkpt>
      <trkpt lat="54.654507" lon="9.411880">
        <ele>86.825469</ele>
        <time>2021-07-22T10:58:51.000Z</time>
      </trkpt>
      <trkpt lat="54.654534" lon="9.411886">
        <ele>86.835766</ele>
        <time>2021-07-22T10:58:53.000Z</time>
      </trkpt>
      <trkpt lat="54.654548" lon="9.411886">
        <ele>86.841062</ele>
        <time>2021-07-22T10:58:54.000Z</time>
      </trkpt>
      <trkpt lat="54.654611" lon="9.411891">
        <ele>86.864918</ele>
        <time>2021-07-22T10:58:58.000Z</time>
      </trkpt>
      <trkpt lat="54.654653" lon="9.411884">
        <ele>86.880879</ele>
        <time>2021-07-22T10:59:01.000Z</time>
      </trkpt>
      <trkpt lat="54.654707" lon="9.411896">
        <ele>86.901473</ele>
        <time>2021-07-22T10:59:05.000Z</time>
      </trkpt>
      <trkpt lat="54.654720" lon="9.411892">
        <ele>86.906468</ele>
        <time>2021-07-22T10:59:06.000Z</time>
      </trkpt>
      <trkpt lat="54.654763" lon="9.411894">
        <ele>86.922739</ele>
        <time>2021-07-22T10:59:09.000Z</time>
      </trkpt>
      <trkpt lat="54.654805" lon="9.411894">
        <ele>86.938626</ele>
        <time>2021-07-22T10:59:12.000Z</time>
      </trkpt>
      <trkpt lat="54.654865" lon="9.411905">
        <ele>86.961449</ele>
        <time>2021-07-22T10:59:17.000Z</time>
      </trkpt>
      <trkpt lat="54.654881" lon="9.411923">
        <ele>86.968670</ele>
        <time>2021-07-22T10:59:18.000Z</time>
      </trkpt>
      <trkpt lat="54.654892" lon="9.411933">
        <ele>86.973372</ele>
        <time>2021-07-22T10:59:19.000Z</time>
      </trkpt>
      <trkpt lat="54.654990" lon="9.411995">
        <ele>87.012846</ele>
        <time>2021-07-22T10:59:26.000Z</time>
      </trkpt>
      <trkpt lat="54.655033" lon="9.412009">
        <ele>87.029398</ele>
        <time>2021-07-22T10:59:29.000Z</time>
      </trkpt>
      <trkpt lat="54.655088" lon="9.412037">
        <ele>87.051086</ele>
        <time>2021-07-22T10:59:33.000Z</time>
      </trkpt>
      <trkpt lat="54.655154" lon="9.412061">
        <ele>87.098149</ele>
        <time>2021-07-22T10:59:37.000Z</time>
      </trkpt>
      <trkpt lat="54.655223" lon="9.412100">
        <ele>87.156598</ele>
        <time>2021-07-22T10:59:41.000Z</time>
      </trkpt>
      <trkpt lat="54.655260" lon="9.412122">
        <ele>87.188102</ele>
        <time>2021-07-22T10:59:43.000Z</time>
      </trkpt>
      <trkpt lat="54.655334" lon="9.412141">
        <ele>87.248337</ele>
        <time>2021-07-22T10:59:47.000Z</time>
      </trkpt>
      <trkpt lat="54.655379" lon="9.412171">
        <ele>87.287170</ele>
        <time>2021-07-22T10:59:50.000Z</time>
      </trkpt>
      <trkpt lat="54.655430" lon="9.412190">
        <ele>87.329175</ele>
        <time>2021-07-22T10:59:53.000Z</time>
      </trkpt>
      <trkpt lat="54.655517" lon="9.412209">
        <ele>87.399780</ele>
        <time>2021-07-22T11:00:00.000Z</time>
      </trkpt>
      <trkpt lat="54.655620" lon="9.412250">
        <ele>87.484881</ele>
        <time>2021-07-22T11:00:07.000Z</time>
      </trkpt>
      <trkpt lat="54.655710" lon="9.412248">
        <ele>87.557351</ele>
        <time>2021-07-22T11:00:11.000Z</time>
      </trkpt>
      <trkpt lat="54.655765" lon="9.412265">
        <ele>87.602336</ele>
        <time>2021-07-22T11:00:14.000Z</time>
      </trkpt>
      <trkpt lat="54.655843" lon="9.412358">
        <ele>87.678628</ele>
        <time>2021-07-22T11:00:21.000Z</time>
      </trkpt>
      <trkpt lat="54.655888" lon="9.412430">
        <ele>87.727997</ele>
        <time>2021-07-22T11:00:27.000Z</time>
      </trkpt>
      <trkpt lat="54.655941" lon="9.412470">
        <ele>87.774560</ele>
        <time>2021-07-22T11:00:30.000Z</time>
      </trkpt>
      <trkpt lat="54.656014" lon="9.412514">
        <ele>87.836806</ele>
        <time>2021-07-22T11:00:34.000Z</time>
      </trkpt>
      <trkpt lat="54.656042" lon="9.412530">
        <ele>87.860550</ele>
        <time>2021-07-22T11:00:36.000Z</time>
      </trkpt>
      <trkpt lat="54.656089" lon="9.412573">
        <ele>87.903366</ele>
        <time>2021-07-22T11:00:39.000Z</time>
      </trkpt>
      <trkpt lat="54.656138" lon="9.412621">
        <ele>87.948712</ele>
        <time>2021-07-22T11:00:44.000Z</time>
      </trkpt>
      <trkpt lat="54.656160" lon="9.412654">
        <ele>87.972164</ele>
        <time>2021-07-22T11:00:46.000Z</time>
      </trkpt>
      <trkpt lat="54.656269" lon="9.412774">
        <ele>88.076212</ele>
        <time>2021-07-22T11:00:54.000Z</time>
      </trkpt>
      <trkpt lat="54.656430" lon="9.412868">
        <ele>88.213035</ele>
        <time>2021-07-22T11:01:02.000Z</time>
      </trkpt>
      <trkpt lat="54.656565" lon="9.412990">
        <ele>88.335687</ele>
        <time>2021-07-22T11:01:12.000Z</time>
      </trkpt>
      <trkpt lat="54.656708" lon="9.413114">
        <ele>88.464497</ele>
        <time>2021-07-22T11:01:21.000Z</time>
      </trkpt>
      <trkpt lat="54.656785" lon="9.413194">
        <ele>88.543343</ele>
        <time>2021-07-22T11:01:28.000Z</time>
      </trkpt>
      <trkpt lat="54.656856" lon="9.413266">
        <ele>88.623477</ele>
        <time>2021-07-22T11:01:35.000Z</time>
      </trkpt>
      <trkpt lat="54.656941" lon="9.413360">
        <ele>88.721708</ele>
        <time>2021-07-22T11:01:42.000Z</time>
      </trkpt>
      <trkpt lat="54.657035" lon="9.413442">
        <ele>88.824209</ele>
        <time>2021-07-22T11:01:50.000Z</time>
      </trkpt>
      <trkpt lat="54.657140" lon="9.413493">
        <ele>88.930385</ele>
        <time>2021-07-22T11:01:58.000Z</time>
      </trkpt>
      <trkpt lat="54.657293" lon="9.413535">
        <ele>89.081197</ele>
        <time>2021-07-22T11:02:06.000Z</time>
      </trkpt>
      <trkpt lat="54.657409" lon="9.413535">
        <ele>89.194124</ele>
        <time>2021-07-22T11:02:14.000Z</time>
      </trkpt>
      <trkpt lat="54.657539" lon="9.413552">
        <ele>89.321041</ele>
        <time>2021-07-22T11:02:22.000Z</time>
      </trkpt>
      <trkpt lat="54.657559" lon="9.413556">
        <ele>89.340641</ele>
        <time>2021-07-22T11:02:23.000Z</time>
      </trkpt>
      <trkpt lat="54.657672" lon="9.413575">
        <ele>89.451166</ele>
        <time>2021-07-22T11:02:30.000Z</time>
      </trkpt>
      <trkpt lat="54.657803" lon="9.413629">
        <ele>89.582271</ele>
        <time>2021-07-22T11:02:38.000Z</time>
      </trkpt>
      <trkpt lat="54.657942" lon="9.413683">
        <ele>89.720963</ele>
        <time>2021-07-22T11:02:45.000Z</time>
      </trkpt>
      <trkpt lat="54.658052" lon="9.413741">
        <ele>89.832919</ele>
        <time>2021-07-22T11:02:53.000Z</time>
      </trkpt>
      <trkpt lat="54.658175" lon="9.413811">
        <ele>89.958982</ele>
        <time>2021-07-22T11:03:03.000Z</time>
      </trkpt>
      <trkpt lat="54.658320" lon="9.413835">
        <ele>90.100785</ele>
        <time>2021-07-22T11:03:11.000Z</time>
      </trkpt>
      <trkpt lat="54.658417" lon="9.413864">
        <ele>90.196617</ele>
        <time>2021-07-22T11:03:18.000Z</time>
      </trkpt>
      <trkpt lat="54.658523" lon="9.413923">
        <ele>90.318222</ele>
        <time>2021-07-22T11:03:25.000Z</time>
      </trkpt>
      <trkpt lat="54.658606" lon="9.413977">
        <ele>90.428116</ele>
        <time>2021-07-22T11:03:32.000Z</time>
      </trkpt>
      <trkpt lat="54.658631" lon="9.414007">
        <ele>90.465828</ele>
        <time>2021-07-22T11:03:34.000Z</time>
      </trkpt>
      <trkpt lat="54.658688" lon="9.414056">
        <ele>90.544712</ele>
        <time>2021-07-22T11:03:39.000Z</time>
      </trkpt>
      <trkpt lat="54.658731" lon="9.414071">
        <ele>90.599070</ele>
        <time>2021-07-22T11:03:43.000Z</time>
      </trkpt>
      <trkpt lat="54.658760" lon="9.414073">
        <ele>90.635035</ele>
        <time>2021-07-22T11:03:46.000Z</time>
      </trkpt>
      <trkpt lat="54.658815" lon="9.414084">
        <ele>90.703644</ele>
        <time>2021-07-22T11:03:50.000Z</time>
      </trkpt>
      <trkpt lat="54.658830" lon="9.414094">
        <ele>90.723566</ele>
        <time>2021-07-22T11:03:51.000Z</time>
      </trkpt>
      <trkpt lat="54.658860" lon="9.414103">
        <ele>90.761297</ele>
        <time>2021-07-22T11:03:53.000Z</time>
      </trkpt>
      <trkpt lat="54.658965" lon="9.414141">
        <ele>90.894231</ele>
        <time>2021-07-22T11:04:01.000Z</time>
      </trkpt>
      <trkpt lat="54.659091" lon="9.414157">
        <ele>91.050789</ele>
        <time>2021-07-22T11:04:07.000Z</time>
      </trkpt>
      <trkpt lat="54.659171" lon="9.414185">
        <ele>91.151934</ele>
        <time>2021-07-22T11:04:12.000Z</time>
      </trkpt>
      <trkpt lat="54.659202" lon="9.414203">
        <ele>91.192457</ele>
        <time>2021-07-22T11:04:15.000Z</time>
      </trkpt>
      <trkpt lat="54.659212" lon="9.414208">
        <ele>91.205357</ele>
        <time>2021-07-22T11:04:16.000Z</time>
      </trkpt>
      <trkpt lat="54.659230" lon="9.414221">
        <ele>91.229531</ele>
        <time>2021-07-22T11:04:18.000Z</time>
      </trkpt>
      <trkpt lat="54.659253" lon="9.414235">
        <ele>91.259747</ele>
        <time>2021-07-22T11:04:20.000Z</time>
      </trkpt>
      <trkpt lat="54.659266" lon="9.414239">
        <ele>91.276109</ele>
        <time>2021-07-22T11:04:21.000Z</time>
      </trkpt>
      <trkpt lat="54.659360" lon="9.414286">
        <ele>91.397366</ele>
        <time>2021-07-22T11:04:27.000Z</time>
      </trkpt>
      <trkpt lat="54.659446" lon="9.414299">
        <ele>91.504342</ele>
        <time>2021-07-22T11:04:32.000Z</time>
      </trkpt>
      <trkpt lat="54.659473" lon="9.414310">
        <ele>91.538716</ele>
        <time>2021-07-22T11:04:34.000Z</time>
      </trkpt>
      <trkpt lat="54.659485" lon="9.414314">
        <ele>91.553860</ele>
        <time>2021-07-22T11:04:35.000Z</time>
      </trkpt>
      <trkpt lat="54.659565" lon="9.414354">
        <ele>91.657057</ele>
        <time>2021-07-22T11:04:40.000Z</time>
      </trkpt>
      <trkpt lat="54.659583" lon="9.414365">
        <ele>91.680715</ele>
        <time>2021-07-22T11:04:41.000Z</time>
      </trkpt>
      <trkpt lat="54.659620" lon="9.414390">
        <ele>91.729942</ele>
        <time>2021-07-22T11:04:43.000Z</time>
      </trkpt>
      <trkpt lat="54.659684" lon="9.414438">
        <ele>91.816391</ele>
        <time>2021-07-22T11:04:47.000Z</time>
      </trkpt>
      <trkpt lat="54.659702" lon="9.414452">
        <ele>91.840849</ele>
        <time>2021-07-22T11:04:48.000Z</time>
      </trkpt>
      <trkpt lat="54.659805" lon="9.414587">
        <ele>92.001019</ele>
        <time>2021-07-22T11:04:55.000Z</time>
      </trkpt>
      <trkpt lat="54.659863" lon="9.414639">
        <ele>92.081981</ele>
        <time>2021-07-22T11:04:59.000Z</time>
      </trkpt>
      <trkpt lat="54.659868" lon="9.414664">
        <ele>92.100941</ele>
        <time>2021-07-22T11:05:01.000Z</time>
      </trkpt>
      <trkpt lat="54.659867" lon="9.414679">
        <ele>92.111764</ele>
        <time>2021-07-22T11:05:02.000Z</time>
      </trkpt>
      <trkpt lat="54.659870" lon="9.414707">
        <ele>92.132175</ele>
        <time>2021-07-22T11:05:04.000Z</time>
      </trkpt>
      <trkpt lat="54.659871" lon="9.414781">
        <ele>92.185231</ele>
        <time>2021-07-22T11:05:09.000Z</time>
      </trkpt>
      <trkpt lat="54.659873" lon="9.414794">
        <ele>92.194873</ele>
        <time>2021-07-22T11:05:10.000Z</time>
      </trkpt>
      <trkpt lat="54.659866" lon="9.414835">
        <ele>92.225515</ele>
        <time>2021-07-22T11:05:13.000Z</time>
      </trkpt>
      <trkpt lat="54.659866" lon="9.414850">
        <ele>92.236266</ele>
        <time>2021-07-22T11:05:14.000Z</time>
      </trkpt>
      <trkpt lat="54.659856" lon="9.414895">
        <ele>92.270820</ele>
        <time>2021-07-22T11:05:17.000Z</time>
      </trkpt>
      <trkpt lat="54.659814" lon="9.415203">
        <ele>92.492459</ele>
        <time>2021-07-22T11:05:24.000Z</time>
      </trkpt>
      <trkpt lat="54.659798" lon="9.415389">
        <ele>92.569691</ele>
        <time>2021-07-22T11:05:31.000Z</time>
      </trkpt>
      <trkpt lat="54.659786" lon="9.415512">
        <ele>92.620921</ele>
        <time>2021-07-22T11:05:36.000Z</time>
      </trkpt>
      <trkpt lat="54.659787" lon="9.415571">
        <ele>92.645163</ele>
        <time>2021-07-22T11:05:39.000Z</time>
      </trkpt>
      <trkpt lat="54.659762" lon="9.415753">
        <ele>92.721990</ele>
        <time>2021-07-22T11:05:47.000Z</time>
      </trkpt>
      <trkpt lat="54.659748" lon="9.415964">
        <ele>92.809217</ele>
        <time>2021-07-22T11:05:54.000Z</time>
      </trkpt>
      <trkpt lat="54.659735" lon="9.416026">
        <ele>92.836302</ele>
        <time>2021-07-22T11:05:56.000Z</time>
      </trkpt>
      <trkpt lat="54.659716" lon="9.416137">
        <ele>92.883845</ele>
        <time>2021-07-22T11:06:00.000Z</time>
      </trkpt>
      <trkpt lat="54.659718" lon="9.416341">
        <ele>92.967641</ele>
        <time>2021-07-22T11:06:08.000Z</time>
      </trkpt>
      <trkpt lat="54.659718" lon="9.416578">
        <ele>93.064978</ele>
        <time>2021-07-22T11:06:16.000Z</time>
      </trkpt>
      <trkpt lat="54.659727" lon="9.416722">
        <ele>93.124464</ele>
        <time>2021-07-22T11:06:21.000Z</time>
      </trkpt>
      <trkpt lat="54.659749" lon="9.416910">
        <ele>93.203241</ele>
        <time>2021-07-22T11:06:28.000Z</time>
      </trkpt>
      <trkpt lat="54.659769" lon="9.417086">
        <ele>93.276906</ele>
        <time>2021-07-22T11:06:35.000Z</time>
      </trkpt>
      <trkpt lat="54.659774" lon="9.417111">
        <ele>93.287771</ele>
        <time>2021-07-22T11:06:36.000Z</time>
      </trkpt>
      <trkpt lat="54.659792" lon="9.417271">
        <ele>93.354715</ele>
        <time>2021-07-22T11:06:42.000Z</time>
      </trkpt>
      <trkpt lat="54.659844" lon="9.417523">
        <ele>93.464601</ele>
        <time>2021-07-22T11:06:51.000Z</time>
      </trkpt>
      <trkpt lat="54.659868" lon="9.417607">
        <ele>93.503079</ele>
        <time>2021-07-22T11:06:55.000Z</time>
      </trkpt>
      <trkpt lat="54.659893" lon="9.417667">
        <ele>93.533449</ele>
        <time>2021-07-22T11:06:58.000Z</time>
      </trkpt>
      <trkpt lat="54.659902" lon="9.417689">
        <ele>93.544516</ele>
        <time>2021-07-22T11:06:59.000Z</time>
      </trkpt>
      <trkpt lat="54.659914" lon="9.417730">
        <ele>93.563388</ele>
        <time>2021-07-22T11:07:01.000Z</time>
      </trkpt>
      <trkpt lat="54.659956" lon="9.417875">
        <ele>93.629989</ele>
        <time>2021-07-22T11:07:07.000Z</time>
      </trkpt>
      <trkpt lat="54.660001" lon="9.418029">
        <ele>93.700850</ele>
        <time>2021-07-22T11:07:13.000Z</time>
      </trkpt>
      <trkpt lat="54.660036" lon="9.418152">
        <ele>93.757148</ele>
        <time>2021-07-22T11:07:18.000Z</time>
      </trkpt>
      <trkpt lat="54.660058" lon="9.418256">
        <ele>93.923908</ele>
        <time>2021-07-22T11:07:22.000Z</time>
      </trkpt>
      <trkpt lat="54.660077" lon="9.418311">
        <ele>94.029949</ele>
        <time>2021-07-22T11:07:24.000Z</time>
      </trkpt>
      <trkpt lat="54.660124" lon="9.418464">
        <ele>94.316704</ele>
        <time>2021-07-22T11:07:30.000Z</time>
      </trkpt>
      <trkpt lat="54.660168" lon="9.418682">
        <ele>94.698890</ele>
        <time>2021-07-22T11:07:39.000Z</time>
      </trkpt>
      <trkpt lat="54.660233" lon="9.418885">
        <ele>95.082958</ele>
        <time>2021-07-22T11:07:48.000Z</time>
      </trkpt>
      <trkpt lat="54.660285" lon="9.419070">
        <ele>95.423423</ele>
        <time>2021-07-22T11:07:56.000Z</time>
      </trkpt>
      <trkpt lat="54.660287" lon="9.419095">
        <ele>95.465198</ele>
        <time>2021-07-22T11:07:57.000Z</time>
      </trkpt>
      <trkpt lat="54.660296" lon="9.419180">
        <ele>95.608233</ele>
        <time>2021-07-22T11:08:01.000Z</time>
      </trkpt>
      <trkpt lat="54.660290" lon="9.419284">
        <ele>95.781235</ele>
        <time>2021-07-22T11:08:05.000Z</time>
      </trkpt>
      <trkpt lat="54.660303" lon="9.419417">
        <ele>96.004506</ele>
        <time>2021-07-22T11:08:10.000Z</time>
      </trkpt>
      <trkpt lat="54.660326" lon="9.419458">
        <ele>96.099046</ele>
        <time>2021-07-22T11:08:12.000Z</time>
      </trkpt>
      <trkpt lat="54.660399" lon="9.419593">
        <ele>96.404945</ele>
        <time>2021-07-22T11:08:19.000Z</time>
      </trkpt>
      <trkpt lat="54.660414" lon="9.419653">
        <ele>96.513140</ele>
        <time>2021-07-22T11:08:22.000Z</time>
      </trkpt>
      <trkpt lat="54.660444" lon="9.419788">
        <ele>96.752524</ele>
        <time>2021-07-22T11:08:28.000Z</time>
      </trkpt>
      <trkpt lat="54.660449" lon="9.419810">
        <ele>96.791650</ele>
        <time>2021-07-22T11:08:29.000Z</time>
      </trkpt>
      <trkpt lat="54.660484" lon="9.419932">
        <ele>97.017065</ele>
        <time>2021-07-22T11:08:34.000Z</time>
      </trkpt>
      <trkpt lat="54.660493" lon="9.420116">
        <ele>97.322718</ele>
        <time>2021-07-22T11:08:41.000Z</time>
      </trkpt>
      <trkpt lat="54.660493" lon="9.420143">
        <ele>97.367410</ele>
        <time>2021-07-22T11:08:42.000Z</time>
      </trkpt>
      <trkpt lat="54.660559" lon="9.420348">
        <ele>97.755759</ele>
        <time>2021-07-22T11:08:49.000Z</time>
      </trkpt>
      <trkpt lat="54.660643" lon="9.420463">
        <ele>98.062382</ele>
        <time>2021-07-22T11:08:55.000Z</time>
      </trkpt>
      <trkpt lat="54.660748" lon="9.420464">
        <ele>98.362863</ele>
        <time>2021-07-22T11:09:02.000Z</time>
      </trkpt>
      <trkpt lat="54.660761" lon="9.420467">
        <ele>98.400395</ele>
        <time>2021-07-22T11:09:03.000Z</time>
      </trkpt>
      <trkpt lat="54.660765" lon="9.420473">
        <ele>98.415549</ele>
        <time>2021-07-22T11:09:06.000Z</time>
      </trkpt>
      <trkpt lat="54.660804" lon="9.420461">
        <ele>98.528909</ele>
        <time>2021-07-22T11:09:09.000Z</time>
      </trkpt>
      <trkpt lat="54.660833" lon="9.420462">
        <ele>98.611914</ele>
        <time>2021-07-22T11:09:11.000Z</time>
      </trkpt>
      <trkpt lat="54.660863" lon="9.420461">
        <ele>98.697780</ele>
        <time>2021-07-22T11:09:13.000Z</time>
      </trkpt>
      <trkpt lat="54.660923" lon="9.420448">
        <ele>98.870824</ele>
        <time>2021-07-22T11:09:17.000Z</time>
      </trkpt>
      <trkpt lat="54.660937" lon="9.420442">
        <ele>98.912286</ele>
        <time>2021-07-22T11:09:18.000Z</time>
      </trkpt>
      <trkpt lat="54.660963" lon="9.420427">
        <ele>98.996907</ele>
        <time>2021-07-22T11:09:20.000Z</time>
      </trkpt>
      <trkpt lat="54.660978" lon="9.420424">
        <ele>99.043526</ele>
        <time>2021-07-22T11:09:21.000Z</time>
      </trkpt>
      <trkpt lat="54.661003" lon="9.420411">
        <ele>99.124124</ele>
        <time>2021-07-22T11:09:23.000Z</time>
      </trkpt>
      <trkpt lat="54.661024" lon="9.420404">
        <ele>99.190152</ele>
        <time>2021-07-22T11:09:25.000Z</time>
      </trkpt>
      <trkpt lat="54.661127" lon="9.420390">
        <ele>99.509127</ele>
        <time>2021-07-22T11:09:33.000Z</time>
      </trkpt>
      <trkpt lat="54.661150" lon="9.420407">
        <ele>99.586352</ele>
        <time>2021-07-22T11:09:35.000Z</time>
      </trkpt>
      <trkpt lat="54.661189" lon="9.420459">
        <ele>99.738405</ele>
        <time>2021-07-22T11:09:39.000Z</time>
      </trkpt>
      <trkpt lat="54.661202" lon="9.420461">
        <ele>99.778699</ele>
        <time>2021-07-22T11:09:40.000Z</time>
      </trkpt>
      <trkpt lat="54.661235" lon="9.420520">
        <ele>99.925260</ele>
        <time>2021-07-22T11:09:44.000Z</time>
      </trkpt>
      <trkpt lat="54.661265" lon="9.420616">
        <ele>100.120111</ele>
        <time>2021-07-22T11:09:47.000Z</time>
      </trkpt>
      <trkpt lat="54.661280" lon="9.420640">
        <ele>100.183209</ele>
        <time>2021-07-22T11:09:48.000Z</time>
      </trkpt>
      <trkpt lat="54.661332" lon="9.420729">
        <ele>100.409112</ele>
        <time>2021-07-22T11:09:52.000Z</time>
      </trkpt>
      <trkpt lat="54.661384" lon="9.420845">
        <ele>100.671185</ele>
        <time>2021-07-22T11:09:56.000Z</time>
      </trkpt>
      <trkpt lat="54.661401" lon="9.420901">
        <ele>100.784121</ele>
        <time>2021-07-22T11:09:58.000Z</time>
      </trkpt>
      <trkpt lat="54.661458" lon="9.421086">
        <ele>101.158428</ele>
        <time>2021-07-22T11:10:05.000Z</time>
      </trkpt>
      <trkpt lat="54.661463" lon="9.421113">
        <ele>101.209053</ele>
        <time>2021-07-22T11:10:06.000Z</time>
      </trkpt>
      <trkpt lat="54.661498" lon="9.421231">
        <ele>101.445859</ele>
        <time>2021-07-22T11:10:11.000Z</time>
      </trkpt>
      <trkpt lat="54.661507" lon="9.421255">
        <ele>101.496936</ele>
        <time>2021-07-22T11:10:12.000Z</time>
      </trkpt>
      <trkpt lat="54.661533" lon="9.421371">
        <ele>101.719088</ele>
        <time>2021-07-22T11:10:19.000Z</time>
      </trkpt>
      <trkpt lat="54.661576" lon="9.421527">
        <ele>102.027676</ele>
        <time>2021-07-22T11:10:26.000Z</time>
      </trkpt>
      <trkpt lat="54.661576" lon="9.421644">
        <ele>102.236605</ele>
        <time>2021-07-22T11:10:33.000Z</time>
      </trkpt>
      <trkpt lat="54.661571" lon="9.421657">
        <ele>102.264483</ele>
        <time>2021-07-22T11:10:34.000Z</time>
      </trkpt>
      <trkpt lat="54.661541" lon="9.421731">
        <ele>102.425853</ele>
        <time>2021-07-22T11:10:41.000Z</time>
      </trkpt>
      <trkpt lat="54.661555" lon="9.421828">
        <ele>102.604379</ele>
        <time>2021-07-22T11:10:46.000Z</time>
      </trkpt>
      <trkpt lat="54.661577" lon="9.422053">
        <ele>103.011867</ele>
        <time>2021-07-22T11:10:53.000Z</time>
      </trkpt>
      <trkpt lat="54.661551" lon="9.422292">
        <ele>103.446137</ele>
        <time>2021-07-22T11:11:00.000Z</time>
      </trkpt>
      <trkpt lat="54.661515" lon="9.422553">
        <ele>103.925279</ele>
        <time>2021-07-22T11:11:08.000Z</time>
      </trkpt>
      <trkpt lat="54.661506" lon="9.422712">
        <ele>104.210565</ele>
        <time>2021-07-22T11:11:13.000Z</time>
      </trkpt>
      <trkpt lat="54.661513" lon="9.422771">
        <ele>104.318116</ele>
        <time>2021-07-22T11:11:15.000Z</time>
      </trkpt>
      <trkpt lat="54.661540" lon="9.422923">
        <ele>104.650849</ele>
        <time>2021-07-22T11:11:22.000Z</time>
      </trkpt>
      <trkpt lat="54.661564" lon="9.423069">
        <ele>105.016806</ele>
        <time>2021-07-22T11:11:30.000Z</time>
      </trkpt>
      <trkpt lat="54.661568" lon="9.423079">
        <ele>105.046120</ele>
        <time>2021-07-22T11:11:31.000Z</time>
      </trkpt>
      <trkpt lat="54.661572" lon="9.423100">
        <ele>105.099428</ele>
        <time>2021-07-22T11:11:33.000Z</time>
      </trkpt>
      <trkpt lat="54.661580" lon="9.423135">
        <ele>105.190165</ele>
        <time>2021-07-22T11:11:36.000Z</time>
      </trkpt>
      <trkpt lat="54.661582" lon="9.423152">
        <ele>105.231993</ele>
        <time>2021-07-22T11:11:37.000Z</time>
      </trkpt>
      <trkpt lat="54.661582" lon="9.423167">
        <ele>105.268159</ele>
        <time>2021-07-22T11:11:38.000Z</time>
      </trkpt>
      <trkpt lat="54.661590" lon="9.423210">
        <ele>105.377066</ele>
        <time>2021-07-22T11:11:41.000Z</time>
      </trkpt>
      <trkpt lat="54.661580" lon="9.423393">
        <ele>105.820256</ele>
        <time>2021-07-22T11:11:45.000Z</time>
      </trkpt>
      <trkpt lat="54.661592" lon="9.423535">
        <ele>106.166263</ele>
        <time>2021-07-22T11:11:51.000Z</time>
      </trkpt>
      <trkpt lat="54.661601" lon="9.423671">
        <ele>106.496307</ele>
        <time>2021-07-22T11:11:57.000Z</time>
      </trkpt>
      <trkpt lat="54.661604" lon="9.423858">
        <ele>106.947350</ele>
        <time>2021-07-22T11:12:03.000Z</time>
      </trkpt>
      <trkpt lat="54.661611" lon="9.423915">
        <ele>107.087844</ele>
        <time>2021-07-22T11:12:05.000Z</time>
      </trkpt>
      <trkpt lat="54.661632" lon="9.424034">
        <ele>107.387818</ele>
        <time>2021-07-22T11:12:09.000Z</time>
      </trkpt>
      <trkpt lat="54.661647" lon="9.424161">
        <ele>107.700342</ele>
        <time>2021-07-22T11:12:12.000Z</time>
      </trkpt>
      <trkpt lat="54.661756" lon="9.424245">
        <ele>108.197801</ele>
        <time>2021-07-22T11:12:19.000Z</time>
      </trkpt>
      <trkpt lat="54.661802" lon="9.424266">
        <ele>108.396123</ele>
        <time>2021-07-22T11:12:22.000Z</time>
      </trkpt>
      <trkpt lat="54.661843" lon="9.424278">
        <ele>108.569462</ele>
        <time>2021-07-22T11:12:26.000Z</time>
      </trkpt>
      <trkpt lat="54.661861" lon="9.424285">
        <ele>108.646370</ele>
        <time>2021-07-22T11:12:28.000Z</time>
      </trkpt>
      <trkpt lat="54.661922" lon="9.424306">
        <ele>108.905639</ele>
        <time>2021-07-22T11:12:34.000Z</time>
      </trkpt>
      <trkpt lat="54.661932" lon="9.424311">
        <ele>108.949032</ele>
        <time>2021-07-22T11:12:35.000Z</time>
      </trkpt>
      <trkpt lat="54.662003" lon="9.424313">
        <ele>109.245033</ele>
        <time>2021-07-22T11:12:40.000Z</time>
      </trkpt>
      <trkpt lat="54.662008" lon="9.424321">
        <ele>109.273431</ele>
        <time>2021-07-22T11:12:41.000Z</time>
      </trkpt>
      <trkpt lat="54.662109" lon="9.424378">
        <ele>109.716310</ele>
        <time>2021-07-22T11:12:48.000Z</time>
      </trkpt>
      <trkpt lat="54.662151" lon="9.424374">
        <ele>109.891652</ele>
        <time>2021-07-22T11:12:50.000Z</time>
      </trkpt>
      <trkpt lat="54.662257" lon="9.424411">
        <ele>110.342426</ele>
        <time>2021-07-22T11:12:57.000Z</time>
      </trkpt>
      <trkpt lat="54.662355" lon="9.424422">
        <ele>110.751797</ele>
        <time>2021-07-22T11:13:04.000Z</time>
      </trkpt>
      <trkpt lat="54.662419" lon="9.424449">
        <ele>111.026407</ele>
        <time>2021-07-22T11:13:08.000Z</time>
      </trkpt>
      <trkpt lat="54.662466" lon="9.424463">
        <ele>111.225212</ele>
        <time>2021-07-22T11:13:11.000Z</time>
      </trkpt>
      <trkpt lat="54.662612" lon="9.424493">
        <ele>111.838093</ele>
        <time>2021-07-22T11:13:20.000Z</time>
      </trkpt>
      <trkpt lat="54.662709" lon="9.424500">
        <ele>111.966938</ele>
        <time>2021-07-22T11:13:27.000Z</time>
      </trkpt>
      <trkpt lat="54.662739" lon="9.424506">
        <ele>111.969880</ele>
        <time>2021-07-22T11:13:29.000Z</time>
      </trkpt>
      <trkpt lat="54.662860" lon="9.424534">
        <ele>111.981772</ele>
        <time>2021-07-22T11:13:36.000Z</time>
      </trkpt>
      <trkpt lat="54.662887" lon="9.424547">
        <ele>111.984502</ele>
        <time>2021-07-22T11:13:38.000Z</time>
      </trkpt>
      <trkpt lat="54.662997" lon="9.424564">
        <ele>111.995260</ele>
        <time>2021-07-22T11:13:45.000Z</time>
      </trkpt>
      <trkpt lat="54.663159" lon="9.424609">
        <ele>112.011243</ele>
        <time>2021-07-22T11:13:55.000Z</time>
      </trkpt>
      <trkpt lat="54.663266" lon="9.424630">
        <ele>112.021733</ele>
        <time>2021-07-22T11:14:01.000Z</time>
      </trkpt>
      <trkpt lat="54.663282" lon="9.424633">
        <ele>112.023300</ele>
        <time>2021-07-22T11:14:02.000Z</time>
      </trkpt>
      <trkpt lat="54.663407" lon="9.424673">
        <ele>112.035684</ele>
        <time>2021-07-22T11:14:10.000Z</time>
      </trkpt>
      <trkpt lat="54.663477" lon="9.424707">
        <ele>112.042766</ele>
        <time>2021-07-22T11:14:17.000Z</time>
      </trkpt>
      <trkpt lat="54.663592" lon="9.424772">
        <ele>112.054552</ele>
        <time>2021-07-22T11:14:25.000Z</time>
      </trkpt>
      <trkpt lat="54.663605" lon="9.424778">
        <ele>112.055863</ele>
        <time>2021-07-22T11:14:26.000Z</time>
      </trkpt>
      <trkpt lat="54.663720" lon="9.424793">
        <ele>112.067097</ele>
        <time>2021-07-22T11:14:34.000Z</time>
      </trkpt>
      <trkpt lat="54.663749" lon="9.424739">
        <ele>112.071248</ele>
        <time>2021-07-22T11:14:39.000Z</time>
      </trkpt>
      <trkpt lat="54.663760" lon="9.424701">
        <ele>112.073643</ele>
        <time>2021-07-22T11:14:41.000Z</time>
      </trkpt>
      <trkpt lat="54.663797" lon="9.424553">
        <ele>112.082726</ele>
        <time>2021-07-22T11:14:47.000Z</time>
      </trkpt>
      <trkpt lat="54.663826" lon="9.424449">
        <ele>112.089231</ele>
        <time>2021-07-22T11:14:51.000Z</time>
      </trkpt>
      <trkpt lat="54.663837" lon="9.424401">
        <ele>112.092140</ele>
        <time>2021-07-22T11:14:53.000Z</time>
      </trkpt>
      <trkpt lat="54.663882" lon="9.424207">
        <ele>112.103916</ele>
        <time>2021-07-22T11:14:59.000Z</time>
      </trkpt>
      <trkpt lat="54.663887" lon="9.424171">
        <ele>112.106002</ele>
        <time>2021-07-22T11:15:00.000Z</time>
      </trkpt>
      <trkpt lat="54.663912" lon="9.424028">
        <ele>112.114419</ele>
        <time>2021-07-22T11:15:05.000Z</time>
      </trkpt>
      <trkpt lat="54.663930" lon="9.423826">
        <ele>112.125934</ele>
        <time>2021-07-22T11:15:11.000Z</time>
      </trkpt>
      <trkpt lat="54.663927" lon="9.423793">
        <ele>112.127816</ele>
        <time>2021-07-22T11:15:12.000Z</time>
      </trkpt>
      <trkpt lat="54.663930" lon="9.423737">
        <ele>112.130984</ele>
        <time>2021-07-22T11:15:14.000Z</time>
      </trkpt>
      <trkpt lat="54.663921" lon="9.423525">
        <ele>112.087129</ele>
        <time>2021-07-22T11:15:21.000Z</time>
      </trkpt>
      <trkpt lat="54.663919" lon="9.423461">
        <ele>112.063552</ele>
        <time>2021-07-22T11:15:23.000Z</time>
      </trkpt>
      <trkpt lat="54.663910" lon="9.423376">
        <ele>112.031764</ele>
        <time>2021-07-22T11:15:26.000Z</time>
      </trkpt>
      <trkpt lat="54.663908" lon="9.423236">
        <ele>111.980247</ele>
        <time>2021-07-22T11:15:31.000Z</time>
      </trkpt>
      <trkpt lat="54.663926" lon="9.423064">
        <ele>111.915947</ele>
        <time>2021-07-22T11:15:38.000Z</time>
      </trkpt>
      <trkpt lat="54.663922" lon="9.422849">
        <ele>111.836815</ele>
        <time>2021-07-22T11:15:45.000Z</time>
      </trkpt>
      <trkpt lat="54.663941" lon="9.422586">
        <ele>111.739315</ele>
        <time>2021-07-22T11:15:54.000Z</time>
      </trkpt>
      <trkpt lat="54.663952" lon="9.422441">
        <ele>111.685518</ele>
        <time>2021-07-22T11:16:00.000Z</time>
      </trkpt>
      <trkpt lat="54.663964" lon="9.422348">
        <ele>111.650466</ele>
        <time>2021-07-22T11:16:04.000Z</time>
      </trkpt>
      <trkpt lat="54.663967" lon="9.422302">
        <ele>111.633437</ele>
        <time>2021-07-22T11:16:06.000Z</time>
      </trkpt>
      <trkpt lat="54.663975" lon="9.422254">
        <ele>111.615061</ele>
        <time>2021-07-22T11:16:08.000Z</time>
      </trkpt>
      <trkpt lat="54.663994" lon="9.422121">
        <ele>111.564665</ele>
        <time>2021-07-22T11:16:13.000Z</time>
      </trkpt>
      <trkpt lat="54.663994" lon="9.421965">
        <ele>111.507278</ele>
        <time>2021-07-22T11:16:19.000Z</time>
      </trkpt>
      <trkpt lat="54.664004" lon="9.421892">
        <ele>111.479681</ele>
        <time>2021-07-22T11:16:22.000Z</time>
      </trkpt>
      <trkpt lat="54.664018" lon="9.421802">
        <ele>111.445397</ele>
        <time>2021-07-22T11:16:26.000Z</time>
      </trkpt>
      <trkpt lat="54.664017" lon="9.421751">
        <ele>111.426625</ele>
        <time>2021-07-22T11:16:28.000Z</time>
      </trkpt>
      <trkpt lat="54.664024" lon="9.421597">
        <ele>111.369800</ele>
        <time>2021-07-22T11:16:33.000Z</time>
      </trkpt>
      <trkpt lat="54.664059" lon="9.421429">
        <ele>111.304112</ele>
        <time>2021-07-22T11:16:39.000Z</time>
      </trkpt>
      <trkpt lat="54.664082" lon="9.421210">
        <ele>111.222232</ele>
        <time>2021-07-22T11:16:46.000Z</time>
      </trkpt>
      <trkpt lat="54.664094" lon="9.421001">
        <ele>111.144971</ele>
        <time>2021-07-22T11:16:53.000Z</time>
      </trkpt>
      <trkpt lat="54.664130" lon="9.420688">
        <ele>111.027576</ele>
        <time>2021-07-22T11:17:03.000Z</time>
      </trkpt>
      <trkpt lat="54.664142" lon="9.420567">
        <ele>110.955907</ele>
        <time>2021-07-22T11:17:07.000Z</time>
      </trkpt>
      <trkpt lat="54.664169" lon="9.420440">
        <ele>110.761657</ele>
        <time>2021-07-22T11:17:12.000Z</time>
      </trkpt>
      <trkpt lat="54.664216" lon="9.420214">
        <ele>110.416873</ele>
        <time>2021-07-22T11:17:20.000Z</time>
      </trkpt>
      <trkpt lat="54.664262" lon="9.419978">
        <ele>110.059347</ele>
        <time>2021-07-22T11:17:28.000Z</time>
      </trkpt>
      <trkpt lat="54.664286" lon="9.419829">
        <ele>109.837301</ele>
        <time>2021-07-22T11:17:33.000Z</time>
      </trkpt>
      <trkpt lat="54.664299" lon="9.419779">
        <ele>109.758601</ele>
        <time>2021-07-22T11:17:35.000Z</time>
      </trkpt>
      <trkpt lat="54.664337" lon="9.419571">
        <ele>109.445452</ele>
        <time>2021-07-22T11:17:43.000Z</time>
      </trkpt>
      <trkpt lat="54.664383" lon="9.419379">
        <ele>109.147103</ele>
        <time>2021-07-22T11:17:50.000Z</time>
      </trkpt>
      <trkpt lat="54.664418" lon="9.419234">
        <ele>108.921539</ele>
        <time>2021-07-22T11:17:55.000Z</time>
      </trkpt>
      <trkpt lat="54.664442" lon="9.419159">
        <ele>108.798487</ele>
        <time>2021-07-22T11:17:58.000Z</time>
      </trkpt>
      <trkpt lat="54.664509" lon="9.418919">
        <ele>108.415906</ele>
        <time>2021-07-22T11:18:08.000Z</time>
      </trkpt>
      <trkpt lat="54.664571" lon="9.418716">
        <ele>108.086342</ele>
        <time>2021-07-22T11:18:17.000Z</time>
      </trkpt>
      <trkpt lat="54.664585" lon="9.418667">
        <ele>108.007882</ele>
        <time>2021-07-22T11:18:19.000Z</time>
      </trkpt>
      <trkpt lat="54.664640" lon="9.418481">
        <ele>107.707986</ele>
        <time>2021-07-22T11:18:26.000Z</time>
      </trkpt>
      <trkpt lat="54.664700" lon="9.418272">
        <ele>107.373018</ele>
        <time>2021-07-22T11:18:34.000Z</time>
      </trkpt>
      <trkpt lat="54.664750" lon="9.418110">
        <ele>107.109409</ele>
        <time>2021-07-22T11:18:41.000Z</time>
      </trkpt>
      <trkpt lat="54.664763" lon="9.418075">
        <ele>107.049694</ele>
        <time>2021-07-22T11:18:43.000Z</time>
      </trkpt>
      <trkpt lat="54.664830" lon="9.417922">
        <ele>106.774191</ele>
        <time>2021-07-22T11:18:50.000Z</time>
      </trkpt>
      <trkpt lat="54.664893" lon="9.417756">
        <ele>106.465232</ele>
        <time>2021-07-22T11:18:58.000Z</time>
      </trkpt>
      <trkpt lat="54.664972" lon="9.417522">
        <ele>105.830327</ele>
        <time>2021-07-22T11:19:08.000Z</time>
      </trkpt>
      <trkpt lat="54.664998" lon="9.417461">
        <ele>105.652766</ele>
        <time>2021-07-22T11:19:11.000Z</time>
      </trkpt>
      <trkpt lat="54.665033" lon="9.417362">
        <ele>105.380876</ele>
        <time>2021-07-22T11:19:15.000Z</time>
      </trkpt>
      <trkpt lat="54.665056" lon="9.417312">
        <ele>105.231174</ele>
        <time>2021-07-22T11:19:17.000Z</time>
      </trkpt>
      <trkpt lat="54.665137" lon="9.417104">
        <ele>104.643591</ele>
        <time>2021-07-22T11:19:26.000Z</time>
      </trkpt>
      <trkpt lat="54.665233" lon="9.416884">
        <ele>103.997807</ele>
        <time>2021-07-22T11:19:36.000Z</time>
      </trkpt>
      <trkpt lat="54.665360" lon="9.416644">
        <ele>103.235556</ele>
        <time>2021-07-22T11:19:47.000Z</time>
      </trkpt>
      <trkpt lat="54.665406" lon="9.416571">
        <ele>102.982584</ele>
        <time>2021-07-22T11:19:51.000Z</time>
      </trkpt>
      <trkpt lat="54.665427" lon="9.416532">
        <ele>102.857722</ele>
        <time>2021-07-22T11:19:53.000Z</time>
      </trkpt>
      <trkpt lat="54.665439" lon="9.416508">
        <ele>102.783382</ele>
        <time>2021-07-22T11:19:54.000Z</time>
      </trkpt>
      <trkpt lat="54.665529" lon="9.416317">
        <ele>102.206087</ele>
        <time>2021-07-22T11:20:02.000Z</time>
      </trkpt>
      <trkpt lat="54.665554" lon="9.416252">
        <ele>102.023173</ele>
        <time>2021-07-22T11:20:05.000Z</time>
      </trkpt>
      <trkpt lat="54.665578" lon="9.416201">
        <ele>101.869107</ele>
        <time>2021-07-22T11:20:07.000Z</time>
      </trkpt>
      <trkpt lat="54.665617" lon="9.416133">
        <ele>101.644705</ele>
        <time>2021-07-22T11:20:10.000Z</time>
      </trkpt>
      <trkpt lat="54.665691" lon="9.415996">
        <ele>101.205451</ele>
        <time>2021-07-22T11:20:17.000Z</time>
      </trkpt>
      <trkpt lat="54.665728" lon="9.415930">
        <ele>100.990069</ele>
        <time>2021-07-22T11:20:21.000Z</time>
      </trkpt>
      <trkpt lat="54.665763" lon="9.415836">
        <ele>100.728107</ele>
        <time>2021-07-22T11:20:25.000Z</time>
      </trkpt>
      <trkpt lat="54.665805" lon="9.415730">
        <ele>100.427028</ele>
        <time>2021-07-22T11:20:31.000Z</time>
      </trkpt>
      <trkpt lat="54.665834" lon="9.415632">
        <ele>100.169080</ele>
        <time>2021-07-22T11:20:35.000Z</time>
      </trkpt>
      <trkpt lat="54.665873" lon="9.415546">
        <ele>99.913002</ele>
        <time>2021-07-22T11:20:39.000Z</time>
      </trkpt>
      <trkpt lat="54.665936" lon="9.415421">
        <ele>99.524489</ele>
        <time>2021-07-22T11:20:44.000Z</time>
      </trkpt>
      <trkpt lat="54.665932" lon="9.415358">
        <ele>99.375981</ele>
        <time>2021-07-22T11:20:48.000Z</time>
      </trkpt>
      <trkpt lat="54.665933" lon="9.415340">
        <ele>99.333609</ele>
        <time>2021-07-22T11:20:49.000Z</time>
      </trkpt>
      <trkpt lat="54.665935" lon="9.415316">
        <ele>99.276792</ele>
        <time>2021-07-22T11:20:50.000Z</time>
      </trkpt>
      <trkpt lat="54.665923" lon="9.415250">
        <ele>99.118976</ele>
        <time>2021-07-22T11:20:53.000Z</time>
      </trkpt>
      <trkpt lat="54.665911" lon="9.415240">
        <ele>99.066861</ele>
        <time>2021-07-22T11:20:55.000Z</time>
      </trkpt>
      <trkpt lat="54.665912" lon="9.415251">
        <ele>99.041666</ele>
        <time>2021-07-22T11:20:58.000Z</time>
      </trkpt>
      <trkpt lat="54.665929" lon="9.415209">
        <ele>98.925674</ele>
        <time>2021-07-22T11:21:01.000Z</time>
      </trkpt>
      <trkpt lat="54.665935" lon="9.415169">
        <ele>98.832174</ele>
        <time>2021-07-22T11:21:03.000Z</time>
      </trkpt>
      <trkpt lat="54.665938" lon="9.415148">
        <ele>98.783231</ele>
        <time>2021-07-22T11:21:04.000Z</time>
      </trkpt>
      <trkpt lat="54.665965" lon="9.415073">
        <ele>98.583343</ele>
        <time>2021-07-22T11:21:07.000Z</time>
      </trkpt>
      <trkpt lat="54.665987" lon="9.414999">
        <ele>98.395082</ele>
        <time>2021-07-22T11:21:10.000Z</time>
      </trkpt>
      <trkpt lat="54.666012" lon="9.414936">
        <ele>98.222208</ele>
        <time>2021-07-22T11:21:13.000Z</time>
      </trkpt>
      <trkpt lat="54.666026" lon="9.414914">
        <ele>98.148196</ele>
        <time>2021-07-22T11:21:14.000Z</time>
      </trkpt>
      <trkpt lat="54.666096" lon="9.414811">
        <ele>97.788598</ele>
        <time>2021-07-22T11:21:19.000Z</time>
      </trkpt>
      <trkpt lat="54.666113" lon="9.414805">
        <ele>97.720718</ele>
        <time>2021-07-22T11:21:20.000Z</time>
      </trkpt>
      <trkpt lat="54.666136" lon="9.414701">
        <ele>97.468788</ele>
        <time>2021-07-22T11:21:24.000Z</time>
      </trkpt>
      <trkpt lat="54.666147" lon="9.414655">
        <ele>97.356161</ele>
        <time>2021-07-22T11:21:26.000Z</time>
      </trkpt>
      <trkpt lat="54.666162" lon="9.414583">
        <ele>97.183005</ele>
        <time>2021-07-22T11:21:30.000Z</time>
      </trkpt>
      <trkpt lat="54.666174" lon="9.414553">
        <ele>97.100473</ele>
        <time>2021-07-22T11:21:32.000Z</time>
      </trkpt>
      <trkpt lat="54.666200" lon="9.414489">
        <ele>96.923510</ele>
        <time>2021-07-22T11:21:37.000Z</time>
      </trkpt>
      <trkpt lat="54.666205" lon="9.414442">
        <ele>96.815383</ele>
        <time>2021-07-22T11:21:41.000Z</time>
      </trkpt>
      <trkpt lat="54.666222" lon="9.414400">
        <ele>96.699391</ele>
        <time>2021-07-22T11:21:44.000Z</time>
      </trkpt>
      <trkpt lat="54.666229" lon="9.414387">
        <ele>96.659202</ele>
        <time>2021-07-22T11:21:45.000Z</time>
      </trkpt>
      <trkpt lat="54.666308" lon="9.414304">
        <ele>96.297551</ele>
        <time>2021-07-22T11:21:53.000Z</time>
      </trkpt>
      <trkpt lat="54.666365" lon="9.414217">
        <ele>96.000100</ele>
        <time>2021-07-22T11:21:58.000Z</time>
      </trkpt>
      <trkpt lat="54.666390" lon="9.414172">
        <ele>95.858916</ele>
        <time>2021-07-22T11:22:00.000Z</time>
      </trkpt>
      <trkpt lat="54.666400" lon="9.414153">
        <ele>95.800790</ele>
        <time>2021-07-22T11:22:02.000Z</time>
      </trkpt>
      <trkpt lat="54.666433" lon="9.414106">
        <ele>95.633527</ele>
        <time>2021-07-22T11:22:05.000Z</time>
      </trkpt>
      <trkpt lat="54.666444" lon="9.414076">
        <ele>95.553157</ele>
        <time>2021-07-22T11:22:07.000Z</time>
      </trkpt>
      <trkpt lat="54.666447" lon="9.414068">
        <ele>95.531584</ele>
        <time>2021-07-22T11:22:08.000Z</time>
      </trkpt>
      <trkpt lat="54.666447" lon="9.414060">
        <ele>95.513483</ele>
        <time>2021-07-22T11:22:09.000Z</time>
      </trkpt>
      <trkpt lat="54.666463" lon="9.414019">
        <ele>95.401572</ele>
        <time>2021-07-22T11:22:12.000Z</time>
      </trkpt>
      <trkpt lat="54.666466" lon="9.414007">
        <ele>95.371993</ele>
        <time>2021-07-22T11:22:13.000Z</time>
      </trkpt>
      <trkpt lat="54.666478" lon="9.413986">
        <ele>95.305197</ele>
        <time>2021-07-22T11:22:14.000Z</time>
      </trkpt>
      <trkpt lat="54.666547" lon="9.413907">
        <ele>94.981437</ele>
        <time>2021-07-22T11:22:17.000Z</time>
      </trkpt>
      <trkpt lat="54.666558" lon="9.413888">
        <ele>94.920608</ele>
        <time>2021-07-22T11:22:18.000Z</time>
      </trkpt>
      <trkpt lat="54.666580" lon="9.413818">
        <ele>94.740351</ele>
        <time>2021-07-22T11:22:20.000Z</time>
      </trkpt>
      <trkpt lat="54.666591" lon="9.413790">
        <ele>94.663764</ele>
        <time>2021-07-22T11:22:21.000Z</time>
      </trkpt>
      <trkpt lat="54.666599" lon="9.413772">
        <ele>94.612400</ele>
        <time>2021-07-22T11:22:22.000Z</time>
      </trkpt>
      <trkpt lat="54.666609" lon="9.413745">
        <ele>94.539857</ele>
        <time>2021-07-22T11:22:24.000Z</time>
      </trkpt>
      <trkpt lat="54.666612" lon="9.413741">
        <ele>94.525036</ele>
        <time>2021-07-22T11:22:26.000Z</time>
      </trkpt>
      <trkpt lat="54.666615" lon="9.413744">
        <ele>94.511477</ele>
        <time>2021-07-22T11:22:27.000Z</time>
      </trkpt>
      <trkpt lat="54.666636" lon="9.413756">
        <ele>94.424950</ele>
        <time>2021-07-22T11:22:31.000Z</time>
      </trkpt>
      <trkpt lat="54.666639" lon="9.413757">
        <ele>94.412997</ele>
        <time>2021-07-22T11:22:32.000Z</time>
      </trkpt>
      <trkpt lat="54.666640" lon="9.413757">
        <ele>94.409084</ele>
        <time>2021-07-22T11:22:33.000Z</time>
      </trkpt>
      <trkpt lat="54.666642" lon="9.413756">
        <ele>94.400939</ele>
        <time>2021-07-22T11:22:34.000Z</time>
      </trkpt>
      <trkpt lat="54.666642" lon="9.413759">
        <ele>94.394151</ele>
        <time>2021-07-22T11:22:37.000Z</time>
      </trkpt>
      <trkpt lat="54.666670" lon="9.413777">
        <ele>94.277282</ele>
        <time>2021-07-22T11:22:41.000Z</time>
      </trkpt>
      <trkpt lat="54.666695" lon="9.413821">
        <ele>94.137722</ele>
        <time>2021-07-22T11:22:42.000Z</time>
      </trkpt>
      <trkpt lat="54.666736" lon="9.413884">
        <ele>93.923135</ele>
        <time>2021-07-22T11:22:45.000Z</time>
      </trkpt>
      <trkpt lat="54.666823" lon="9.413952">
        <ele>93.549609</ele>
        <time>2021-07-22T11:22:48.000Z</time>
      </trkpt>
      <trkpt lat="54.666905" lon="9.414004">
        <ele>93.207909</ele>
        <time>2021-07-22T11:22:52.000Z</time>
      </trkpt>
      <trkpt lat="54.666931" lon="9.414013">
        <ele>93.104172</ele>
        <time>2021-07-22T11:22:53.000Z</time>
      </trkpt>
      <trkpt lat="54.666974" lon="9.414033">
        <ele>92.929965</ele>
        <time>2021-07-22T11:22:55.000Z</time>
      </trkpt>
      <trkpt lat="54.666986" lon="9.414042">
        <ele>92.878792</ele>
        <time>2021-07-22T11:22:56.000Z</time>
      </trkpt>
      <trkpt lat="54.667037" lon="9.414082">
        <ele>92.659700</ele>
        <time>2021-07-22T11:23:01.000Z</time>
      </trkpt>
      <trkpt lat="54.667046" lon="9.414093">
        <ele>92.616581</ele>
        <time>2021-07-22T11:23:02.000Z</time>
      </trkpt>
      <trkpt lat="54.667068" lon="9.414103">
        <ele>92.527587</ele>
        <time>2021-07-22T11:23:04.000Z</time>
      </trkpt>
      <trkpt lat="54.667083" lon="9.414115">
        <ele>92.462927</ele>
        <time>2021-07-22T11:23:06.000Z</time>
      </trkpt>
      <trkpt lat="54.667101" lon="9.414131">
        <ele>92.383746</ele>
        <time>2021-07-22T11:23:08.000Z</time>
      </trkpt>
      <trkpt lat="54.667135" lon="9.414156">
        <ele>92.239202</ele>
        <time>2021-07-22T11:23:10.000Z</time>
      </trkpt>
      <trkpt lat="54.667164" lon="9.414182">
        <ele>92.196489</ele>
        <time>2021-07-22T11:23:12.000Z</time>
      </trkpt>
      <trkpt lat="54.667179" lon="9.414192">
        <ele>92.192082</ele>
        <time>2021-07-22T11:23:13.000Z</time>
      </trkpt>
      <trkpt lat="54.667270" lon="9.414304">
        <ele>92.161468</ele>
        <time>2021-07-22T11:23:22.000Z</time>
      </trkpt>
      <trkpt lat="54.667275" lon="9.414312">
        <ele>92.159601</ele>
        <time>2021-07-22T11:23:23.000Z</time>
      </trkpt>
      <trkpt lat="54.667281" lon="9.414317">
        <ele>92.157775</ele>
        <time>2021-07-22T11:23:24.000Z</time>
      </trkpt>
      <trkpt lat="54.667313" lon="9.414372">
        <ele>92.145409</ele>
        <time>2021-07-22T11:23:31.000Z</time>
      </trkpt>
      <trkpt lat="54.667322" lon="9.414395">
        <ele>92.141007</ele>
        <time>2021-07-22T11:23:32.000Z</time>
      </trkpt>
      <trkpt lat="54.667384" lon="9.414505">
        <ele>92.116660</ele>
        <time>2021-07-22T11:23:38.000Z</time>
      </trkpt>
      <trkpt lat="54.667393" lon="9.414518">
        <ele>92.113446</ele>
        <time>2021-07-22T11:23:39.000Z</time>
      </trkpt>
      <trkpt lat="54.667402" lon="9.414531">
        <ele>92.110231</ele>
        <time>2021-07-22T11:23:40.000Z</time>
      </trkpt>
      <trkpt lat="54.667476" lon="9.414636">
        <ele>92.083995</ele>
        <time>2021-07-22T11:23:46.000Z</time>
      </trkpt>
      <trkpt lat="54.667569" lon="9.414763">
        <ele>92.051514</ele>
        <time>2021-07-22T11:23:51.000Z</time>
      </trkpt>
      <trkpt lat="54.667582" lon="9.414785">
        <ele>92.046529</ele>
        <time>2021-07-22T11:23:52.000Z</time>
      </trkpt>
      <trkpt lat="54.667593" lon="9.414805">
        <ele>92.042154</ele>
        <time>2021-07-22T11:23:53.000Z</time>
      </trkpt>
      <trkpt lat="54.667636" lon="9.414877">
        <ele>92.025748</ele>
        <time>2021-07-22T11:23:57.000Z</time>
      </trkpt>
      <trkpt lat="54.667746" lon="9.415059">
        <ele>91.984020</ele>
        <time>2021-07-22T11:24:04.000Z</time>
      </trkpt>
      <trkpt lat="54.667768" lon="9.415083">
        <ele>91.976891</ele>
        <time>2021-07-22T11:24:06.000Z</time>
      </trkpt>
      <trkpt lat="54.667775" lon="9.415094">
        <ele>91.974298</ele>
        <time>2021-07-22T11:24:07.000Z</time>
      </trkpt>
      <trkpt lat="54.667804" lon="9.415126">
        <ele>91.964869</ele>
        <time>2021-07-22T11:24:10.000Z</time>
      </trkpt>
      <trkpt lat="54.667881" lon="9.415179">
        <ele>91.942154</ele>
        <time>2021-07-22T11:24:18.000Z</time>
      </trkpt>
      <trkpt lat="54.667895" lon="9.415181">
        <ele>91.938304</ele>
        <time>2021-07-22T11:24:19.000Z</time>
      </trkpt>
      <trkpt lat="54.667981" lon="9.415199">
        <ele>91.914561</ele>
        <time>2021-07-22T11:24:25.000Z</time>
      </trkpt>
      <trkpt lat="54.668076" lon="9.415236">
        <ele>91.887870</ele>
        <time>2021-07-22T11:24:33.000Z</time>
      </trkpt>
      <trkpt lat="54.668268" lon="9.415227">
        <ele>91.835227</ele>
        <time>2021-07-22T11:24:40.000Z</time>
      </trkpt>
      <trkpt lat="54.668363" lon="9.415213">
        <ele>91.809094</ele>
        <time>2021-07-22T11:24:46.000Z</time>
      </trkpt>
      <trkpt lat="54.668384" lon="9.415227">
        <ele>91.802926</ele>
        <time>2021-07-22T11:24:48.000Z</time>
      </trkpt>
      <trkpt lat="54.668454" lon="9.415269">
        <ele>91.782618</ele>
        <time>2021-07-22T11:24:56.000Z</time>
      </trkpt>
      <trkpt lat="54.668523" lon="9.415348">
        <ele>91.759936</ele>
        <time>2021-07-22T11:25:04.000Z</time>
      </trkpt>
      <trkpt lat="54.668622" lon="9.415379">
        <ele>91.732360</ele>
        <time>2021-07-22T11:25:11.000Z</time>
      </trkpt>
      <trkpt lat="54.668761" lon="9.415432">
        <ele>91.656987</ele>
        <time>2021-07-22T11:25:18.000Z</time>
      </trkpt>
      <trkpt lat="54.668896" lon="9.415533">
        <ele>91.528213</ele>
        <time>2021-07-22T11:25:24.000Z</time>
      </trkpt>
      <trkpt lat="54.668921" lon="9.415572">
        <ele>91.498736</ele>
        <time>2021-07-22T11:25:26.000Z</time>
      </trkpt>
      <trkpt lat="54.668989" lon="9.415662">
        <ele>91.423769</ele>
        <time>2021-07-22T11:25:30.000Z</time>
      </trkpt>
      <trkpt lat="54.669049" lon="9.415807">
        <ele>91.333502</ele>
        <time>2021-07-22T11:25:36.000Z</time>
      </trkpt>
      <trkpt lat="54.669062" lon="9.415845">
        <ele>91.311149</ele>
        <time>2021-07-22T11:25:38.000Z</time>
      </trkpt>
      <trkpt lat="54.669116" lon="9.415940">
        <ele>91.243709</ele>
        <time>2021-07-22T11:25:43.000Z</time>
      </trkpt>
      <trkpt lat="54.669127" lon="9.415988">
        <ele>91.217569</ele>
        <time>2021-07-22T11:25:45.000Z</time>
      </trkpt>
      <trkpt lat="54.669169" lon="9.416122">
        <ele>91.140405</ele>
        <time>2021-07-22T11:25:50.000Z</time>
      </trkpt>
      <trkpt lat="54.669175" lon="9.416145">
        <ele>91.127630</ele>
        <time>2021-07-22T11:25:51.000Z</time>
      </trkpt>
      <trkpt lat="54.669202" lon="9.416242">
        <ele>91.073129</ele>
        <time>2021-07-22T11:25:56.000Z</time>
      </trkpt>
      <trkpt lat="54.669269" lon="9.416338">
        <ele>90.996954</ele>
        <time>2021-07-22T11:26:03.000Z</time>
      </trkpt>
      <trkpt lat="54.669292" lon="9.416397">
        <ele>90.960931</ele>
        <time>2021-07-22T11:26:07.000Z</time>
      </trkpt>
      <trkpt lat="54.669293" lon="9.416417">
        <ele>90.950768</ele>
        <time>2021-07-22T11:26:11.000Z</time>
      </trkpt>
      <trkpt lat="54.669296" lon="9.416421">
        <ele>90.947451</ele>
        <time>2021-07-22T11:26:12.000Z</time>
      </trkpt>
      <trkpt lat="54.669311" lon="9.416403">
        <ele>90.931467</ele>
        <time>2021-07-22T11:26:15.000Z</time>
      </trkpt>
      <trkpt lat="54.669325" lon="9.416398">
        <ele>90.918952</ele>
        <time>2021-07-22T11:26:17.000Z</time>
      </trkpt>
      <trkpt lat="54.669392" lon="9.416385">
        <ele>90.859928</ele>
        <time>2021-07-22T11:26:20.000Z</time>
      </trkpt>
      <trkpt lat="54.669426" lon="9.416378">
        <ele>90.829952</ele>
        <time>2021-07-22T11:26:21.000Z</time>
      </trkpt>
      <trkpt lat="54.669473" lon="9.416367">
        <ele>90.788431</ele>
        <time>2021-07-22T11:26:23.000Z</time>
      </trkpt>
      <trkpt lat="54.669568" lon="9.416367">
        <ele>90.705262</ele>
        <time>2021-07-22T11:26:26.000Z</time>
      </trkpt>
      <trkpt lat="54.669596" lon="9.416369">
        <ele>90.680728</ele>
        <time>2021-07-22T11:26:28.000Z</time>
      </trkpt>
      <trkpt lat="54.669606" lon="9.416375">
        <ele>90.671462</ele>
        <time>2021-07-22T11:26:29.000Z</time>
      </trkpt>
      <trkpt lat="54.669617" lon="9.416392">
        <ele>90.658546</ele>
        <time>2021-07-22T11:26:30.000Z</time>
      </trkpt>
      <trkpt lat="54.669647" lon="9.416462">
        <ele>90.614436</ele>
        <time>2021-07-22T11:26:32.000Z</time>
      </trkpt>
      <trkpt lat="54.669683" lon="9.416533">
        <ele>90.566631</ele>
        <time>2021-07-22T11:26:35.000Z</time>
      </trkpt>
      <trkpt lat="54.669698" lon="9.416594">
        <ele>90.533073</ele>
        <time>2021-07-22T11:26:38.000Z</time>
      </trkpt>
      <trkpt lat="54.669713" lon="9.416624">
        <ele>90.512995</ele>
        <time>2021-07-22T11:26:40.000Z</time>
      </trkpt>
      <trkpt lat="54.669716" lon="9.416638">
        <ele>90.505436</ele>
        <time>2021-07-22T11:26:41.000Z</time>
      </trkpt>
      <trkpt lat="54.669718" lon="9.416665">
        <ele>90.491655</ele>
        <time>2021-07-22T11:26:43.000Z</time>
      </trkpt>
      <trkpt lat="54.669735" lon="9.416680">
        <ele>90.474947</ele>
        <time>2021-07-22T11:26:45.000Z</time>
      </trkpt>
      <trkpt lat="54.669713" lon="9.416694">
        <ele>90.454424</ele>
        <time>2021-07-22T11:26:48.000Z</time>
      </trkpt>
      <trkpt lat="54.669713" lon="9.416719">
        <ele>90.441767</ele>
        <time>2021-07-22T11:26:50.000Z</time>
      </trkpt>
      <trkpt lat="54.669713" lon="9.416724">
        <ele>90.439236</ele>
        <time>2021-07-22T11:26:51.000Z</time>
      </trkpt>
      <trkpt lat="54.669714" lon="9.416832">
        <ele>90.384552</ele>
        <time>2021-07-22T11:26:56.000Z</time>
      </trkpt>
      <trkpt lat="54.669704" lon="9.416882">
        <ele>90.357768</ele>
        <time>2021-07-22T11:26:59.000Z</time>
      </trkpt>
      <trkpt lat="54.669701" lon="9.416889">
        <ele>90.353357</ele>
        <time>2021-07-22T11:27:00.000Z</time>
      </trkpt>
      <trkpt lat="54.669716" lon="9.416936">
        <ele>90.326179</ele>
        <time>2021-07-22T11:27:02.000Z</time>
      </trkpt>
      <trkpt lat="54.669744" lon="9.417019">
        <ele>90.277531</ele>
        <time>2021-07-22T11:27:05.000Z</time>
      </trkpt>
      <trkpt lat="54.669776" lon="9.417137">
        <ele>90.211549</ele>
        <time>2021-07-22T11:27:09.000Z</time>
      </trkpt>
      <trkpt lat="54.669802" lon="9.417186">
        <ele>90.177882</ele>
        <time>2021-07-22T11:27:12.000Z</time>
      </trkpt>
      <trkpt lat="54.669829" lon="9.417229">
        <ele>90.145747</ele>
        <time>2021-07-22T11:27:16.000Z</time>
      </trkpt>
      <trkpt lat="54.669835" lon="9.417288">
        <ele>90.162597</ele>
        <time>2021-07-22T11:27:19.000Z</time>
      </trkpt>
      <trkpt lat="54.669843" lon="9.417331">
        <ele>90.194045</ele>
        <time>2021-07-22T11:27:21.000Z</time>
      </trkpt>
      <trkpt lat="54.669848" lon="9.417437">
        <ele>90.268088</ele>
        <time>2021-07-22T11:27:24.000Z</time>
      </trkpt>
      <trkpt lat="54.669853" lon="9.417511">
        <ele>90.319957</ele>
        <time>2021-07-22T11:27:27.000Z</time>
      </trkpt>
      <trkpt lat="54.669861" lon="9.417543">
        <ele>90.344229</ele>
        <time>2021-07-22T11:27:29.000Z</time>
      </trkpt>
      <trkpt lat="54.669880" lon="9.417621">
        <ele>90.403153</ele>
        <time>2021-07-22T11:27:33.000Z</time>
      </trkpt>
      <trkpt lat="54.669881" lon="9.417635">
        <ele>90.412974</ele>
        <time>2021-07-22T11:27:34.000Z</time>
      </trkpt>
      <trkpt lat="54.669893" lon="9.417709">
        <ele>90.466481</ele>
        <time>2021-07-22T11:27:37.000Z</time>
      </trkpt>
      <trkpt lat="54.669897" lon="9.417752">
        <ele>90.496802</ele>
        <time>2021-07-22T11:27:38.000Z</time>
      </trkpt>
      <trkpt lat="54.669911" lon="9.417827">
        <ele>90.551670</ele>
        <time>2021-07-22T11:27:41.000Z</time>
      </trkpt>
      <trkpt lat="54.669962" lon="9.417977">
        <ele>90.672813</ele>
        <time>2021-07-22T11:27:47.000Z</time>
      </trkpt>
      <trkpt lat="54.669970" lon="9.418003">
        <ele>90.693317</ele>
        <time>2021-07-22T11:27:48.000Z</time>
      </trkpt>
      <trkpt lat="54.670003" lon="9.418086">
        <ele>90.763442</ele>
        <time>2021-07-22T11:27:52.000Z</time>
      </trkpt>
      <trkpt lat="54.670070" lon="9.418173">
        <ele>90.864313</ele>
        <time>2021-07-22T11:27:56.000Z</time>
      </trkpt>
      <trkpt lat="54.670118" lon="9.418230">
        <ele>90.934414</ele>
        <time>2021-07-22T11:27:59.000Z</time>
      </trkpt>
      <trkpt lat="54.670133" lon="9.418281">
        <ele>90.974249</ele>
        <time>2021-07-22T11:28:02.000Z</time>
      </trkpt>
      <trkpt lat="54.670158" lon="9.418366">
        <ele>91.040640</ele>
        <time>2021-07-22T11:28:06.000Z</time>
      </trkpt>
      <trkpt lat="54.670185" lon="9.418449">
        <ele>91.106940</ele>
        <time>2021-07-22T11:28:09.000Z</time>
      </trkpt>
      <trkpt lat="54.670194" lon="9.418502">
        <ele>91.145396</ele>
        <time>2021-07-22T11:28:12.000Z</time>
      </trkpt>
      <trkpt lat="54.670197" lon="9.418519">
        <ele>91.157770</ele>
        <time>2021-07-22T11:28:13.000Z</time>
      </trkpt>
      <trkpt lat="54.670220" lon="9.418565">
        <ele>91.200106</ele>
        <time>2021-07-22T11:28:15.000Z</time>
      </trkpt>
      <trkpt lat="54.670254" lon="9.418612">
        <ele>91.252510</ele>
        <time>2021-07-22T11:28:17.000Z</time>
      </trkpt>
      <trkpt lat="54.670316" lon="9.418716">
        <ele>91.356500</ele>
        <time>2021-07-22T11:28:22.000Z</time>
      </trkpt>
      <trkpt lat="54.670370" lon="9.418730">
        <ele>91.422238</ele>
        <time>2021-07-22T11:28:25.000Z</time>
      </trkpt>
      <trkpt lat="54.670410" lon="9.418790">
        <ele>91.485986</ele>
        <time>2021-07-22T11:28:28.000Z</time>
      </trkpt>
      <trkpt lat="54.670445" lon="9.418879">
        <ele>91.560918</ele>
        <time>2021-07-22T11:28:32.000Z</time>
      </trkpt>
      <trkpt lat="54.670519" lon="9.419109">
        <ele>91.744157</ele>
        <time>2021-07-22T11:28:39.000Z</time>
      </trkpt>
      <trkpt lat="54.670532" lon="9.419130">
        <ele>91.765574</ele>
        <time>2021-07-22T11:28:40.000Z</time>
      </trkpt>
      <trkpt lat="54.670592" lon="9.419259">
        <ele>91.880828</ele>
        <time>2021-07-22T11:28:46.000Z</time>
      </trkpt>
      <trkpt lat="54.670608" lon="9.419277">
        <ele>91.903808</ele>
        <time>2021-07-22T11:28:47.000Z</time>
      </trkpt>
      <trkpt lat="54.670616" lon="9.419306">
        <ele>91.926177</ele>
        <time>2021-07-22T11:28:49.000Z</time>
      </trkpt>
      <trkpt lat="54.670643" lon="9.419346">
        <ele>91.968980</ele>
        <time>2021-07-22T11:28:52.000Z</time>
      </trkpt>
      <trkpt lat="54.670660" lon="9.419376">
        <ele>91.998222</ele>
        <time>2021-07-22T11:28:53.000Z</time>
      </trkpt>
      <trkpt lat="54.670746" lon="9.419485">
        <ele>92.126589</ele>
        <time>2021-07-22T11:29:00.000Z</time>
      </trkpt>
      <trkpt lat="54.670794" lon="9.419636">
        <ele>92.246550</ele>
        <time>2021-07-22T11:29:06.000Z</time>
      </trkpt>
      <trkpt lat="54.670809" lon="9.419715">
        <ele>92.300517</ele>
        <time>2021-07-22T11:29:08.000Z</time>
      </trkpt>
      <trkpt lat="54.670847" lon="9.419900">
        <ele>92.294525</ele>
        <time>2021-07-22T11:29:13.000Z</time>
      </trkpt>
      <trkpt lat="54.670860" lon="9.419959">
        <ele>92.292599</ele>
        <time>2021-07-22T11:29:15.000Z</time>
      </trkpt>
      <trkpt lat="54.670874" lon="9.420077">
        <ele>92.288922</ele>
        <time>2021-07-22T11:29:20.000Z</time>
      </trkpt>
      <trkpt lat="54.670874" lon="9.420111">
        <ele>92.287885</ele>
        <time>2021-07-22T11:29:22.000Z</time>
      </trkpt>
      <trkpt lat="54.670876" lon="9.420180">
        <ele>92.285776</ele>
        <time>2021-07-22T11:29:25.000Z</time>
      </trkpt>
      <trkpt lat="54.670881" lon="9.420200">
        <ele>92.285111</ele>
        <time>2021-07-22T11:29:26.000Z</time>
      </trkpt>
      <trkpt lat="54.670896" lon="9.420249">
        <ele>92.283419</ele>
        <time>2021-07-22T11:29:28.000Z</time>
      </trkpt>
      <trkpt lat="54.670907" lon="9.420287">
        <ele>92.282122</ele>
        <time>2021-07-22T11:29:30.000Z</time>
      </trkpt>
      <trkpt lat="54.670940" lon="9.420551">
        <ele>92.273879</ele>
        <time>2021-07-22T11:29:38.000Z</time>
      </trkpt>
      <trkpt lat="54.670982" lon="9.420665">
        <ele>92.269754</ele>
        <time>2021-07-22T11:29:44.000Z</time>
      </trkpt>
      <trkpt lat="54.671027" lon="9.420802">
        <ele>92.264945</ele>
        <time>2021-07-22T11:29:51.000Z</time>
      </trkpt>
      <trkpt lat="54.671075" lon="9.421008">
        <ele>92.258167</ele>
        <time>2021-07-22T11:29:58.000Z</time>
      </trkpt>
      <trkpt lat="54.671083" lon="9.421031">
        <ele>92.257348</ele>
        <time>2021-07-22T11:29:59.000Z</time>
      </trkpt>
      <trkpt lat="54.671138" lon="9.421168">
        <ele>92.252258</ele>
        <time>2021-07-22T11:30:05.000Z</time>
      </trkpt>
      <trkpt lat="54.671224" lon="9.421305">
        <ele>92.246087</ele>
        <time>2021-07-22T11:30:12.000Z</time>
      </trkpt>
      <trkpt lat="54.671269" lon="9.421436">
        <ele>92.241436</ele>
        <time>2021-07-22T11:30:17.000Z</time>
      </trkpt>
      <trkpt lat="54.671294" lon="9.421491">
        <ele>92.239301</ele>
        <time>2021-07-22T11:30:19.000Z</time>
      </trkpt>
      <trkpt lat="54.671347" lon="9.421635">
        <ele>92.234092</ele>
        <time>2021-07-22T11:30:27.000Z</time>
      </trkpt>
      <trkpt lat="54.671349" lon="9.421648">
        <ele>92.233681</ele>
        <time>2021-07-22T11:30:28.000Z</time>
      </trkpt>
      <trkpt lat="54.671357" lon="9.421731">
        <ele>92.231113</ele>
        <time>2021-07-22T11:30:32.000Z</time>
      </trkpt>
      <trkpt lat="54.671358" lon="9.421783">
        <ele>92.229525</ele>
        <time>2021-07-22T11:30:35.000Z</time>
      </trkpt>
      <trkpt lat="54.671370" lon="9.421801">
        <ele>92.228687</ele>
        <time>2021-07-22T11:30:36.000Z</time>
      </trkpt>
      <trkpt lat="54.671396" lon="9.421886">
        <ele>92.225752</ele>
        <time>2021-07-22T11:30:39.000Z</time>
      </trkpt>
      <trkpt lat="54.671411" lon="9.421928">
        <ele>92.224246</ele>
        <time>2021-07-22T11:30:40.000Z</time>
      </trkpt>
      <trkpt lat="54.671497" lon="9.422186">
        <ele>92.215157</ele>
        <time>2021-07-22T11:30:48.000Z</time>
      </trkpt>
      <trkpt lat="54.671515" lon="9.422302">
        <ele>92.211492</ele>
        <time>2021-07-22T11:30:52.000Z</time>
      </trkpt>
      <trkpt lat="54.671520" lon="9.422327">
        <ele>92.210685</ele>
        <time>2021-07-22T11:30:53.000Z</time>
      </trkpt>
      <trkpt lat="54.671540" lon="9.422410">
        <ele>92.207940</ele>
        <time>2021-07-22T11:30:56.000Z</time>
      </trkpt>
      <trkpt lat="54.671558" lon="9.422551">
        <ele>92.036574</ele>
        <time>2021-07-22T11:31:02.000Z</time>
      </trkpt>
      <trkpt lat="54.671566" lon="9.422763">
        <ele>91.542753</ele>
        <time>2021-07-22T11:31:10.000Z</time>
      </trkpt>
      <trkpt lat="54.671572" lon="9.422967">
        <ele>91.067962</ele>
        <time>2021-07-22T11:31:16.000Z</time>
      </trkpt>
      <trkpt lat="54.671568" lon="9.423147">
        <ele>90.649261</ele>
        <time>2021-07-22T11:31:22.000Z</time>
      </trkpt>
      <trkpt lat="54.671577" lon="9.423181">
        <ele>90.562345</ele>
        <time>2021-07-22T11:31:24.000Z</time>
      </trkpt>
      <trkpt lat="54.671578" lon="9.423232">
        <ele>90.443732</ele>
        <time>2021-07-22T11:31:26.000Z</time>
      </trkpt>
      <trkpt lat="54.671578" lon="9.423257">
        <ele>90.385622</ele>
        <time>2021-07-22T11:31:27.000Z</time>
      </trkpt>
      <trkpt lat="54.671578" lon="9.423286">
        <ele>90.318214</ele>
        <time>2021-07-22T11:31:28.000Z</time>
      </trkpt>
      <trkpt lat="54.671579" lon="9.423318">
        <ele>90.243725</ele>
        <time>2021-07-22T11:31:29.000Z</time>
      </trkpt>
      <trkpt lat="54.671579" lon="9.423360">
        <ele>90.146100</ele>
        <time>2021-07-22T11:31:31.000Z</time>
      </trkpt>
      <trkpt lat="54.671584" lon="9.423434">
        <ele>89.972924</ele>
        <time>2021-07-22T11:31:35.000Z</time>
      </trkpt>
      <trkpt lat="54.671588" lon="9.423447">
        <ele>89.938696</ele>
        <time>2021-07-22T11:31:36.000Z</time>
      </trkpt>
      <trkpt lat="54.671603" lon="9.423493">
        <ele>89.815945</ele>
        <time>2021-07-22T11:31:39.000Z</time>
      </trkpt>
      <trkpt lat="54.671608" lon="9.423505">
        <ele>89.781565</ele>
        <time>2021-07-22T11:31:40.000Z</time>
      </trkpt>
      <trkpt lat="54.671633" lon="9.423541">
        <ele>89.650797</ele>
        <time>2021-07-22T11:31:43.000Z</time>
      </trkpt>
      <trkpt lat="54.671635" lon="9.423542">
        <ele>89.642428</ele>
        <time>2021-07-22T11:31:44.000Z</time>
      </trkpt>
      <trkpt lat="54.671643" lon="9.423525">
        <ele>89.591482</ele>
        <time>2021-07-22T11:31:47.000Z</time>
      </trkpt>
      <trkpt lat="54.671670" lon="9.423529">
        <ele>89.482554</ele>
        <time>2021-07-22T11:31:49.000Z</time>
      </trkpt>
      <trkpt lat="54.671700" lon="9.423515">
        <ele>89.357652</ele>
        <time>2021-07-22T11:31:54.000Z</time>
      </trkpt>
      <trkpt lat="54.671721" lon="9.423502">
        <ele>89.267994</ele>
        <time>2021-07-22T11:31:56.000Z</time>
      </trkpt>
      <trkpt lat="54.671725" lon="9.423503">
        <ele>89.251749</ele>
        <time>2021-07-22T11:31:59.000Z</time>
      </trkpt>
      <trkpt lat="54.671712" lon="9.423496">
        <ele>89.197019</ele>
        <time>2021-07-22T11:32:01.000Z</time>
      </trkpt>
      <trkpt lat="54.671711" lon="9.423486">
        <ele>89.173430</ele>
        <time>2021-07-22T11:32:03.000Z</time>
      </trkpt>
      <trkpt lat="54.671700" lon="9.423482">
        <ele>89.128247</ele>
        <time>2021-07-22T11:32:07.000Z</time>
      </trkpt>
      <trkpt lat="54.671701" lon="9.423454">
        <ele>89.063040</ele>
        <time>2021-07-22T11:32:12.000Z</time>
      </trkpt>
      <trkpt lat="54.671710" lon="9.423456">
        <ele>89.026566</ele>
        <time>2021-07-22T11:32:14.000Z</time>
      </trkpt>
      <trkpt lat="54.671722" lon="9.423480">
        <ele>88.952818</ele>
        <time>2021-07-22T11:32:19.000Z</time>
      </trkpt>
      <trkpt lat="54.671752" lon="9.423479">
        <ele>88.832207</ele>
        <time>2021-07-22T11:32:20.000Z</time>
      </trkpt>
      <trkpt lat="54.671826" lon="9.423512">
        <ele>88.525024</ele>
        <time>2021-07-22T11:32:24.000Z</time>
      </trkpt>
      <trkpt lat="54.671844" lon="9.423519">
        <ele>88.450863</ele>
        <time>2021-07-22T11:32:25.000Z</time>
      </trkpt>
      <trkpt lat="54.671857" lon="9.423525">
        <ele>88.396779</ele>
        <time>2021-07-22T11:32:26.000Z</time>
      </trkpt>
      <trkpt lat="54.671876" lon="9.423541">
        <ele>88.311833</ele>
        <time>2021-07-22T11:32:27.000Z</time>
      </trkpt>
      <trkpt lat="54.671891" lon="9.423553">
        <ele>88.245399</ele>
        <time>2021-07-22T11:32:28.000Z</time>
      </trkpt>
      <trkpt lat="54.671922" lon="9.423589">
        <ele>88.095301</ele>
        <time>2021-07-22T11:32:30.000Z</time>
      </trkpt>
      <trkpt lat="54.671943" lon="9.423613">
        <ele>87.994121</ele>
        <time>2021-07-22T11:32:31.000Z</time>
      </trkpt>
      <trkpt lat="54.671992" lon="9.423677">
        <ele>87.747294</ele>
        <time>2021-07-22T11:32:35.000Z</time>
      </trkpt>
      <trkpt lat="54.671997" lon="9.423694">
        <ele>87.702962</ele>
        <time>2021-07-22T11:32:36.000Z</time>
      </trkpt>
      <trkpt lat="54.672015" lon="9.423744">
        <ele>87.566062</ele>
        <time>2021-07-22T11:32:38.000Z</time>
      </trkpt>
      <trkpt lat="54.672062" lon="9.423840">
        <ele>87.273687</ele>
        <time>2021-07-22T11:32:45.000Z</time>
      </trkpt>
      <trkpt lat="54.672079" lon="9.423863">
        <ele>87.186925</ele>
        <time>2021-07-22T11:32:47.000Z</time>
      </trkpt>
      <trkpt lat="54.672106" lon="9.423899">
        <ele>87.049883</ele>
        <time>2021-07-22T11:32:50.000Z</time>
      </trkpt>
      <trkpt lat="54.672109" lon="9.423911">
        <ele>87.019495</ele>
        <time>2021-07-22T11:32:51.000Z</time>
      </trkpt>
      <trkpt lat="54.672118" lon="9.423925">
        <ele>86.970836</ele>
        <time>2021-07-22T11:32:53.000Z</time>
      </trkpt>
      <trkpt lat="54.672125" lon="9.423951">
        <ele>86.904173</ele>
        <time>2021-07-22T11:32:55.000Z</time>
      </trkpt>
      <trkpt lat="54.672136" lon="9.423985">
        <ele>86.813616</ele>
        <time>2021-07-22T11:32:58.000Z</time>
      </trkpt>
      <trkpt lat="54.672143" lon="9.424012">
        <ele>86.744839</ele>
        <time>2021-07-22T11:33:00.000Z</time>
      </trkpt>
      <trkpt lat="54.672170" lon="9.424084">
        <ele>86.545374</ele>
        <time>2021-07-22T11:33:03.000Z</time>
      </trkpt>
      <trkpt lat="54.672177" lon="9.424103">
        <ele>86.493010</ele>
        <time>2021-07-22T11:33:04.000Z</time>
      </trkpt>
      <trkpt lat="54.672186" lon="9.424140">
        <ele>86.399709</ele>
        <time>2021-07-22T11:33:06.000Z</time>
      </trkpt>
      <trkpt lat="54.672225" lon="9.424217">
        <ele>86.161785</ele>
        <time>2021-07-22T11:33:10.000Z</time>
      </trkpt>
      <trkpt lat="54.672233" lon="9.424236">
        <ele>86.107155</ele>
        <time>2021-07-22T11:33:11.000Z</time>
      </trkpt>
      <trkpt lat="54.672262" lon="9.424280">
        <ele>85.952081</ele>
        <time>2021-07-22T11:33:14.000Z</time>
      </trkpt>
      <trkpt lat="54.672299" lon="9.424319">
        <ele>85.777906</ele>
        <time>2021-07-22T11:33:17.000Z</time>
      </trkpt>
      <trkpt lat="54.672341" lon="9.424375">
        <ele>85.564729</ele>
        <time>2021-07-22T11:33:19.000Z</time>
      </trkpt>
      <trkpt lat="54.672399" lon="9.424468">
        <ele>85.246797</ele>
        <time>2021-07-22T11:33:23.000Z</time>
      </trkpt>
      <trkpt lat="54.672432" lon="9.424518">
        <ele>85.070439</ele>
        <time>2021-07-22T11:33:26.000Z</time>
      </trkpt>
      <trkpt lat="54.672488" lon="9.424566">
        <ele>85.110951</ele>
        <time>2021-07-22T11:33:30.000Z</time>
      </trkpt>
      <trkpt lat="54.672548" lon="9.424723">
        <ele>85.488086</ele>
        <time>2021-07-22T11:33:37.000Z</time>
      </trkpt>
      <trkpt lat="54.672564" lon="9.424824">
        <ele>85.697950</ele>
        <time>2021-07-22T11:33:41.000Z</time>
      </trkpt>
      <trkpt lat="54.672566" lon="9.424883">
        <ele>85.816390</ele>
        <time>2021-07-22T11:33:43.000Z</time>
      </trkpt>
      <trkpt lat="54.672581" lon="9.424944">
        <ele>85.949229</ele>
        <time>2021-07-22T11:33:45.000Z</time>
      </trkpt>
      <trkpt lat="54.672700" lon="9.425134">
        <ele>86.510535</ele>
        <time>2021-07-22T11:33:52.000Z</time>
      </trkpt>
      <trkpt lat="54.672719" lon="9.425156">
        <ele>86.589779</ele>
        <time>2021-07-22T11:33:53.000Z</time>
      </trkpt>
      <trkpt lat="54.672756" lon="9.425306">
        <ele>86.916587</ele>
        <time>2021-07-22T11:33:58.000Z</time>
      </trkpt>
      <trkpt lat="54.672835" lon="9.425415">
        <ele>87.266836</ele>
        <time>2021-07-22T11:34:04.000Z</time>
      </trkpt>
      <trkpt lat="54.672814" lon="9.425605">
        <ele>87.654489</ele>
        <time>2021-07-22T11:34:11.000Z</time>
      </trkpt>
      <trkpt lat="54.672760" lon="9.425735">
        <ele>87.975260</ele>
        <time>2021-07-22T11:34:16.000Z</time>
      </trkpt>
      <trkpt lat="54.672752" lon="9.425779">
        <ele>88.067693</ele>
        <time>2021-07-22T11:34:18.000Z</time>
      </trkpt>
      <trkpt lat="54.672730" lon="9.425824">
        <ele>88.185785</ele>
        <time>2021-07-22T11:34:20.000Z</time>
      </trkpt>
      <trkpt lat="54.672598" lon="9.425976">
        <ele>88.735387</ele>
        <time>2021-07-22T11:34:28.000Z</time>
      </trkpt>
      <trkpt lat="54.672450" lon="9.426016">
        <ele>89.254531</ele>
        <time>2021-07-22T11:34:34.000Z</time>
      </trkpt>
      <trkpt lat="54.672416" lon="9.426026">
        <ele>89.374056</ele>
        <time>2021-07-22T11:34:36.000Z</time>
      </trkpt>
      <trkpt lat="54.672380" lon="9.426052">
        <ele>89.509263</ele>
        <time>2021-07-22T11:34:40.000Z</time>
      </trkpt>
      <trkpt lat="54.672353" lon="9.426077">
        <ele>89.615404</ele>
        <time>2021-07-22T11:34:43.000Z</time>
      </trkpt>
      <trkpt lat="54.672329" lon="9.426098">
        <ele>89.708621</ele>
        <time>2021-07-22T11:34:45.000Z</time>
      </trkpt>
      <trkpt lat="54.672269" lon="9.426152">
        <ele>89.943035</ele>
        <time>2021-07-22T11:34:49.000Z</time>
      </trkpt>
      <trkpt lat="54.672141" lon="9.426244">
        <ele>90.423428</ele>
        <time>2021-07-22T11:34:57.000Z</time>
      </trkpt>
      <trkpt lat="54.672080" lon="9.426320">
        <ele>90.683984</ele>
        <time>2021-07-22T11:35:02.000Z</time>
      </trkpt>
      <trkpt lat="54.672062" lon="9.426381">
        <ele>90.821227</ele>
        <time>2021-07-22T11:35:05.000Z</time>
      </trkpt>
      <trkpt lat="54.672062" lon="9.426399">
        <ele>90.857300</ele>
        <time>2021-07-22T11:35:06.000Z</time>
      </trkpt>
      <trkpt lat="54.672057" lon="9.426423">
        <ele>90.908423</ele>
        <time>2021-07-22T11:35:08.000Z</time>
      </trkpt>
      <trkpt lat="54.672057" lon="9.426445">
        <ele>90.952512</ele>
        <time>2021-07-22T11:35:09.000Z</time>
      </trkpt>
      <trkpt lat="54.672055" lon="9.426471">
        <ele>91.005076</ele>
        <time>2021-07-22T11:35:10.000Z</time>
      </trkpt>
      <trkpt lat="54.672051" lon="9.426491">
        <ele>91.047486</ele>
        <time>2021-07-22T11:35:11.000Z</time>
      </trkpt>
      <trkpt lat="54.672040" lon="9.426518">
        <ele>91.113676</ele>
        <time>2021-07-22T11:35:13.000Z</time>
      </trkpt>
      <trkpt lat="54.672019" lon="9.426564">
        <ele>91.227269</ele>
        <time>2021-07-22T11:35:17.000Z</time>
      </trkpt>
      <trkpt lat="54.672016" lon="9.426577">
        <ele>91.250345</ele>
        <time>2021-07-22T11:35:18.000Z</time>
      </trkpt>
      <trkpt lat="54.672007" lon="9.426619">
        <ele>91.324190</ele>
        <time>2021-07-22T11:35:21.000Z</time>
      </trkpt>
      <trkpt lat="54.671992" lon="9.426689">
        <ele>91.447266</ele>
        <time>2021-07-22T11:35:26.000Z</time>
      </trkpt>
      <trkpt lat="54.671983" lon="9.426714">
        <ele>91.495817</ele>
        <time>2021-07-22T11:35:28.000Z</time>
      </trkpt>
      <trkpt lat="54.671977" lon="9.426727">
        <ele>91.523239</ele>
        <time>2021-07-22T11:35:29.000Z</time>
      </trkpt>
      <trkpt lat="54.671941" lon="9.426807">
        <ele>91.690364</ele>
        <time>2021-07-22T11:35:34.000Z</time>
      </trkpt>
      <trkpt lat="54.671939" lon="9.426823">
        <ele>91.717351</ele>
        <time>2021-07-22T11:35:35.000Z</time>
      </trkpt>
      <trkpt lat="54.671934" lon="9.426850">
        <ele>91.764092</ele>
        <time>2021-07-22T11:35:36.000Z</time>
      </trkpt>
      <trkpt lat="54.671922" lon="9.426945">
        <ele>91.924409</ele>
        <time>2021-07-22T11:35:39.000Z</time>
      </trkpt>
      <trkpt lat="54.671911" lon="9.427066">
        <ele>92.126347</ele>
        <time>2021-07-22T11:35:43.000Z</time>
      </trkpt>
      <trkpt lat="54.671902" lon="9.427115">
        <ele>92.211109</ele>
        <time>2021-07-22T11:35:45.000Z</time>
      </trkpt>
      <trkpt lat="54.671899" lon="9.427132">
        <ele>92.240412</ele>
        <time>2021-07-22T11:35:46.000Z</time>
      </trkpt>
      <trkpt lat="54.671898" lon="9.427152">
        <ele>92.273508</ele>
        <time>2021-07-22T11:35:47.000Z</time>
      </trkpt>
      <trkpt lat="54.671864" lon="9.427287">
        <ele>92.516272</ele>
        <time>2021-07-22T11:35:52.000Z</time>
      </trkpt>
      <trkpt lat="54.671864" lon="9.427324">
        <ele>92.577273</ele>
        <time>2021-07-22T11:35:54.000Z</time>
      </trkpt>
      <trkpt lat="54.671867" lon="9.427342">
        <ele>92.608157</ele>
        <time>2021-07-22T11:35:55.000Z</time>
      </trkpt>
      <trkpt lat="54.671865" lon="9.427413">
        <ele>92.725351</ele>
        <time>2021-07-22T11:35:58.000Z</time>
      </trkpt>
      <trkpt lat="54.671867" lon="9.427481">
        <ele>92.837605</ele>
        <time>2021-07-22T11:36:00.000Z</time>
      </trkpt>
      <trkpt lat="54.671860" lon="9.427620">
        <ele>93.067637</ele>
        <time>2021-07-22T11:36:03.000Z</time>
      </trkpt>
      <trkpt lat="54.671862" lon="9.427684">
        <ele>93.173305</ele>
        <time>2021-07-22T11:36:05.000Z</time>
      </trkpt>
      <trkpt lat="54.671807" lon="9.427881">
        <ele>93.533966</ele>
        <time>2021-07-22T11:36:11.000Z</time>
      </trkpt>
      <trkpt lat="54.671746" lon="9.427987">
        <ele>93.780517</ele>
        <time>2021-07-22T11:36:16.000Z</time>
      </trkpt>
      <trkpt lat="54.671712" lon="9.428026">
        <ele>93.896840</ele>
        <time>2021-07-22T11:36:18.000Z</time>
      </trkpt>
      <trkpt lat="54.671696" lon="9.428063">
        <ele>93.973012</ele>
        <time>2021-07-22T11:36:21.000Z</time>
      </trkpt>
      <trkpt lat="54.671678" lon="9.428096">
        <ele>94.047803</ele>
        <time>2021-07-22T11:36:23.000Z</time>
      </trkpt>
      <trkpt lat="54.671671" lon="9.428118">
        <ele>94.089202</ele>
        <time>2021-07-22T11:36:24.000Z</time>
      </trkpt>
      <trkpt lat="54.671667" lon="9.428137">
        <ele>94.122538</ele>
        <time>2021-07-22T11:36:25.000Z</time>
      </trkpt>
      <trkpt lat="54.671641" lon="9.428183">
        <ele>94.228588</ele>
        <time>2021-07-22T11:36:28.000Z</time>
      </trkpt>
      <trkpt lat="54.671636" lon="9.428193">
        <ele>94.250383</ele>
        <time>2021-07-22T11:36:29.000Z</time>
      </trkpt>
      <trkpt lat="54.671613" lon="9.428226">
        <ele>94.335589</ele>
        <time>2021-07-22T11:36:31.000Z</time>
      </trkpt>
      <trkpt lat="54.671588" lon="9.428250">
        <ele>94.417113</ele>
        <time>2021-07-22T11:36:33.000Z</time>
      </trkpt>
      <trkpt lat="54.671523" lon="9.428353">
        <ele>94.668470</ele>
        <time>2021-07-22T11:36:39.000Z</time>
      </trkpt>
      <trkpt lat="54.671508" lon="9.428385">
        <ele>94.736384</ele>
        <time>2021-07-22T11:36:41.000Z</time>
      </trkpt>
      <trkpt lat="54.671465" lon="9.428477">
        <ele>94.931414</ele>
        <time>2021-07-22T11:36:46.000Z</time>
      </trkpt>
      <trkpt lat="54.671453" lon="9.428488">
        <ele>94.970136</ele>
        <time>2021-07-22T11:36:47.000Z</time>
      </trkpt>
      <trkpt lat="54.671444" lon="9.428516">
        <ele>95.022951</ele>
        <time>2021-07-22T11:36:48.000Z</time>
      </trkpt>
      <trkpt lat="54.671390" lon="9.428626">
        <ele>95.260844</ele>
        <time>2021-07-22T11:36:53.000Z</time>
      </trkpt>
      <trkpt lat="54.671340" lon="9.428740">
        <ele>95.496740</ele>
        <time>2021-07-22T11:36:57.000Z</time>
      </trkpt>
      <trkpt lat="54.671325" lon="9.428769">
        <ele>95.560888</ele>
        <time>2021-07-22T11:36:58.000Z</time>
      </trkpt>
      <trkpt lat="54.671292" lon="9.428857">
        <ele>95.733809</ele>
        <time>2021-07-22T11:37:01.000Z</time>
      </trkpt>
      <trkpt lat="54.671269" lon="9.428896">
        <ele>95.825648</ele>
        <time>2021-07-22T11:37:03.000Z</time>
      </trkpt>
      <trkpt lat="54.671249" lon="9.428937">
        <ele>95.914083</ele>
        <time>2021-07-22T11:37:05.000Z</time>
      </trkpt>
      <trkpt lat="54.671141" lon="9.429099">
        <ele>96.321698</ele>
        <time>2021-07-22T11:37:12.000Z</time>
      </trkpt>
      <trkpt lat="54.671128" lon="9.429118">
        <ele>96.357139</ele>
        <time>2021-07-22T11:37:13.000Z</time>
      </trkpt>
      <trkpt lat="54.671116" lon="9.429152">
        <ele>96.396586</ele>
        <time>2021-07-22T11:37:15.000Z</time>
      </trkpt>
      <trkpt lat="54.671095" lon="9.429169">
        <ele>96.436295</ele>
        <time>2021-07-22T11:37:19.000Z</time>
      </trkpt>
      <trkpt lat="54.671078" lon="9.429211">
        <ele>96.487065</ele>
        <time>2021-07-22T11:37:22.000Z</time>
      </trkpt>
      <trkpt lat="54.671071" lon="9.429236">
        <ele>96.514573</ele>
        <time>2021-07-22T11:37:24.000Z</time>
      </trkpt>
      <trkpt lat="54.671064" lon="9.429276">
        <ele>96.555960</ele>
        <time>2021-07-22T11:37:26.000Z</time>
      </trkpt>
      <trkpt lat="54.671061" lon="9.429321">
        <ele>96.600820</ele>
        <time>2021-07-22T11:37:28.000Z</time>
      </trkpt>
      <trkpt lat="54.671054" lon="9.429398">
        <ele>96.678011</ele>
        <time>2021-07-22T11:37:32.000Z</time>
      </trkpt>
      <trkpt lat="54.671052" lon="9.429411">
        <ele>96.691333</ele>
        <time>2021-07-22T11:37:33.000Z</time>
      </trkpt>
      <trkpt lat="54.671020" lon="9.429545">
        <ele>96.834906</ele>
        <time>2021-07-22T11:37:39.000Z</time>
      </trkpt>
      <trkpt lat="54.671011" lon="9.429597">
        <ele>96.888660</ele>
        <time>2021-07-22T11:37:41.000Z</time>
      </trkpt>
      <trkpt lat="54.671010" lon="9.429620">
        <ele>96.911502</ele>
        <time>2021-07-22T11:37:42.000Z</time>
      </trkpt>
      <trkpt lat="54.671003" lon="9.429707">
        <ele>96.998490</ele>
        <time>2021-07-22T11:37:46.000Z</time>
      </trkpt>
      <trkpt lat="54.670995" lon="9.429755">
        <ele>97.047960</ele>
        <time>2021-07-22T11:37:48.000Z</time>
      </trkpt>
      <trkpt lat="54.670992" lon="9.429791">
        <ele>97.083980</ele>
        <time>2021-07-22T11:37:50.000Z</time>
      </trkpt>
      <trkpt lat="54.670999" lon="9.429852">
        <ele>97.145568</ele>
        <time>2021-07-22T11:37:53.000Z</time>
      </trkpt>
      <trkpt lat="54.671000" lon="9.429884">
        <ele>97.177304</ele>
        <time>2021-07-22T11:37:54.000Z</time>
      </trkpt>
      <trkpt lat="54.671004" lon="9.430132">
        <ele>97.423000</ele>
        <time>2021-07-22T11:38:00.000Z</time>
      </trkpt>
      <trkpt lat="54.671012" lon="9.430453">
        <ele>97.741188</ele>
        <time>2021-07-22T11:38:08.000Z</time>
      </trkpt>
      <trkpt lat="54.671031" lon="9.430713">
        <ele>98.000719</ele>
        <time>2021-07-22T11:38:16.000Z</time>
      </trkpt>
      <trkpt lat="54.671060" lon="9.430871">
        <ele>98.164883</ele>
        <time>2021-07-22T11:38:22.000Z</time>
      </trkpt>
      <trkpt lat="54.671077" lon="9.431051">
        <ele>98.345502</ele>
        <time>2021-07-22T11:38:30.000Z</time>
      </trkpt>
      <trkpt lat="54.671102" lon="9.431134">
        <ele>98.438180</ele>
        <time>2021-07-22T11:38:35.000Z</time>
      </trkpt>
      <trkpt lat="54.671106" lon="9.431153">
        <ele>98.458205</ele>
        <time>2021-07-22T11:38:36.000Z</time>
      </trkpt>
      <trkpt lat="54.671179" lon="9.431316">
        <ele>98.662377</ele>
        <time>2021-07-22T11:38:44.000Z</time>
      </trkpt>
      <trkpt lat="54.671207" lon="9.431394">
        <ele>98.753295</ele>
        <time>2021-07-22T11:38:47.000Z</time>
      </trkpt>
      <trkpt lat="54.671282" lon="9.431487">
        <ele>98.911344</ele>
        <time>2021-07-22T11:38:50.000Z</time>
      </trkpt>
      <trkpt lat="54.671365" lon="9.431557">
        <ele>99.069490</ele>
        <time>2021-07-22T11:38:56.000Z</time>
      </trkpt>
      <trkpt lat="54.671389" lon="9.431596">
        <ele>99.125890</ele>
        <time>2021-07-22T11:39:04.000Z</time>
      </trkpt>
      <trkpt lat="54.671395" lon="9.431597">
        <ele>99.136213</ele>
        <time>2021-07-22T11:39:05.000Z</time>
      </trkpt>
      <trkpt lat="54.671410" lon="9.431604">
        <ele>99.162820</ele>
        <time>2021-07-22T11:39:07.000Z</time>
      </trkpt>
      <trkpt lat="54.671492" lon="9.431622">
        <ele>99.304377</ele>
        <time>2021-07-22T11:39:12.000Z</time>
      </trkpt>
      <trkpt lat="54.671632" lon="9.431627">
        <ele>99.450829</ele>
        <time>2021-07-22T11:39:21.000Z</time>
      </trkpt>
      <trkpt lat="54.671667" lon="9.431618">
        <ele>99.466689</ele>
        <time>2021-07-22T11:39:24.000Z</time>
      </trkpt>
      <trkpt lat="54.671678" lon="9.431623">
        <ele>99.471786</ele>
        <time>2021-07-22T11:39:25.000Z</time>
      </trkpt>
      <trkpt lat="54.671697" lon="9.431615">
        <ele>99.480551</ele>
        <time>2021-07-22T11:39:27.000Z</time>
      </trkpt>
      <trkpt lat="54.671793" lon="9.431636">
        <ele>99.523922</ele>
        <time>2021-07-22T11:39:34.000Z</time>
      </trkpt>
      <trkpt lat="54.671901" lon="9.431639">
        <ele>99.572334</ele>
        <time>2021-07-22T11:39:41.000Z</time>
      </trkpt>
      <trkpt lat="54.672042" lon="9.431654">
        <ele>99.635651</ele>
        <time>2021-07-22T11:39:49.000Z</time>
      </trkpt>
      <trkpt lat="54.672057" lon="9.431670">
        <ele>99.643550</ele>
        <time>2021-07-22T11:39:50.000Z</time>
      </trkpt>
      <trkpt lat="54.672122" lon="9.431792">
        <ele>99.686545</ele>
        <time>2021-07-22T11:39:56.000Z</time>
      </trkpt>
      <trkpt lat="54.672132" lon="9.431817">
        <ele>99.694424</ele>
        <time>2021-07-22T11:39:57.000Z</time>
      </trkpt>
      <trkpt lat="54.672147" lon="9.431982">
        <ele>99.737713</ele>
        <time>2021-07-22T11:40:04.000Z</time>
      </trkpt>
      <trkpt lat="54.672169" lon="9.432135">
        <ele>99.778575</ele>
        <time>2021-07-22T11:40:11.000Z</time>
      </trkpt>
      <trkpt lat="54.672177" lon="9.432209">
        <ele>99.798086</ele>
        <time>2021-07-22T11:40:14.000Z</time>
      </trkpt>
      <trkpt lat="54.672182" lon="9.432353">
        <ele>99.835475</ele>
        <time>2021-07-22T11:40:19.000Z</time>
      </trkpt>
      <trkpt lat="54.672197" lon="9.432598">
        <ele>99.899328</ele>
        <time>2021-07-22T11:40:27.000Z</time>
      </trkpt>
      <trkpt lat="54.672209" lon="9.432876">
        <ele>99.971580</ele>
        <time>2021-07-22T11:40:36.000Z</time>
      </trkpt>
      <trkpt lat="54.672212" lon="9.433006">
        <ele>100.005300</ele>
        <time>2021-07-22T11:40:41.000Z</time>
      </trkpt>
      <trkpt lat="54.672214" lon="9.433024">
        <ele>100.010051</ele>
        <time>2021-07-22T11:40:42.000Z</time>
      </trkpt>
      <trkpt lat="54.672223" lon="9.433221">
        <ele>100.061268</ele>
        <time>2021-07-22T11:40:49.000Z</time>
      </trkpt>
      <trkpt lat="54.672218" lon="9.433259">
        <ele>100.071368</ele>
        <time>2021-07-22T11:40:50.000Z</time>
      </trkpt>
      <trkpt lat="54.672262" lon="9.433422">
        <ele>100.117990</ele>
        <time>2021-07-22T11:40:55.000Z</time>
      </trkpt>
      <trkpt lat="54.672269" lon="9.433532">
        <ele>100.146672</ele>
        <time>2021-07-22T11:40:59.000Z</time>
      </trkpt>
      <trkpt lat="54.672268" lon="9.433564">
        <ele>100.154978</ele>
        <time>2021-07-22T11:41:01.000Z</time>
      </trkpt>
      <trkpt lat="54.672268" lon="9.433571">
        <ele>100.156792</ele>
        <time>2021-07-22T11:41:02.000Z</time>
      </trkpt>
      <trkpt lat="54.672266" lon="9.433696">
        <ele>100.189201</ele>
        <time>2021-07-22T11:41:08.000Z</time>
      </trkpt>
      <trkpt lat="54.672264" lon="9.433963">
        <ele>100.179977</ele>
        <time>2021-07-22T11:41:18.000Z</time>
      </trkpt>
      <trkpt lat="54.672271" lon="9.434017">
        <ele>100.161722</ele>
        <time>2021-07-22T11:41:20.000Z</time>
      </trkpt>
      <trkpt lat="54.672305" lon="9.434207">
        <ele>100.096114</ele>
        <time>2021-07-22T11:41:27.000Z</time>
      </trkpt>
      <trkpt lat="54.672336" lon="9.434262">
        <ele>100.070778</ele>
        <time>2021-07-22T11:41:32.000Z</time>
      </trkpt>
      <trkpt lat="54.672336" lon="9.434263">
        <ele>100.070449</ele>
        <time>2021-07-22T11:41:33.000Z</time>
      </trkpt>
      <trkpt lat="54.672338" lon="9.434350">
        <ele>100.041727</ele>
        <time>2021-07-22T11:41:37.000Z</time>
      </trkpt>
      <trkpt lat="54.672337" lon="9.434403">
        <ele>100.024235</ele>
        <time>2021-07-22T11:41:39.000Z</time>
      </trkpt>
      <trkpt lat="54.672341" lon="9.434510">
        <ele>99.988865</ele>
        <time>2021-07-22T11:41:43.000Z</time>
      </trkpt>
      <trkpt lat="54.672342" lon="9.434572">
        <ele>99.968405</ele>
        <time>2021-07-22T11:41:45.000Z</time>
      </trkpt>
      <trkpt lat="54.672349" lon="9.434628">
        <ele>99.949506</ele>
        <time>2021-07-22T11:41:47.000Z</time>
      </trkpt>
      <trkpt lat="54.672379" lon="9.434842">
        <ele>99.876869</ele>
        <time>2021-07-22T11:41:56.000Z</time>
      </trkpt>
      <trkpt lat="54.672384" lon="9.434876">
        <ele>99.865297</ele>
        <time>2021-07-22T11:41:58.000Z</time>
      </trkpt>
      <trkpt lat="54.672387" lon="9.434967">
        <ele>99.835230</ele>
        <time>2021-07-22T11:42:03.000Z</time>
      </trkpt>
      <trkpt lat="54.672386" lon="9.435004">
        <ele>99.823011</ele>
        <time>2021-07-22T11:42:05.000Z</time>
      </trkpt>
      <trkpt lat="54.672387" lon="9.435147">
        <ele>99.775837</ele>
        <time>2021-07-22T11:42:10.000Z</time>
      </trkpt>
      <trkpt lat="54.672405" lon="9.435339">
        <ele>99.711675</ele>
        <time>2021-07-22T11:42:16.000Z</time>
      </trkpt>
      <trkpt lat="54.672412" lon="9.435495">
        <ele>99.660061</ele>
        <time>2021-07-22T11:42:22.000Z</time>
      </trkpt>
      <trkpt lat="54.672411" lon="9.435714">
        <ele>99.587817</ele>
        <time>2021-07-22T11:42:29.000Z</time>
      </trkpt>
      <trkpt lat="54.672423" lon="9.435879">
        <ele>99.532960</ele>
        <time>2021-07-22T11:42:35.000Z</time>
      </trkpt>
      <trkpt lat="54.672423" lon="9.435931">
        <ele>99.515807</ele>
        <time>2021-07-22T11:42:37.000Z</time>
      </trkpt>
      <trkpt lat="54.672433" lon="9.436007">
        <ele>99.490096</ele>
        <time>2021-07-22T11:42:40.000Z</time>
      </trkpt>
      <trkpt lat="54.672435" lon="9.436090">
        <ele>99.462693</ele>
        <time>2021-07-22T11:42:44.000Z</time>
      </trkpt>
      <trkpt lat="54.672438" lon="9.436116">
        <ele>99.453948</ele>
        <time>2021-07-22T11:42:45.000Z</time>
      </trkpt>
      <trkpt lat="54.672471" lon="9.436299">
        <ele>99.390715</ele>
        <time>2021-07-22T11:42:53.000Z</time>
      </trkpt>
      <trkpt lat="54.672482" lon="9.436515">
        <ele>99.319187</ele>
        <time>2021-07-22T11:43:00.000Z</time>
      </trkpt>
      <trkpt lat="54.672481" lon="9.436572">
        <ele>99.300376</ele>
        <time>2021-07-22T11:43:02.000Z</time>
      </trkpt>
      <trkpt lat="54.672496" lon="9.436746">
        <ele>99.242345</ele>
        <time>2021-07-22T11:43:08.000Z</time>
      </trkpt>
      <trkpt lat="54.672539" lon="9.436929">
        <ele>99.186803</ele>
        <time>2021-07-22T11:43:15.000Z</time>
      </trkpt>
      <trkpt lat="54.672531" lon="9.437025">
        <ele>99.169702</ele>
        <time>2021-07-22T11:43:18.000Z</time>
      </trkpt>
      <trkpt lat="54.672518" lon="9.437133">
        <ele>99.150253</ele>
        <time>2021-07-22T11:43:22.000Z</time>
      </trkpt>
      <trkpt lat="54.672526" lon="9.437191">
        <ele>99.139740</ele>
        <time>2021-07-22T11:43:24.000Z</time>
      </trkpt>
      <trkpt lat="54.672538" lon="9.437448">
        <ele>99.094281</ele>
        <time>2021-07-22T11:43:32.000Z</time>
      </trkpt>
      <trkpt lat="54.672539" lon="9.437476">
        <ele>99.089335</ele>
        <time>2021-07-22T11:43:33.000Z</time>
      </trkpt>
      <trkpt lat="54.672561" lon="9.437652">
        <ele>99.057587</ele>
        <time>2021-07-22T11:43:39.000Z</time>
      </trkpt>
      <trkpt lat="54.672559" lon="9.437710">
        <ele>99.047343</ele>
        <time>2021-07-22T11:43:41.000Z</time>
      </trkpt>
      <trkpt lat="54.672560" lon="9.437738">
        <ele>99.042397</ele>
        <time>2021-07-22T11:43:42.000Z</time>
      </trkpt>
      <trkpt lat="54.672578" lon="9.437969">
        <ele>99.001302</ele>
        <time>2021-07-22T11:43:51.000Z</time>
      </trkpt>
      <trkpt lat="54.672584" lon="9.438029">
        <ele>98.990566</ele>
        <time>2021-07-22T11:43:53.000Z</time>
      </trkpt>
      <trkpt lat="54.672592" lon="9.438085">
        <ele>98.980396</ele>
        <time>2021-07-22T11:43:55.000Z</time>
      </trkpt>
      <trkpt lat="54.672593" lon="9.438243">
        <ele>98.952537</ele>
        <time>2021-07-22T11:44:01.000Z</time>
      </trkpt>
      <trkpt lat="54.672595" lon="9.438415">
        <ele>98.922206</ele>
        <time>2021-07-22T11:44:08.000Z</time>
      </trkpt>
      <trkpt lat="54.672598" lon="9.438444">
        <ele>98.917012</ele>
        <time>2021-07-22T11:44:09.000Z</time>
      </trkpt>
      <trkpt lat="54.672592" lon="9.438663">
        <ele>98.878357</ele>
        <time>2021-07-22T11:44:17.000Z</time>
      </trkpt>
      <trkpt lat="54.672600" lon="9.438856">
        <ele>98.844242</ele>
        <time>2021-07-22T11:44:25.000Z</time>
      </trkpt>
      <trkpt lat="54.672606" lon="9.438923">
        <ele>98.832288</ele>
        <time>2021-07-22T11:44:28.000Z</time>
      </trkpt>
      <trkpt lat="54.672599" lon="9.439068">
        <ele>98.806635</ele>
        <time>2021-07-22T11:44:33.000Z</time>
      </trkpt>
      <trkpt lat="54.672630" lon="9.439277">
        <ele>98.768593</ele>
        <time>2021-07-22T11:44:40.000Z</time>
      </trkpt>
      <trkpt lat="54.672679" lon="9.439461">
        <ele>98.732877</ele>
        <time>2021-07-22T11:44:48.000Z</time>
      </trkpt>
      <trkpt lat="54.672691" lon="9.439613">
        <ele>98.705830</ele>
        <time>2021-07-22T11:44:53.000Z</time>
      </trkpt>
      <trkpt lat="54.672709" lon="9.439699">
        <ele>98.689704</ele>
        <time>2021-07-22T11:44:56.000Z</time>
      </trkpt>
      <trkpt lat="54.672714" lon="9.439722">
        <ele>98.685372</ele>
        <time>2021-07-22T11:44:57.000Z</time>
      </trkpt>
      <trkpt lat="54.672725" lon="9.439869">
        <ele>98.659239</ele>
        <time>2021-07-22T11:45:02.000Z</time>
      </trkpt>
      <trkpt lat="54.672724" lon="9.439917">
        <ele>98.650770</ele>
        <time>2021-07-22T11:45:04.000Z</time>
      </trkpt>
      <trkpt lat="54.672721" lon="9.439995">
        <ele>98.573765</ele>
        <time>2021-07-22T11:45:08.000Z</time>
      </trkpt>
      <trkpt lat="54.672733" lon="9.440018">
        <ele>98.540560</ele>
        <time>2021-07-22T11:45:09.000Z</time>
      </trkpt>
      <trkpt lat="54.672736" lon="9.440102">
        <ele>98.450349</ele>
        <time>2021-07-22T11:45:12.000Z</time>
      </trkpt>
      <trkpt lat="54.672726" lon="9.440221">
        <ele>98.321453</ele>
        <time>2021-07-22T11:45:16.000Z</time>
      </trkpt>
      <trkpt lat="54.672733" lon="9.440316">
        <ele>98.218800</ele>
        <time>2021-07-22T11:45:20.000Z</time>
      </trkpt>
      <trkpt lat="54.672774" lon="9.440387">
        <ele>98.111244</ele>
        <time>2021-07-22T11:45:24.000Z</time>
      </trkpt>
      <trkpt lat="54.672909" lon="9.440354">
        <ele>97.858507</ele>
        <time>2021-07-22T11:45:30.000Z</time>
      </trkpt>
      <trkpt lat="54.672997" lon="9.440319">
        <ele>97.691122</ele>
        <time>2021-07-22T11:45:35.000Z</time>
      </trkpt>
      <trkpt lat="54.673092" lon="9.440262">
        <ele>97.504723</ele>
        <time>2021-07-22T11:45:42.000Z</time>
      </trkpt>
      <trkpt lat="54.673198" lon="9.440181">
        <ele>97.289903</ele>
        <time>2021-07-22T11:45:50.000Z</time>
      </trkpt>
      <trkpt lat="54.673297" lon="9.440120">
        <ele>97.095087</ele>
        <time>2021-07-22T11:45:57.000Z</time>
      </trkpt>
      <trkpt lat="54.673323" lon="9.440089">
        <ele>97.036546</ele>
        <time>2021-07-22T11:45:59.000Z</time>
      </trkpt>
      <trkpt lat="54.673442" lon="9.439997">
        <ele>96.794917</ele>
        <time>2021-07-22T11:46:08.000Z</time>
      </trkpt>
      <trkpt lat="54.673539" lon="9.439886">
        <ele>96.579308</ele>
        <time>2021-07-22T11:46:15.000Z</time>
      </trkpt>
      <trkpt lat="54.673633" lon="9.439804">
        <ele>96.384147</ele>
        <time>2021-07-22T11:46:22.000Z</time>
      </trkpt>
      <trkpt lat="54.673737" lon="9.439736">
        <ele>96.178044</ele>
        <time>2021-07-22T11:46:29.000Z</time>
      </trkpt>
      <trkpt lat="54.673855" lon="9.439622">
        <ele>95.927490</ele>
        <time>2021-07-22T11:46:37.000Z</time>
      </trkpt>
      <trkpt lat="54.673951" lon="9.439553">
        <ele>95.734778</ele>
        <time>2021-07-22T11:46:42.000Z</time>
      </trkpt>
      <trkpt lat="54.673995" lon="9.439517">
        <ele>95.644548</ele>
        <time>2021-07-22T11:46:45.000Z</time>
      </trkpt>
      <trkpt lat="54.674117" lon="9.439392">
        <ele>95.381687</ele>
        <time>2021-07-22T11:46:54.000Z</time>
      </trkpt>
      <trkpt lat="54.674179" lon="9.439251">
        <ele>95.322882</ele>
        <time>2021-07-22T11:46:59.000Z</time>
      </trkpt>
      <trkpt lat="54.674209" lon="9.439169">
        <ele>95.329283</ele>
        <time>2021-07-22T11:47:02.000Z</time>
      </trkpt>
      <trkpt lat="54.674213" lon="9.439146">
        <ele>95.330867</ele>
        <time>2021-07-22T11:47:03.000Z</time>
      </trkpt>
      <trkpt lat="54.674243" lon="9.439085">
        <ele>95.336149</ele>
        <time>2021-07-22T11:47:07.000Z</time>
      </trkpt>
      <trkpt lat="54.674305" lon="9.438983">
        <ele>95.345911</ele>
        <time>2021-07-22T11:47:13.000Z</time>
      </trkpt>
      <trkpt lat="54.674315" lon="9.438969">
        <ele>95.347379</ele>
        <time>2021-07-22T11:47:14.000Z</time>
      </trkpt>
      <trkpt lat="54.674376" lon="9.438889">
        <ele>95.356112</ele>
        <time>2021-07-22T11:47:19.000Z</time>
      </trkpt>
      <trkpt lat="54.674383" lon="9.438817">
        <ele>95.360928</ele>
        <time>2021-07-22T11:47:21.000Z</time>
      </trkpt>
      <trkpt lat="54.674467" lon="9.438707">
        <ele>95.372948</ele>
        <time>2021-07-22T11:47:27.000Z</time>
      </trkpt>
      <trkpt lat="54.674487" lon="9.438696">
        <ele>95.375342</ele>
        <time>2021-07-22T11:47:28.000Z</time>
      </trkpt>
      <trkpt lat="54.674531" lon="9.438657">
        <ele>95.380982</ele>
        <time>2021-07-22T11:47:31.000Z</time>
      </trkpt>
      <trkpt lat="54.674556" lon="9.438630">
        <ele>95.384344</ele>
        <time>2021-07-22T11:47:33.000Z</time>
      </trkpt>
      <trkpt lat="54.674581" lon="9.438573">
        <ele>95.389064</ele>
        <time>2021-07-22T11:47:36.000Z</time>
      </trkpt>
      <trkpt lat="54.674666" lon="9.438409">
        <ele>95.403591</ele>
        <time>2021-07-22T11:47:44.000Z</time>
      </trkpt>
      <trkpt lat="54.674725" lon="9.438287">
        <ele>95.414082</ele>
        <time>2021-07-22T11:47:49.000Z</time>
      </trkpt>
      <trkpt lat="54.674746" lon="9.438243">
        <ele>95.417845</ele>
        <time>2021-07-22T11:47:51.000Z</time>
      </trkpt>
      <trkpt lat="54.674785" lon="9.438125">
        <ele>95.426811</ele>
        <time>2021-07-22T11:47:55.000Z</time>
      </trkpt>
      <trkpt lat="54.674788" lon="9.438056">
        <ele>95.431375</ele>
        <time>2021-07-22T11:47:58.000Z</time>
      </trkpt>
      <trkpt lat="54.674788" lon="9.437991">
        <ele>95.435662</ele>
        <time>2021-07-22T11:48:01.000Z</time>
      </trkpt>
      <trkpt lat="54.674780" lon="9.437933">
        <ele>95.439595</ele>
        <time>2021-07-22T11:48:04.000Z</time>
      </trkpt>
      <trkpt lat="54.674776" lon="9.437909">
        <ele>95.441243</ele>
        <time>2021-07-22T11:48:05.000Z</time>
      </trkpt>
      <trkpt lat="54.674777" lon="9.437838">
        <ele>95.445928</ele>
        <time>2021-07-22T11:48:09.000Z</time>
      </trkpt>
      <trkpt lat="54.674771" lon="9.437768">
        <ele>95.450595</ele>
        <time>2021-07-22T11:48:12.000Z</time>
      </trkpt>
      <trkpt lat="54.674775" lon="9.437701">
        <ele>95.455038</ele>
        <time>2021-07-22T11:48:15.000Z</time>
      </trkpt>
      <trkpt lat="54.674776" lon="9.437679">
        <ele>95.456494</ele>
        <time>2021-07-22T11:48:16.000Z</time>
      </trkpt>
      <trkpt lat="54.674774" lon="9.437634">
        <ele>95.459471</ele>
        <time>2021-07-22T11:48:18.000Z</time>
      </trkpt>
      <trkpt lat="54.674777" lon="9.437605">
        <ele>95.461414</ele>
        <time>2021-07-22T11:48:19.000Z</time>
      </trkpt>
      <trkpt lat="54.674783" lon="9.437545">
        <ele>95.465431</ele>
        <time>2021-07-22T11:48:21.000Z</time>
      </trkpt>
      <trkpt lat="54.674754" lon="9.437430">
        <ele>95.473706</ele>
        <time>2021-07-22T11:48:24.000Z</time>
      </trkpt>
      <trkpt lat="54.674744" lon="9.437344">
        <ele>95.479493</ele>
        <time>2021-07-22T11:48:27.000Z</time>
      </trkpt>
      <trkpt lat="54.674696" lon="9.437204">
        <ele>95.490229</ele>
        <time>2021-07-22T11:48:31.000Z</time>
      </trkpt>
      <trkpt lat="54.674678" lon="9.437149">
        <ele>95.494397</ele>
        <time>2021-07-22T11:48:33.000Z</time>
      </trkpt>
      <trkpt lat="54.674683" lon="9.437013">
        <ele>95.503386</ele>
        <time>2021-07-22T11:48:39.000Z</time>
      </trkpt>
      <trkpt lat="54.674677" lon="9.436883">
        <ele>95.511988</ele>
        <time>2021-07-22T11:48:44.000Z</time>
      </trkpt>
      <trkpt lat="54.674668" lon="9.436828">
        <ele>95.515759</ele>
        <time>2021-07-22T11:48:46.000Z</time>
      </trkpt>
      <trkpt lat="54.674665" lon="9.436660">
        <ele>95.518624</ele>
        <time>2021-07-22T11:48:52.000Z</time>
      </trkpt>
      <trkpt lat="54.674658" lon="9.436472">
        <ele>95.515027</ele>
        <time>2021-07-22T11:48:59.000Z</time>
      </trkpt>
      <trkpt lat="54.674629" lon="9.436276">
        <ele>95.511165</ele>
        <time>2021-07-22T11:49:07.000Z</time>
      </trkpt>
      <trkpt lat="54.674632" lon="9.436114">
        <ele>95.508072</ele>
        <time>2021-07-22T11:49:12.000Z</time>
      </trkpt>
      <trkpt lat="54.674639" lon="9.436016">
        <ele>95.506187</ele>
        <time>2021-07-22T11:49:16.000Z</time>
      </trkpt>
      <trkpt lat="54.674630" lon="9.435955">
        <ele>95.504985</ele>
        <time>2021-07-22T11:49:18.000Z</time>
      </trkpt>
      <trkpt lat="54.674625" lon="9.435932">
        <ele>95.504516</ele>
        <time>2021-07-22T11:49:19.000Z</time>
      </trkpt>
      <trkpt lat="54.674612" lon="9.435835">
        <ele>95.502615</ele>
        <time>2021-07-22T11:49:23.000Z</time>
      </trkpt>
      <trkpt lat="54.674587" lon="9.435659">
        <ele>95.499156</ele>
        <time>2021-07-22T11:49:30.000Z</time>
      </trkpt>
      <trkpt lat="54.674574" lon="9.435459">
        <ele>95.495314</ele>
        <time>2021-07-22T11:49:36.000Z</time>
      </trkpt>
      <trkpt lat="54.674571" lon="9.435427">
        <ele>95.494695</ele>
        <time>2021-07-22T11:49:37.000Z</time>
      </trkpt>
      <trkpt lat="54.674559" lon="9.435251">
        <ele>95.491312</ele>
        <time>2021-07-22T11:49:43.000Z</time>
      </trkpt>
      <trkpt lat="54.674545" lon="9.435069">
        <ele>95.487807</ele>
        <time>2021-07-22T11:49:49.000Z</time>
      </trkpt>
      <trkpt lat="54.674522" lon="9.434995">
        <ele>95.486204</ele>
        <time>2021-07-22T11:49:54.000Z</time>
      </trkpt>
      <trkpt lat="54.674514" lon="9.434978">
        <ele>95.485785</ele>
        <time>2021-07-22T11:49:56.000Z</time>
      </trkpt>
      <trkpt lat="54.674504" lon="9.434780">
        <ele>95.481991</ele>
        <time>2021-07-22T11:50:03.000Z</time>
      </trkpt>
      <trkpt lat="54.674503" lon="9.434681">
        <ele>95.480101</ele>
        <time>2021-07-22T11:50:06.000Z</time>
      </trkpt>
      <trkpt lat="54.674491" lon="9.434599">
        <ele>95.478487</ele>
        <time>2021-07-22T11:50:10.000Z</time>
      </trkpt>
      <trkpt lat="54.674487" lon="9.434571">
        <ele>95.477936</ele>
        <time>2021-07-22T11:50:12.000Z</time>
      </trkpt>
      <trkpt lat="54.674481" lon="9.434462">
        <ele>95.475846</ele>
        <time>2021-07-22T11:50:17.000Z</time>
      </trkpt>
      <trkpt lat="54.674483" lon="9.434401">
        <ele>95.474680</ele>
        <time>2021-07-22T11:50:20.000Z</time>
      </trkpt>
      <trkpt lat="54.674468" lon="9.434314">
        <ele>95.472947</ele>
        <time>2021-07-22T11:50:24.000Z</time>
      </trkpt>
      <trkpt lat="54.674462" lon="9.434288">
        <ele>95.472412</ele>
        <time>2021-07-22T11:50:25.000Z</time>
      </trkpt>
      <trkpt lat="54.674449" lon="9.434199">
        <ele>95.470660</ele>
        <time>2021-07-22T11:50:29.000Z</time>
      </trkpt>
      <trkpt lat="54.674435" lon="9.434074">
        <ele>95.468230</ele>
        <time>2021-07-22T11:50:33.000Z</time>
      </trkpt>
      <trkpt lat="54.674411" lon="9.433748">
        <ele>95.461957</ele>
        <time>2021-07-22T11:50:42.000Z</time>
      </trkpt>
      <trkpt lat="54.674427" lon="9.433626">
        <ele>95.302153</ele>
        <time>2021-07-22T11:50:46.000Z</time>
      </trkpt>
      <trkpt lat="54.674433" lon="9.433579">
        <ele>95.206206</ele>
        <time>2021-07-22T11:50:48.000Z</time>
      </trkpt>
      <trkpt lat="54.674433" lon="9.433505">
        <ele>95.058692</ele>
        <time>2021-07-22T11:50:51.000Z</time>
      </trkpt>
      <trkpt lat="54.674413" lon="9.433432">
        <ele>94.897664</ele>
        <time>2021-07-22T11:50:54.000Z</time>
      </trkpt>
      <trkpt lat="54.674408" lon="9.433404">
        <ele>94.839247</ele>
        <time>2021-07-22T11:50:55.000Z</time>
      </trkpt>
      <trkpt lat="54.674367" lon="9.433274">
        <ele>94.544060</ele>
        <time>2021-07-22T11:51:01.000Z</time>
      </trkpt>
      <trkpt lat="54.674386" lon="9.433172">
        <ele>94.330440</ele>
        <time>2021-07-22T11:51:06.000Z</time>
      </trkpt>
      <trkpt lat="54.674411" lon="9.433114">
        <ele>94.186232</ele>
        <time>2021-07-22T11:51:08.000Z</time>
      </trkpt>
      <trkpt lat="54.674415" lon="9.433087">
        <ele>94.130671</ele>
        <time>2021-07-22T11:51:09.000Z</time>
      </trkpt>
      <trkpt lat="54.674413" lon="9.432999">
        <ele>93.955114</ele>
        <time>2021-07-22T11:51:12.000Z</time>
      </trkpt>
      <trkpt lat="54.674422" lon="9.432947">
        <ele>93.846912</ele>
        <time>2021-07-22T11:51:14.000Z</time>
      </trkpt>
      <trkpt lat="54.674436" lon="9.432759">
        <ele>93.469053</ele>
        <time>2021-07-22T11:51:20.000Z</time>
      </trkpt>
      <trkpt lat="54.674419" lon="9.432567">
        <ele>93.081855</ele>
        <time>2021-07-22T11:51:26.000Z</time>
      </trkpt>
      <trkpt lat="54.674409" lon="9.432533">
        <ele>93.005814</ele>
        <time>2021-07-22T11:51:27.000Z</time>
      </trkpt>
      <trkpt lat="54.674374" lon="9.432345">
        <ele>92.612104</ele>
        <time>2021-07-22T11:51:34.000Z</time>
      </trkpt>
      <trkpt lat="54.674371" lon="9.432203">
        <ele>92.328849</ele>
        <time>2021-07-22T11:51:40.000Z</time>
      </trkpt>
      <trkpt lat="54.674371" lon="9.432180">
        <ele>92.283000</ele>
        <time>2021-07-22T11:51:42.000Z</time>
      </trkpt>
      <trkpt lat="54.674369" lon="9.432075">
        <ele>92.073577</ele>
        <time>2021-07-22T11:51:46.000Z</time>
      </trkpt>
      <trkpt lat="54.674363" lon="9.432018">
        <ele>91.958084</ele>
        <time>2021-07-22T11:51:48.000Z</time>
      </trkpt>
      <trkpt lat="54.674368" lon="9.431964">
        <ele>91.849067</ele>
        <time>2021-07-22T11:51:50.000Z</time>
      </trkpt>
      <trkpt lat="54.674374" lon="9.431881">
        <ele>91.682325</ele>
        <time>2021-07-22T11:51:54.000Z</time>
      </trkpt>
      <trkpt lat="54.674377" lon="9.431778">
        <ele>91.476742</ele>
        <time>2021-07-22T11:51:59.000Z</time>
      </trkpt>
      <trkpt lat="54.674379" lon="9.431738">
        <ele>91.396707</ele>
        <time>2021-07-22T11:52:01.000Z</time>
      </trkpt>
      <trkpt lat="54.674378" lon="9.431689">
        <ele>91.298969</ele>
        <time>2021-07-22T11:52:03.000Z</time>
      </trkpt>
      <trkpt lat="54.674381" lon="9.431564">
        <ele>91.049576</ele>
        <time>2021-07-22T11:52:08.000Z</time>
      </trkpt>
      <trkpt lat="54.674399" lon="9.431372">
        <ele>90.661840</ele>
        <time>2021-07-22T11:52:15.000Z</time>
      </trkpt>
      <trkpt lat="54.674401" lon="9.431340">
        <ele>90.597679</ele>
        <time>2021-07-22T11:52:16.000Z</time>
      </trkpt>
      <trkpt lat="54.674398" lon="9.431213">
        <ele>90.344303</ele>
        <time>2021-07-22T11:52:21.000Z</time>
      </trkpt>
      <trkpt lat="54.674403" lon="9.431196">
        <ele>90.306282</ele>
        <time>2021-07-22T11:52:22.000Z</time>
      </trkpt>
      <trkpt lat="54.674400" lon="9.431127">
        <ele>90.168348</ele>
        <time>2021-07-22T11:52:26.000Z</time>
      </trkpt>
      <trkpt lat="54.674412" lon="9.431073">
        <ele>90.053027</ele>
        <time>2021-07-22T11:52:28.000Z</time>
      </trkpt>
      <trkpt lat="54.674478" lon="9.430852">
        <ele>89.557191</ele>
        <time>2021-07-22T11:52:35.000Z</time>
      </trkpt>
      <trkpt lat="54.674489" lon="9.430828">
        <ele>89.496142</ele>
        <time>2021-07-22T11:52:36.000Z</time>
      </trkpt>
      <trkpt lat="54.674509" lon="9.430771">
        <ele>89.363233</ele>
        <time>2021-07-22T11:52:39.000Z</time>
      </trkpt>
      <trkpt lat="54.674517" lon="9.430738">
        <ele>89.291902</ele>
        <time>2021-07-22T11:52:41.000Z</time>
      </trkpt>
      <trkpt lat="54.674524" lon="9.430638">
        <ele>89.193405</ele>
        <time>2021-07-22T11:52:45.000Z</time>
      </trkpt>
      <trkpt lat="54.674510" lon="9.430524">
        <ele>89.101589</ele>
        <time>2021-07-22T11:52:49.000Z</time>
      </trkpt>
      <trkpt lat="54.674512" lon="9.430505">
        <ele>89.086374</ele>
        <time>2021-07-22T11:52:50.000Z</time>
      </trkpt>
      <trkpt lat="54.674513" lon="9.430497">
        <ele>89.079925</ele>
        <time>2021-07-22T11:52:51.000Z</time>
      </trkpt>
      <trkpt lat="54.674488" lon="9.430435">
        <ele>89.020376</ele>
        <time>2021-07-22T11:52:55.000Z</time>
      </trkpt>
      <trkpt lat="54.674485" lon="9.430422">
        <ele>89.009348</ele>
        <time>2021-07-22T11:52:56.000Z</time>
      </trkpt>
      <trkpt lat="54.674479" lon="9.430404">
        <ele>88.992980</ele>
        <time>2021-07-22T11:52:57.000Z</time>
      </trkpt>
      <trkpt lat="54.674467" lon="9.430369">
        <ele>88.960922</ele>
        <time>2021-07-22T11:52:59.000Z</time>
      </trkpt>
      <trkpt lat="54.674458" lon="9.430352">
        <ele>88.942763</ele>
        <time>2021-07-22T11:53:00.000Z</time>
      </trkpt>
      <trkpt lat="54.674440" lon="9.430309">
        <ele>88.900941</ele>
        <time>2021-07-22T11:53:02.000Z</time>
      </trkpt>
      <trkpt lat="54.674427" lon="9.430274">
        <ele>88.868168</ele>
        <time>2021-07-22T11:53:04.000Z</time>
      </trkpt>
      <trkpt lat="54.674403" lon="9.430222">
        <ele>88.815750</ele>
        <time>2021-07-22T11:53:07.000Z</time>
      </trkpt>
      <trkpt lat="54.674390" lon="9.430187">
        <ele>88.782977</ele>
        <time>2021-07-22T11:53:09.000Z</time>
      </trkpt>
      <trkpt lat="54.674368" lon="9.430133">
        <ele>88.730934</ele>
        <time>2021-07-22T11:53:12.000Z</time>
      </trkpt>
      <trkpt lat="54.674355" lon="9.430100">
        <ele>88.699475</ele>
        <time>2021-07-22T11:53:14.000Z</time>
      </trkpt>
      <trkpt lat="54.674343" lon="9.430077">
        <ele>88.675069</ele>
        <time>2021-07-22T11:53:15.000Z</time>
      </trkpt>
      <trkpt lat="54.674339" lon="9.430024">
        <ele>88.632959</ele>
        <time>2021-07-22T11:53:18.000Z</time>
      </trkpt>
      <trkpt lat="54.674334" lon="9.429993">
        <ele>88.607604</ele>
        <time>2021-07-22T11:53:19.000Z</time>
      </trkpt>
      <trkpt lat="54.674327" lon="9.429947">
        <ele>88.570129</ele>
        <time>2021-07-22T11:53:21.000Z</time>
      </trkpt>
      <trkpt lat="54.674280" lon="9.429748">
        <ele>88.400775</ele>
        <time>2021-07-22T11:53:28.000Z</time>
      </trkpt>
      <trkpt lat="54.674222" lon="9.429539">
        <ele>88.218135</ele>
        <time>2021-07-22T11:53:35.000Z</time>
      </trkpt>
      <trkpt lat="54.674182" lon="9.429372">
        <ele>88.075724</ele>
        <time>2021-07-22T11:53:41.000Z</time>
      </trkpt>
      <trkpt lat="54.674172" lon="9.429321">
        <ele>88.033297</ele>
        <time>2021-07-22T11:53:43.000Z</time>
      </trkpt>
      <trkpt lat="54.674136" lon="9.429156">
        <ele>87.894357</ele>
        <time>2021-07-22T11:53:49.000Z</time>
      </trkpt>
      <trkpt lat="54.674131" lon="9.429121">
        <ele>87.865954</ele>
        <time>2021-07-22T11:53:51.000Z</time>
      </trkpt>
      <trkpt lat="54.674120" lon="9.429066">
        <ele>87.820104</ele>
        <time>2021-07-22T11:53:54.000Z</time>
      </trkpt>
      <trkpt lat="54.674101" lon="9.429009">
        <ele>87.768269</ele>
        <time>2021-07-22T11:53:56.000Z</time>
      </trkpt>
      <trkpt lat="54.674099" lon="9.428857">
        <ele>87.648486</ele>
        <time>2021-07-22T11:54:03.000Z</time>
      </trkpt>
      <trkpt lat="54.674116" lon="9.428782">
        <ele>87.585020</ele>
        <time>2021-07-22T11:54:06.000Z</time>
      </trkpt>
      <trkpt lat="54.674133" lon="9.428689">
        <ele>87.508177</ele>
        <time>2021-07-22T11:54:10.000Z</time>
      </trkpt>
      <trkpt lat="54.674131" lon="9.428672">
        <ele>87.494509</ele>
        <time>2021-07-22T11:54:11.000Z</time>
      </trkpt>
      <trkpt lat="54.674128" lon="9.428628">
        <ele>87.459604</ele>
        <time>2021-07-22T11:54:13.000Z</time>
      </trkpt>
      <trkpt lat="54.674126" lon="9.428609">
        <ele>87.444389</ele>
        <time>2021-07-22T11:54:14.000Z</time>
      </trkpt>
      <trkpt lat="54.674114" lon="9.428508">
        <ele>87.363155</ele>
        <time>2021-07-22T11:54:18.000Z</time>
      </trkpt>
      <trkpt lat="54.674114" lon="9.428448">
        <ele>87.315884</ele>
        <time>2021-07-22T11:54:20.000Z</time>
      </trkpt>
      <trkpt lat="54.674109" lon="9.428378">
        <ele>87.260316</ele>
        <time>2021-07-22T11:54:23.000Z</time>
      </trkpt>
      <trkpt lat="54.674104" lon="9.428358">
        <ele>87.243150</ele>
        <time>2021-07-22T11:54:24.000Z</time>
      </trkpt>
      <trkpt lat="54.674092" lon="9.428313">
        <ele>87.204108</ele>
        <time>2021-07-22T11:54:26.000Z</time>
      </trkpt>
      <trkpt lat="54.674064" lon="9.428177">
        <ele>87.090373</ele>
        <time>2021-07-22T11:54:30.000Z</time>
      </trkpt>
      <trkpt lat="54.674055" lon="9.428148">
        <ele>87.064442</ele>
        <time>2021-07-22T11:54:31.000Z</time>
      </trkpt>
      <trkpt lat="54.674052" lon="9.428112">
        <ele>87.035787</ele>
        <time>2021-07-22T11:54:33.000Z</time>
      </trkpt>
      <trkpt lat="54.674032" lon="9.428026">
        <ele>86.962758</ele>
        <time>2021-07-22T11:54:37.000Z</time>
      </trkpt>
      <trkpt lat="54.674025" lon="9.427941">
        <ele>86.895115</ele>
        <time>2021-07-22T11:54:41.000Z</time>
      </trkpt>
      <trkpt lat="54.673990" lon="9.427864">
        <ele>86.817952</ele>
        <time>2021-07-22T11:54:44.000Z</time>
      </trkpt>
      <trkpt lat="54.673983" lon="9.427839">
        <ele>86.809977</ele>
        <time>2021-07-22T11:54:45.000Z</time>
      </trkpt>
      <trkpt lat="54.673978" lon="9.427744">
        <ele>86.812186</ele>
        <time>2021-07-22T11:54:49.000Z</time>
      </trkpt>
      <trkpt lat="54.673970" lon="9.427704">
        <ele>86.813165</ele>
        <time>2021-07-22T11:54:51.000Z</time>
      </trkpt>
      <trkpt lat="54.673952" lon="9.427666">
        <ele>86.814303</ele>
        <time>2021-07-22T11:54:53.000Z</time>
      </trkpt>
      <trkpt lat="54.673899" lon="9.427583">
        <ele>86.817165</ele>
        <time>2021-07-22T11:54:57.000Z</time>
      </trkpt>
      <trkpt lat="54.673793" lon="9.427453">
        <ele>86.822368</ele>
        <time>2021-07-22T11:55:04.000Z</time>
      </trkpt>
      <trkpt lat="54.673769" lon="9.427427">
        <ele>86.823502</ele>
        <time>2021-07-22T11:55:06.000Z</time>
      </trkpt>
      <trkpt lat="54.673730" lon="9.427389">
        <ele>86.825294</ele>
        <time>2021-07-22T11:55:10.000Z</time>
      </trkpt>
      <trkpt lat="54.673658" lon="9.427322">
        <ele>86.828568</ele>
        <time>2021-07-22T11:55:16.000Z</time>
      </trkpt>
      <trkpt lat="54.673640" lon="9.427305">
        <ele>86.829389</ele>
        <time>2021-07-22T11:55:18.000Z</time>
      </trkpt>
      <trkpt lat="54.673592" lon="9.427250">
        <ele>86.831694</ele>
        <time>2021-07-22T11:55:23.000Z</time>
      </trkpt>
      <trkpt lat="54.673582" lon="9.427246">
        <ele>86.832105</ele>
        <time>2021-07-22T11:55:24.000Z</time>
      </trkpt>
      <trkpt lat="54.673574" lon="9.427244">
        <ele>86.832429</ele>
        <time>2021-07-22T11:55:25.000Z</time>
      </trkpt>
      <trkpt lat="54.673568" lon="9.427238">
        <ele>86.832706</ele>
        <time>2021-07-22T11:55:26.000Z</time>
      </trkpt>
      <trkpt lat="54.673521" lon="9.427216">
        <ele>86.834656</ele>
        <time>2021-07-22T11:55:31.000Z</time>
      </trkpt>
      <trkpt lat="54.673513" lon="9.427212">
        <ele>86.834989</ele>
        <time>2021-07-22T11:55:32.000Z</time>
      </trkpt>
      <trkpt lat="54.673493" lon="9.427202">
        <ele>86.835823</ele>
        <time>2021-07-22T11:55:33.000Z</time>
      </trkpt>
      <trkpt lat="54.673365" lon="9.427142">
        <ele>86.841133</ele>
        <time>2021-07-22T11:55:39.000Z</time>
      </trkpt>
      <trkpt lat="54.673261" lon="9.427080">
        <ele>86.845537</ele>
        <time>2021-07-22T11:55:46.000Z</time>
      </trkpt>
      <trkpt lat="54.673224" lon="9.427064">
        <ele>86.847064</ele>
        <time>2021-07-22T11:55:49.000Z</time>
      </trkpt>
      <trkpt lat="54.673186" lon="9.427049">
        <ele>86.848624</ele>
        <time>2021-07-22T11:55:53.000Z</time>
      </trkpt>
      <trkpt lat="54.673177" lon="9.427044">
        <ele>86.849003</ele>
        <time>2021-07-22T11:55:54.000Z</time>
      </trkpt>
      <trkpt lat="54.673111" lon="9.427013">
        <ele>86.851741</ele>
        <time>2021-07-22T11:56:01.000Z</time>
      </trkpt>
      <trkpt lat="54.673100" lon="9.427004">
        <ele>86.852228</ele>
        <time>2021-07-22T11:56:02.000Z</time>
      </trkpt>
      <trkpt lat="54.673072" lon="9.426980">
        <ele>86.853480</ele>
        <time>2021-07-22T11:56:05.000Z</time>
      </trkpt>
      <trkpt lat="54.673045" lon="9.426949">
        <ele>86.854777</ele>
        <time>2021-07-22T11:56:08.000Z</time>
      </trkpt>
      <trkpt lat="54.673030" lon="9.426933">
        <ele>86.855483</ele>
        <time>2021-07-22T11:56:10.000Z</time>
      </trkpt>
      <trkpt lat="54.673002" lon="9.426906">
        <ele>86.856766</ele>
        <time>2021-07-22T11:56:13.000Z</time>
      </trkpt>
      <trkpt lat="54.672980" lon="9.426900">
        <ele>86.857658</ele>
        <time>2021-07-22T11:56:15.000Z</time>
      </trkpt>
      <trkpt lat="54.672957" lon="9.426891">
        <ele>86.858602</ele>
        <time>2021-07-22T11:56:16.000Z</time>
      </trkpt>
      <trkpt lat="54.672926" lon="9.426876">
        <ele>86.859891</ele>
        <time>2021-07-22T11:56:18.000Z</time>
      </trkpt>
      <trkpt lat="54.672896" lon="9.426855">
        <ele>86.861187</ele>
        <time>2021-07-22T11:56:20.000Z</time>
      </trkpt>
      <trkpt lat="54.672867" lon="9.426842">
        <ele>86.862386</ele>
        <time>2021-07-22T11:56:22.000Z</time>
      </trkpt>
      <trkpt lat="54.672836" lon="9.426833">
        <ele>86.863645</ele>
        <time>2021-07-22T11:56:23.000Z</time>
      </trkpt>
      <trkpt lat="54.672727" lon="9.426792">
        <ele>86.868111</ele>
        <time>2021-07-22T11:56:29.000Z</time>
      </trkpt>
      <trkpt lat="54.672694" lon="9.426767">
        <ele>86.869553</ele>
        <time>2021-07-22T11:56:31.000Z</time>
      </trkpt>
      <trkpt lat="54.672657" lon="9.426738">
        <ele>86.871180</ele>
        <time>2021-07-22T11:56:33.000Z</time>
      </trkpt>
      <trkpt lat="54.672641" lon="9.426690">
        <ele>86.872462</ele>
        <time>2021-07-22T11:56:35.000Z</time>
      </trkpt>
      <trkpt lat="54.672620" lon="9.426636">
        <ele>86.873969</ele>
        <time>2021-07-22T11:56:37.000Z</time>
      </trkpt>
      <trkpt lat="54.672582" lon="9.426472">
        <ele>86.878059</ele>
        <time>2021-07-22T11:56:43.000Z</time>
      </trkpt>
      <trkpt lat="54.672542" lon="9.426265">
        <ele>86.890613</ele>
        <time>2021-07-22T11:56:49.000Z</time>
      </trkpt>
      <trkpt lat="54.672534" lon="9.426160">
        <ele>86.905171</ele>
        <time>2021-07-22T11:56:52.000Z</time>
      </trkpt>
      <trkpt lat="54.672552" lon="9.426059">
        <ele>86.919700</ele>
        <time>2021-07-22T11:56:56.000Z</time>
      </trkpt>
      <trkpt lat="54.672603" lon="9.425957">
        <ele>86.938237</ele>
        <time>2021-07-22T11:57:00.000Z</time>
      </trkpt>
      <trkpt lat="54.672629" lon="9.425915">
        <ele>86.946695</ele>
        <time>2021-07-22T11:57:02.000Z</time>
      </trkpt>
      <trkpt lat="54.672693" lon="9.425753">
        <ele>86.973666</ele>
        <time>2021-07-22T11:57:09.000Z</time>
      </trkpt>
      <trkpt lat="54.672704" lon="9.425565">
        <ele>86.999642</ele>
        <time>2021-07-22T11:57:15.000Z</time>
      </trkpt>
      <trkpt lat="54.672705" lon="9.425541">
        <ele>87.002950</ele>
        <time>2021-07-22T11:57:16.000Z</time>
      </trkpt>
      <trkpt lat="54.672675" lon="9.425378">
        <ele>87.026465</ele>
        <time>2021-07-22T11:57:22.000Z</time>
      </trkpt>
      <trkpt lat="54.672666" lon="9.425344">
        <ele>87.031605</ele>
        <time>2021-07-22T11:57:23.000Z</time>
      </trkpt>
      <trkpt lat="54.672638" lon="9.425228">
        <ele>87.048885</ele>
        <time>2021-07-22T11:57:29.000Z</time>
      </trkpt>
      <trkpt lat="54.672627" lon="9.425173">
        <ele>87.056886</ele>
        <time>2021-07-22T11:57:32.000Z</time>
      </trkpt>
      <trkpt lat="54.672643" lon="9.424996">
        <ele>87.081513</ele>
        <time>2021-07-22T11:57:37.000Z</time>
      </trkpt>
      <trkpt lat="54.672637" lon="9.424898">
        <ele>87.095060</ele>
        <time>2021-07-22T11:57:40.000Z</time>
      </trkpt>
      <trkpt lat="54.672640" lon="9.424825">
        <ele>87.105121</ele>
        <time>2021-07-22T11:57:43.000Z</time>
      </trkpt>
      <trkpt lat="54.672623" lon="9.424778">
        <ele>87.112742</ele>
        <time>2021-07-22T11:57:45.000Z</time>
      </trkpt>
      <trkpt lat="54.672656" lon="9.424657">
        <ele>87.131133</ele>
        <time>2021-07-22T11:57:50.000Z</time>
      </trkpt>
      <trkpt lat="54.672657" lon="9.424633">
        <ele>87.134440</ele>
        <time>2021-07-22T11:57:51.000Z</time>
      </trkpt>
      <trkpt lat="54.672657" lon="9.424545">
        <ele>87.146538</ele>
        <time>2021-07-22T11:57:54.000Z</time>
      </trkpt>
      <trkpt lat="54.672670" lon="9.424484">
        <ele>87.155475</ele>
        <time>2021-07-22T11:57:56.000Z</time>
      </trkpt>
      <trkpt lat="54.672696" lon="9.424375">
        <ele>87.171683</ele>
        <time>2021-07-22T11:58:01.000Z</time>
      </trkpt>
      <trkpt lat="54.672703" lon="9.424349">
        <ele>87.175626</ele>
        <time>2021-07-22T11:58:03.000Z</time>
      </trkpt>
      <trkpt lat="54.672711" lon="9.424325">
        <ele>87.179434</ele>
        <time>2021-07-22T11:58:04.000Z</time>
      </trkpt>
      <trkpt lat="54.672708" lon="9.424200">
        <ele>87.196632</ele>
        <time>2021-07-22T11:58:09.000Z</time>
      </trkpt>
      <trkpt lat="54.672713" lon="9.424184">
        <ele>87.199133</ele>
        <time>2021-07-22T11:58:10.000Z</time>
      </trkpt>
      <trkpt lat="54.672719" lon="9.424171">
        <ele>87.201419</ele>
        <time>2021-07-22T11:58:11.000Z</time>
      </trkpt>
      <trkpt lat="54.672721" lon="9.424151">
        <ele>87.204209</ele>
        <time>2021-07-22T11:58:13.000Z</time>
      </trkpt>
      <trkpt lat="54.672731" lon="9.424137">
        <ele>87.207268</ele>
        <time>2021-07-22T11:58:15.000Z</time>
      </trkpt>
      <trkpt lat="54.672741" lon="9.424131">
        <ele>87.209784</ele>
        <time>2021-07-22T11:58:16.000Z</time>
      </trkpt>
      <trkpt lat="54.672761" lon="9.424059">
        <ele>87.220765</ele>
        <time>2021-07-22T11:58:19.000Z</time>
      </trkpt>
      <trkpt lat="54.672756" lon="9.424040">
        <ele>87.223634</ele>
        <time>2021-07-22T11:58:24.000Z</time>
      </trkpt>
      <trkpt lat="54.672759" lon="9.424003">
        <ele>87.228771</ele>
        <time>2021-07-22T11:58:27.000Z</time>
      </trkpt>
      <trkpt lat="54.672783" lon="9.423978">
        <ele>87.235431</ele>
        <time>2021-07-22T11:58:32.000Z</time>
      </trkpt>
      <trkpt lat="54.672783" lon="9.423969">
        <ele>87.236668</ele>
        <time>2021-07-22T11:58:33.000Z</time>
      </trkpt>
      <trkpt lat="54.672785" lon="9.423961">
        <ele>87.237867</ele>
        <time>2021-07-22T11:58:34.000Z</time>
      </trkpt>
      <trkpt lat="54.672796" lon="9.423943">
        <ele>87.241467</ele>
        <time>2021-07-22T11:58:36.000Z</time>
      </trkpt>
      <trkpt lat="54.672816" lon="9.423919">
        <ele>87.247254</ele>
        <time>2021-07-22T11:58:40.000Z</time>
      </trkpt>
      <trkpt lat="54.672848" lon="9.423902">
        <ele>87.255212</ele>
        <time>2021-07-22T11:58:41.000Z</time>
      </trkpt>
      <trkpt lat="54.672889" lon="9.423867">
        <ele>87.266082</ele>
        <time>2021-07-22T11:58:46.000Z</time>
      </trkpt>
      <trkpt lat="54.672896" lon="9.423836">
        <ele>87.270657</ele>
        <time>2021-07-22T11:58:48.000Z</time>
      </trkpt>
      <trkpt lat="54.672894" lon="9.423813">
        <ele>87.273854</ele>
        <time>2021-07-22T11:58:49.000Z</time>
      </trkpt>
      <trkpt lat="54.672911" lon="9.423787">
        <ele>87.279250</ele>
        <time>2021-07-22T11:58:50.000Z</time>
      </trkpt>
      <trkpt lat="54.672913" lon="9.423777">
        <ele>87.280704</ele>
        <time>2021-07-22T11:58:51.000Z</time>
      </trkpt>
      <trkpt lat="54.672939" lon="9.423729">
        <ele>87.289745</ele>
        <time>2021-07-22T11:58:53.000Z</time>
      </trkpt>
      <trkpt lat="54.672957" lon="9.423664">
        <ele>87.299653</ele>
        <time>2021-07-22T11:58:57.000Z</time>
      </trkpt>
      <trkpt lat="54.672957" lon="9.423648">
        <ele>87.301852</ele>
        <time>2021-07-22T11:58:58.000Z</time>
      </trkpt>
      <trkpt lat="54.672957" lon="9.423623">
        <ele>87.305289</ele>
        <time>2021-07-22T11:58:59.000Z</time>
      </trkpt>
      <trkpt lat="54.672952" lon="9.423573">
        <ele>87.343519</ele>
        <time>2021-07-22T11:59:01.000Z</time>
      </trkpt>
      <trkpt lat="54.672945" lon="9.423522">
        <ele>87.423988</ele>
        <time>2021-07-22T11:59:04.000Z</time>
      </trkpt>
      <trkpt lat="54.672947" lon="9.423509">
        <ele>87.444640</ele>
        <time>2021-07-22T11:59:05.000Z</time>
      </trkpt>
      <trkpt lat="54.672952" lon="9.423491">
        <ele>87.475296</ele>
        <time>2021-07-22T11:59:06.000Z</time>
      </trkpt>
      <trkpt lat="54.672984" lon="9.423456">
        <ele>87.575818</ele>
        <time>2021-07-22T11:59:10.000Z</time>
      </trkpt>
      <trkpt lat="54.672987" lon="9.423452">
        <ele>87.585875</ele>
        <time>2021-07-22T11:59:11.000Z</time>
      </trkpt>
      <trkpt lat="54.673059" lon="9.423338">
        <ele>87.845042</ele>
        <time>2021-07-22T11:59:19.000Z</time>
      </trkpt>
      <trkpt lat="54.673067" lon="9.423320">
        <ele>87.879895</ele>
        <time>2021-07-22T11:59:20.000Z</time>
      </trkpt>
      <trkpt lat="54.673106" lon="9.423230">
        <ele>88.052551</ele>
        <time>2021-07-22T11:59:26.000Z</time>
      </trkpt>
      <trkpt lat="54.673110" lon="9.423212">
        <ele>88.082155</ele>
        <time>2021-07-22T11:59:27.000Z</time>
      </trkpt>
      <trkpt lat="54.673123" lon="9.423159">
        <ele>88.170536</ele>
        <time>2021-07-22T11:59:29.000Z</time>
      </trkpt>
      <trkpt lat="54.673132" lon="9.423141">
        <ele>88.207067</ele>
        <time>2021-07-22T11:59:30.000Z</time>
      </trkpt>
      <trkpt lat="54.673179" lon="9.423063">
        <ele>88.380008</ele>
        <time>2021-07-22T11:59:34.000Z</time>
      </trkpt>
      <trkpt lat="54.673198" lon="9.423024">
        <ele>88.458296</ele>
        <time>2021-07-22T11:59:36.000Z</time>
      </trkpt>
      <trkpt lat="54.673233" lon="9.422911">
        <ele>88.655089</ele>
        <time>2021-07-22T11:59:42.000Z</time>
      </trkpt>
      <trkpt lat="54.673241" lon="9.422886">
        <ele>88.698953</ele>
        <time>2021-07-22T11:59:44.000Z</time>
      </trkpt>
      <trkpt lat="54.673258" lon="9.422847">
        <ele>88.773930</ele>
        <time>2021-07-22T11:59:46.000Z</time>
      </trkpt>
      <trkpt lat="54.673286" lon="9.422766">
        <ele>88.918804</ele>
        <time>2021-07-22T11:59:49.000Z</time>
      </trkpt>
      <trkpt lat="54.673369" lon="9.422582">
        <ele>89.277058</ele>
        <time>2021-07-22T11:59:58.000Z</time>
      </trkpt>
      <trkpt lat="54.673431" lon="9.422421">
        <ele>89.574013</ele>
        <time>2021-07-22T12:00:05.000Z</time>
      </trkpt>
      <trkpt lat="54.673454" lon="9.422264">
        <ele>89.822648</ele>
        <time>2021-07-22T12:00:11.000Z</time>
      </trkpt>
      <trkpt lat="54.673471" lon="9.422198">
        <ele>89.933566</ele>
        <time>2021-07-22T12:00:14.000Z</time>
      </trkpt>
      <trkpt lat="54.673483" lon="9.422151">
        <ele>90.012439</ele>
        <time>2021-07-22T12:00:16.000Z</time>
      </trkpt>
      <trkpt lat="54.673519" lon="9.422059">
        <ele>90.182973</ele>
        <time>2021-07-22T12:00:20.000Z</time>
      </trkpt>
      <trkpt lat="54.673529" lon="9.422021">
        <ele>90.247066</ele>
        <time>2021-07-22T12:00:22.000Z</time>
      </trkpt>
      <trkpt lat="54.673559" lon="9.421956">
        <ele>90.374740</ele>
        <time>2021-07-22T12:00:26.000Z</time>
      </trkpt>
      <trkpt lat="54.673562" lon="9.421937">
        <ele>90.404975</ele>
        <time>2021-07-22T12:00:27.000Z</time>
      </trkpt>
      <trkpt lat="54.673565" lon="9.421918">
        <ele>90.435211</ele>
        <time>2021-07-22T12:00:28.000Z</time>
      </trkpt>
      <trkpt lat="54.673571" lon="9.421892">
        <ele>90.478186</ele>
        <time>2021-07-22T12:00:29.000Z</time>
      </trkpt>
      <trkpt lat="54.673577" lon="9.421863">
        <ele>90.525470</ele>
        <time>2021-07-22T12:00:30.000Z</time>
      </trkpt>
      <trkpt lat="54.673628" lon="9.421758">
        <ele>90.735982</ele>
        <time>2021-07-22T12:00:35.000Z</time>
      </trkpt>
      <trkpt lat="54.673730" lon="9.421612">
        <ele>91.087503</ele>
        <time>2021-07-22T12:00:41.000Z</time>
      </trkpt>
      <trkpt lat="54.673765" lon="9.421550">
        <ele>91.220520</ele>
        <time>2021-07-22T12:00:46.000Z</time>
      </trkpt>
      <trkpt lat="54.673779" lon="9.421516">
        <ele>91.284596</ele>
        <time>2021-07-22T12:00:48.000Z</time>
      </trkpt>
      <trkpt lat="54.673797" lon="9.421493">
        <ele>91.344013</ele>
        <time>2021-07-22T12:00:49.000Z</time>
      </trkpt>
      <trkpt lat="54.673837" lon="9.421352">
        <ele>91.585116</ele>
        <time>2021-07-22T12:00:55.000Z</time>
      </trkpt>
      <trkpt lat="54.673843" lon="9.421316">
        <ele>91.642631</ele>
        <time>2021-07-22T12:00:56.000Z</time>
      </trkpt>
      <trkpt lat="54.673883" lon="9.421131">
        <ele>91.945837</ele>
        <time>2021-07-22T12:01:01.000Z</time>
      </trkpt>
      <trkpt lat="54.673887" lon="9.421106">
        <ele>91.985657</ele>
        <time>2021-07-22T12:01:02.000Z</time>
      </trkpt>
      <trkpt lat="54.673921" lon="9.420924">
        <ele>92.132780</ele>
        <time>2021-07-22T12:01:09.000Z</time>
      </trkpt>
      <trkpt lat="54.673929" lon="9.420881">
        <ele>92.149996</ele>
        <time>2021-07-22T12:01:11.000Z</time>
      </trkpt>
      <trkpt lat="54.673929" lon="9.420835">
        <ele>92.167528</ele>
        <time>2021-07-22T12:01:13.000Z</time>
      </trkpt>
      <trkpt lat="54.673946" lon="9.420697">
        <ele>92.221303</ele>
        <time>2021-07-22T12:01:17.000Z</time>
      </trkpt>
      <trkpt lat="54.673962" lon="9.420603">
        <ele>92.258649</ele>
        <time>2021-07-22T12:01:21.000Z</time>
      </trkpt>
      <trkpt lat="54.673982" lon="9.420484">
        <ele>92.305880</ele>
        <time>2021-07-22T12:01:25.000Z</time>
      </trkpt>
      <trkpt lat="54.673965" lon="9.420266">
        <ele>92.389718</ele>
        <time>2021-07-22T12:01:33.000Z</time>
      </trkpt>
      <trkpt lat="54.673963" lon="9.420237">
        <ele>92.400849</ele>
        <time>2021-07-22T12:01:34.000Z</time>
      </trkpt>
      <trkpt lat="54.673958" lon="9.420185">
        <ele>92.420940</ele>
        <time>2021-07-22T12:01:37.000Z</time>
      </trkpt>
      <trkpt lat="54.673961" lon="9.420155">
        <ele>92.432543</ele>
        <time>2021-07-22T12:01:39.000Z</time>
      </trkpt>
      <trkpt lat="54.673963" lon="9.420060">
        <ele>92.468774</ele>
        <time>2021-07-22T12:01:43.000Z</time>
      </trkpt>
      <trkpt lat="54.673956" lon="9.419947">
        <ele>92.512088</ele>
        <time>2021-07-22T12:01:47.000Z</time>
      </trkpt>
      <trkpt lat="54.673946" lon="9.419905">
        <ele>92.529399</ele>
        <time>2021-07-22T12:01:49.000Z</time>
      </trkpt>
      <trkpt lat="54.673934" lon="9.419818">
        <ele>92.563487</ele>
        <time>2021-07-22T12:01:52.000Z</time>
      </trkpt>
      <trkpt lat="54.673924" lon="9.419785">
        <ele>92.577687</ele>
        <time>2021-07-22T12:01:53.000Z</time>
      </trkpt>
      <trkpt lat="54.673893" lon="9.419594">
        <ele>92.653296</ele>
        <time>2021-07-22T12:02:00.000Z</time>
      </trkpt>
      <trkpt lat="54.673855" lon="9.419430">
        <ele>92.720632</ele>
        <time>2021-07-22T12:02:07.000Z</time>
      </trkpt>
      <trkpt lat="54.673817" lon="9.419306">
        <ele>92.774119</ele>
        <time>2021-07-22T12:02:12.000Z</time>
      </trkpt>
      <trkpt lat="54.673798" lon="9.419268">
        <ele>92.793265</ele>
        <time>2021-07-22T12:02:14.000Z</time>
      </trkpt>
      <trkpt lat="54.673719" lon="9.419059">
        <ele>92.888431</ele>
        <time>2021-07-22T12:02:20.000Z</time>
      </trkpt>
      <trkpt lat="54.673638" lon="9.418936">
        <ele>92.959480</ele>
        <time>2021-07-22T12:02:26.000Z</time>
      </trkpt>
      <trkpt lat="54.673593" lon="9.418858">
        <ele>93.001475</ele>
        <time>2021-07-22T12:02:30.000Z</time>
      </trkpt>
      <trkpt lat="54.673586" lon="9.418837">
        <ele>93.010713</ele>
        <time>2021-07-22T12:02:31.000Z</time>
      </trkpt>
      <trkpt lat="54.673564" lon="9.418779">
        <ele>93.037150</ele>
        <time>2021-07-22T12:02:33.000Z</time>
      </trkpt>
      <trkpt lat="54.673476" lon="9.418624">
        <ele>93.119941</ele>
        <time>2021-07-22T12:02:41.000Z</time>
      </trkpt>
      <trkpt lat="54.673407" lon="9.418535">
        <ele>93.176677</ele>
        <time>2021-07-22T12:02:47.000Z</time>
      </trkpt>
      <trkpt lat="54.673395" lon="9.418527">
        <ele>93.185154</ele>
        <time>2021-07-22T12:02:48.000Z</time>
      </trkpt>
      <trkpt lat="54.673331" lon="9.418474">
        <ele>93.231925</ele>
        <time>2021-07-22T12:02:53.000Z</time>
      </trkpt>
      <trkpt lat="54.673313" lon="9.418449">
        <ele>93.247142</ele>
        <time>2021-07-22T12:02:55.000Z</time>
      </trkpt>
      <trkpt lat="54.673305" lon="9.418441">
        <ele>93.253233</ele>
        <time>2021-07-22T12:02:56.000Z</time>
      </trkpt>
      <trkpt lat="54.673250" lon="9.418349">
        <ele>93.255856</ele>
        <time>2021-07-22T12:03:02.000Z</time>
      </trkpt>
      <trkpt lat="54.673143" lon="9.418142">
        <ele>93.211692</ele>
        <time>2021-07-22T12:03:10.000Z</time>
      </trkpt>
      <trkpt lat="54.673061" lon="9.417956">
        <ele>93.174489</ele>
        <time>2021-07-22T12:03:16.000Z</time>
      </trkpt>
      <trkpt lat="54.673017" lon="9.417823">
        <ele>93.150116</ele>
        <time>2021-07-22T12:03:21.000Z</time>
      </trkpt>
      <trkpt lat="54.673010" lon="9.417777">
        <ele>93.142550</ele>
        <time>2021-07-22T12:03:23.000Z</time>
      </trkpt>
      <trkpt lat="54.673003" lon="9.417760">
        <ele>93.139231</ele>
        <time>2021-07-22T12:03:24.000Z</time>
      </trkpt>
      <trkpt lat="54.672986" lon="9.417737">
        <ele>93.133293</ele>
        <time>2021-07-22T12:03:26.000Z</time>
      </trkpt>
      <trkpt lat="54.672973" lon="9.417679">
        <ele>93.123399</ele>
        <time>2021-07-22T12:03:29.000Z</time>
      </trkpt>
      <trkpt lat="54.672953" lon="9.417602">
        <ele>93.109972</ele>
        <time>2021-07-22T12:03:33.000Z</time>
      </trkpt>
      <trkpt lat="54.672938" lon="9.417546">
        <ele>93.100156</ele>
        <time>2021-07-22T12:03:35.000Z</time>
      </trkpt>
      <trkpt lat="54.672923" lon="9.417500">
        <ele>93.091756</ele>
        <time>2021-07-22T12:03:37.000Z</time>
      </trkpt>
      <trkpt lat="54.672912" lon="9.417464">
        <ele>93.085279</ele>
        <time>2021-07-22T12:03:39.000Z</time>
      </trkpt>
      <trkpt lat="54.672898" lon="9.417282">
        <ele>93.056075</ele>
        <time>2021-07-22T12:03:46.000Z</time>
      </trkpt>
      <trkpt lat="54.672898" lon="9.417193">
        <ele>93.041918</ele>
        <time>2021-07-22T12:03:49.000Z</time>
      </trkpt>
      <trkpt lat="54.672893" lon="9.417132">
        <ele>93.032118</ele>
        <time>2021-07-22T12:03:51.000Z</time>
      </trkpt>
      <trkpt lat="54.672882" lon="9.417112">
        <ele>93.027728</ele>
        <time>2021-07-22T12:03:52.000Z</time>
      </trkpt>
      <trkpt lat="54.672834" lon="9.416993">
        <ele>93.004649</ele>
        <time>2021-07-22T12:03:58.000Z</time>
      </trkpt>
      <trkpt lat="54.672828" lon="9.416976">
        <ele>93.001481</ele>
        <time>2021-07-22T12:03:59.000Z</time>
      </trkpt>
      <trkpt lat="54.672830" lon="9.416925">
        <ele>92.993351</ele>
        <time>2021-07-22T12:04:01.000Z</time>
      </trkpt>
      <trkpt lat="54.672820" lon="9.416885">
        <ele>92.986419</ele>
        <time>2021-07-22T12:04:03.000Z</time>
      </trkpt>
      <trkpt lat="54.672815" lon="9.416867">
        <ele>92.983243</ele>
        <time>2021-07-22T12:04:04.000Z</time>
      </trkpt>
      <trkpt lat="54.672808" lon="9.416849">
        <ele>92.979792</ele>
        <time>2021-07-22T12:04:05.000Z</time>
      </trkpt>
      <trkpt lat="54.672797" lon="9.416808">
        <ele>92.972603</ele>
        <time>2021-07-22T12:04:07.000Z</time>
      </trkpt>
      <trkpt lat="54.672784" lon="9.416737">
        <ele>92.960757</ele>
        <time>2021-07-22T12:04:10.000Z</time>
      </trkpt>
      <trkpt lat="54.672746" lon="9.416562">
        <ele>92.931023</ele>
        <time>2021-07-22T12:04:19.000Z</time>
      </trkpt>
      <trkpt lat="54.672708" lon="9.416432">
        <ele>92.907853</ele>
        <time>2021-07-22T12:04:25.000Z</time>
      </trkpt>
      <trkpt lat="54.672656" lon="9.416258">
        <ele>92.876698</ele>
        <time>2021-07-22T12:04:32.000Z</time>
      </trkpt>
      <trkpt lat="54.672602" lon="9.416107">
        <ele>92.848457</ele>
        <time>2021-07-22T12:04:37.000Z</time>
      </trkpt>
      <trkpt lat="54.672572" lon="9.416032">
        <ele>92.833952</ele>
        <time>2021-07-22T12:04:40.000Z</time>
      </trkpt>
      <trkpt lat="54.672530" lon="9.415853">
        <ele>92.803224</ele>
        <time>2021-07-22T12:04:47.000Z</time>
      </trkpt>
      <trkpt lat="54.672520" lon="9.415823">
        <ele>92.797717</ele>
        <time>2021-07-22T12:04:49.000Z</time>
      </trkpt>
      <trkpt lat="54.672489" lon="9.415740">
        <ele>92.782000</ele>
        <time>2021-07-22T12:04:53.000Z</time>
      </trkpt>
      <trkpt lat="54.672477" lon="9.415710">
        <ele>92.776197</ele>
        <time>2021-07-22T12:04:54.000Z</time>
      </trkpt>
      <trkpt lat="54.672404" lon="9.415587">
        <ele>92.730006</ele>
        <time>2021-07-22T12:05:00.000Z</time>
      </trkpt>
      <trkpt lat="54.672382" lon="9.415568">
        <ele>92.718694</ele>
        <time>2021-07-22T12:05:01.000Z</time>
      </trkpt>
      <trkpt lat="54.672238" lon="9.415429">
        <ele>92.642833</ele>
        <time>2021-07-22T12:05:08.000Z</time>
      </trkpt>
      <trkpt lat="54.672165" lon="9.415263">
        <ele>92.587359</ele>
        <time>2021-07-22T12:05:15.000Z</time>
      </trkpt>
      <trkpt lat="54.672122" lon="9.415148">
        <ele>92.550931</ele>
        <time>2021-07-22T12:05:20.000Z</time>
      </trkpt>
      <trkpt lat="54.672098" lon="9.415112">
        <ele>92.536317</ele>
        <time>2021-07-22T12:05:22.000Z</time>
      </trkpt>
      <trkpt lat="54.672011" lon="9.414981">
        <ele>92.483252</ele>
        <time>2021-07-22T12:05:29.000Z</time>
      </trkpt>
      <trkpt lat="54.671966" lon="9.414878">
        <ele>92.448913</ele>
        <time>2021-07-22T12:05:35.000Z</time>
      </trkpt>
      <trkpt lat="54.671885" lon="9.414737">
        <ele>92.396045</ele>
        <time>2021-07-22T12:05:43.000Z</time>
      </trkpt>
      <trkpt lat="54.671812" lon="9.414559">
        <ele>92.337998</ele>
        <time>2021-07-22T12:05:51.000Z</time>
      </trkpt>
      <trkpt lat="54.671747" lon="9.414423">
        <ele>92.291065</ele>
        <time>2021-07-22T12:05:58.000Z</time>
      </trkpt>
      <trkpt lat="54.671642" lon="9.414336">
        <ele>92.237506</ele>
        <time>2021-07-22T12:06:05.000Z</time>
      </trkpt>
      <trkpt lat="54.671629" lon="9.414317">
        <ele>92.229677</ele>
        <time>2021-07-22T12:06:06.000Z</time>
      </trkpt>
      <trkpt lat="54.671562" lon="9.414207">
        <ele>92.187179</ele>
        <time>2021-07-22T12:06:11.000Z</time>
      </trkpt>
      <trkpt lat="54.671463" lon="9.413996">
        <ele>92.114901</ele>
        <time>2021-07-22T12:06:19.000Z</time>
      </trkpt>
      <trkpt lat="54.671371" lon="9.413862">
        <ele>92.059570</ele>
        <time>2021-07-22T12:06:26.000Z</time>
      </trkpt>
      <trkpt lat="54.671295" lon="9.413751">
        <ele>92.013809</ele>
        <time>2021-07-22T12:06:32.000Z</time>
      </trkpt>
      <trkpt lat="54.671230" lon="9.413664">
        <ele>91.975999</ele>
        <time>2021-07-22T12:06:38.000Z</time>
      </trkpt>
      <trkpt lat="54.671187" lon="9.413597">
        <ele>91.949374</ele>
        <time>2021-07-22T12:06:43.000Z</time>
      </trkpt>
      <trkpt lat="54.671177" lon="9.413588">
        <ele>91.945932</ele>
        <time>2021-07-22T12:06:44.000Z</time>
      </trkpt>
      <trkpt lat="54.671135" lon="9.413504">
        <ele>91.930711</ele>
        <time>2021-07-22T12:06:48.000Z</time>
      </trkpt>
      <trkpt lat="54.671117" lon="9.413450">
        <ele>91.922168</ele>
        <time>2021-07-22T12:06:51.000Z</time>
      </trkpt>
      <trkpt lat="54.671027" lon="9.413305">
        <ele>91.893012</ele>
        <time>2021-07-22T12:06:57.000Z</time>
      </trkpt>
      <trkpt lat="54.670907" lon="9.413145">
        <ele>91.857096</ele>
        <time>2021-07-22T12:07:04.000Z</time>
      </trkpt>
      <trkpt lat="54.670831" lon="9.412924">
        <ele>91.821853</ele>
        <time>2021-07-22T12:07:12.000Z</time>
      </trkpt>
      <trkpt lat="54.670747" lon="9.412721">
        <ele>91.787639</ele>
        <time>2021-07-22T12:07:20.000Z</time>
      </trkpt>
      <trkpt lat="54.670733" lon="9.412667">
        <ele>91.779528</ele>
        <time>2021-07-22T12:07:22.000Z</time>
      </trkpt>
      <trkpt lat="54.670710" lon="9.412569">
        <ele>91.765031</ele>
        <time>2021-07-22T12:07:26.000Z</time>
      </trkpt>
      <trkpt lat="54.670683" lon="9.412499">
        <ele>91.753498</ele>
        <time>2021-07-22T12:07:29.000Z</time>
      </trkpt>
      <trkpt lat="54.670667" lon="9.412437">
        <ele>91.744192</ele>
        <time>2021-07-22T12:07:32.000Z</time>
      </trkpt>
      <trkpt lat="54.670618" lon="9.412380">
        <ele>91.730195</ele>
        <time>2021-07-22T12:07:37.000Z</time>
      </trkpt>
      <trkpt lat="54.670609" lon="9.412346">
        <ele>91.725069</ele>
        <time>2021-07-22T12:07:39.000Z</time>
      </trkpt>
      <trkpt lat="54.670603" lon="9.412122">
        <ele>91.694333</ele>
        <time>2021-07-22T12:07:47.000Z</time>
      </trkpt>
      <trkpt lat="54.670592" lon="9.411979">
        <ele>91.674560</ele>
        <time>2021-07-22T12:07:53.000Z</time>
      </trkpt>
      <trkpt lat="54.670611" lon="9.411828">
        <ele>91.653379</ele>
        <time>2021-07-22T12:08:00.000Z</time>
      </trkpt>
      <trkpt lat="54.670618" lon="9.411684">
        <ele>91.633572</ele>
        <time>2021-07-22T12:08:05.000Z</time>
      </trkpt>
      <trkpt lat="54.670621" lon="9.411653">
        <ele>91.629264</ele>
        <time>2021-07-22T12:08:06.000Z</time>
      </trkpt>
      <trkpt lat="54.670652" lon="9.411453">
        <ele>91.600883</ele>
        <time>2021-07-22T12:08:12.000Z</time>
      </trkpt>
      <trkpt lat="54.670660" lon="9.411374">
        <ele>91.589890</ele>
        <time>2021-07-22T12:08:15.000Z</time>
      </trkpt>
      <trkpt lat="54.670668" lon="9.411344">
        <ele>91.585362</ele>
        <time>2021-07-22T12:08:16.000Z</time>
      </trkpt>
      <trkpt lat="54.670671" lon="9.411280">
        <ele>91.576561</ele>
        <time>2021-07-22T12:08:18.000Z</time>
      </trkpt>
      <trkpt lat="54.670685" lon="9.411237">
        <ele>91.569797</ele>
        <time>2021-07-22T12:08:20.000Z</time>
      </trkpt>
      <trkpt lat="54.670713" lon="9.411231">
        <ele>91.563109</ele>
        <time>2021-07-22T12:08:22.000Z</time>
      </trkpt>
      <trkpt lat="54.670816" lon="9.411284">
        <ele>91.537638</ele>
        <time>2021-07-22T12:08:29.000Z</time>
      </trkpt>
      <trkpt lat="54.670899" lon="9.411305">
        <ele>91.536564</ele>
        <time>2021-07-22T12:08:34.000Z</time>
      </trkpt>
      <trkpt lat="54.670930" lon="9.411330">
        <ele>91.569617</ele>
        <time>2021-07-22T12:08:36.000Z</time>
      </trkpt>
      <trkpt lat="54.671005" lon="9.411444">
        <ele>91.666109</ele>
        <time>2021-07-22T12:08:42.000Z</time>
      </trkpt>
      <trkpt lat="54.671012" lon="9.411464">
        <ele>91.679173</ele>
        <time>2021-07-22T12:08:43.000Z</time>
      </trkpt>
      <trkpt lat="54.671066" lon="9.411510">
        <ele>91.737342</ele>
        <time>2021-07-22T12:08:49.000Z</time>
      </trkpt>
      <trkpt lat="54.671155" lon="9.411600">
        <ele>91.836970</ele>
        <time>2021-07-22T12:08:56.000Z</time>
      </trkpt>
      <trkpt lat="54.671282" lon="9.411648">
        <ele>91.962590</ele>
        <time>2021-07-22T12:09:03.000Z</time>
      </trkpt>
      <trkpt lat="54.671430" lon="9.411711">
        <ele>92.109875</ele>
        <time>2021-07-22T12:09:11.000Z</time>
      </trkpt>
      <trkpt lat="54.671515" lon="9.411783">
        <ele>92.201337</ele>
        <time>2021-07-22T12:09:16.000Z</time>
      </trkpt>
      <trkpt lat="54.671636" lon="9.411903">
        <ele>92.336126</ele>
        <time>2021-07-22T12:09:23.000Z</time>
      </trkpt>
      <trkpt lat="54.671648" lon="9.411909">
        <ele>92.348196</ele>
        <time>2021-07-22T12:09:24.000Z</time>
      </trkpt>
      <trkpt lat="54.671737" lon="9.412042">
        <ele>92.461862</ele>
        <time>2021-07-22T12:09:31.000Z</time>
      </trkpt>
      <trkpt lat="54.671811" lon="9.412116">
        <ele>92.544465</ele>
        <time>2021-07-22T12:09:38.000Z</time>
      </trkpt>
      <trkpt lat="54.671819" lon="9.412132">
        <ele>92.556284</ele>
        <time>2021-07-22T12:09:39.000Z</time>
      </trkpt>
      <trkpt lat="54.671896" lon="9.412239">
        <ele>92.651737</ele>
        <time>2021-07-22T12:09:46.000Z</time>
      </trkpt>
      <trkpt lat="54.671906" lon="9.412241">
        <ele>92.661465</ele>
        <time>2021-07-22T12:09:47.000Z</time>
      </trkpt>
      <trkpt lat="54.671937" lon="9.412221">
        <ele>92.693437</ele>
        <time>2021-07-22T12:09:50.000Z</time>
      </trkpt>
      <trkpt lat="54.671948" lon="9.412209">
        <ele>92.706005</ele>
        <time>2021-07-22T12:09:51.000Z</time>
      </trkpt>
      <trkpt lat="54.672027" lon="9.412111">
        <ele>92.799955</ele>
        <time>2021-07-22T12:09:57.000Z</time>
      </trkpt>
      <trkpt lat="54.672040" lon="9.412099">
        <ele>92.814195</ele>
        <time>2021-07-22T12:09:58.000Z</time>
      </trkpt>
      <trkpt lat="54.672115" lon="9.412067">
        <ele>92.888842</ele>
        <time>2021-07-22T12:10:03.000Z</time>
      </trkpt>
      <trkpt lat="54.672144" lon="9.412050">
        <ele>92.918432</ele>
        <time>2021-07-22T12:10:05.000Z</time>
      </trkpt>
      <trkpt lat="54.672251" lon="9.411980">
        <ele>93.028980</ele>
        <time>2021-07-22T12:10:11.000Z</time>
      </trkpt>
      <trkpt lat="54.672351" lon="9.411882">
        <ele>93.140050</ele>
        <time>2021-07-22T12:10:18.000Z</time>
      </trkpt>
      <trkpt lat="54.672368" lon="9.411866">
        <ele>93.158753</ele>
        <time>2021-07-22T12:10:19.000Z</time>
      </trkpt>
      <trkpt lat="54.672447" lon="9.411765">
        <ele>93.253689</ele>
        <time>2021-07-22T12:10:25.000Z</time>
      </trkpt>
      <trkpt lat="54.672547" lon="9.411663">
        <ele>93.290518</ele>
        <time>2021-07-22T12:10:33.000Z</time>
      </trkpt>
      <trkpt lat="54.672675" lon="9.411584">
        <ele>93.328782</ele>
        <time>2021-07-22T12:10:42.000Z</time>
      </trkpt>
      <trkpt lat="54.672706" lon="9.411564">
        <ele>93.338098</ele>
        <time>2021-07-22T12:10:44.000Z</time>
      </trkpt>
      <trkpt lat="54.672737" lon="9.411556">
        <ele>93.346922</ele>
        <time>2021-07-22T12:10:46.000Z</time>
      </trkpt>
      <trkpt lat="54.672795" lon="9.411541">
        <ele>93.363434</ele>
        <time>2021-07-22T12:10:50.000Z</time>
      </trkpt>
      <trkpt lat="54.672932" lon="9.411443">
        <ele>93.405175</ele>
        <time>2021-07-22T12:10:59.000Z</time>
      </trkpt>
      <trkpt lat="54.672981" lon="9.411385">
        <ele>93.421892</ele>
        <time>2021-07-22T12:11:02.000Z</time>
      </trkpt>
      <trkpt lat="54.673039" lon="9.411306">
        <ele>93.442679</ele>
        <time>2021-07-22T12:11:06.000Z</time>
      </trkpt>
      <trkpt lat="54.673155" lon="9.411181">
        <ele>93.481159</ele>
        <time>2021-07-22T12:11:14.000Z</time>
      </trkpt>
      <trkpt lat="54.673274" lon="9.411079">
        <ele>93.518553</ele>
        <time>2021-07-22T12:11:22.000Z</time>
      </trkpt>
      <trkpt lat="54.673418" lon="9.410973">
        <ele>93.562615</ele>
        <time>2021-07-22T12:11:32.000Z</time>
      </trkpt>
      <trkpt lat="54.673540" lon="9.410898">
        <ele>93.599069</ele>
        <time>2021-07-22T12:11:40.000Z</time>
      </trkpt>
      <trkpt lat="54.673595" lon="9.410802">
        <ele>93.621070</ele>
        <time>2021-07-22T12:11:44.000Z</time>
      </trkpt>
      <trkpt lat="54.673642" lon="9.410729">
        <ele>93.638856</ele>
        <time>2021-07-22T12:11:47.000Z</time>
      </trkpt>
      <trkpt lat="54.673732" lon="9.410651">
        <ele>93.667199</ele>
        <time>2021-07-22T12:11:53.000Z</time>
      </trkpt>
      <trkpt lat="54.673769" lon="9.410622">
        <ele>93.678636</ele>
        <time>2021-07-22T12:11:56.000Z</time>
      </trkpt>
      <trkpt lat="54.673831" lon="9.410612">
        <ele>93.696167</ele>
        <time>2021-07-22T12:12:00.000Z</time>
      </trkpt>
      <trkpt lat="54.673862" lon="9.410582">
        <ele>93.706169</ele>
        <time>2021-07-22T12:12:02.000Z</time>
      </trkpt>
      <trkpt lat="54.673910" lon="9.410525">
        <ele>93.722562</ele>
        <time>2021-07-22T12:12:05.000Z</time>
      </trkpt>
      <trkpt lat="54.673936" lon="9.410499">
        <ele>93.731018</ele>
        <time>2021-07-22T12:12:07.000Z</time>
      </trkpt>
      <trkpt lat="54.674036" lon="9.410420">
        <ele>93.761971</ele>
        <time>2021-07-22T12:12:14.000Z</time>
      </trkpt>
      <trkpt lat="54.674090" lon="9.410369">
        <ele>93.764846</ele>
        <time>2021-07-22T12:12:18.000Z</time>
      </trkpt>
      <trkpt lat="54.674144" lon="9.410324">
        <ele>93.763471</ele>
        <time>2021-07-22T12:12:22.000Z</time>
      </trkpt>
      <trkpt lat="54.674252" lon="9.410235">
        <ele>93.760727</ele>
        <time>2021-07-22T12:12:30.000Z</time>
      </trkpt>
      <trkpt lat="54.674266" lon="9.410229">
        <ele>93.760396</ele>
        <time>2021-07-22T12:12:31.000Z</time>
      </trkpt>
      <trkpt lat="54.674420" lon="9.410111">
        <ele>93.756533</ele>
        <time>2021-07-22T12:12:41.000Z</time>
      </trkpt>
      <trkpt lat="54.674539" lon="9.409992">
        <ele>93.753381</ele>
        <time>2021-07-22T12:12:49.000Z</time>
      </trkpt>
      <trkpt lat="54.674597" lon="9.409934">
        <ele>93.751844</ele>
        <time>2021-07-22T12:12:53.000Z</time>
      </trkpt>
      <trkpt lat="54.674665" lon="9.409856">
        <ele>93.749973</ele>
        <time>2021-07-22T12:12:57.000Z</time>
      </trkpt>
      <trkpt lat="54.674805" lon="9.409757">
        <ele>93.746504</ele>
        <time>2021-07-22T12:13:06.000Z</time>
      </trkpt>
      <trkpt lat="54.674885" lon="9.409684">
        <ele>93.744429</ele>
        <time>2021-07-22T12:13:12.000Z</time>
      </trkpt>
      <trkpt lat="54.674915" lon="9.409658">
        <ele>93.743659</ele>
        <time>2021-07-22T12:13:14.000Z</time>
      </trkpt>
      <trkpt lat="54.674946" lon="9.409636">
        <ele>93.742891</ele>
        <time>2021-07-22T12:13:16.000Z</time>
      </trkpt>
      <trkpt lat="54.675066" lon="9.409532">
        <ele>93.739813</ele>
        <time>2021-07-22T12:13:24.000Z</time>
      </trkpt>
      <trkpt lat="54.675113" lon="9.409483">
        <ele>93.738554</ele>
        <time>2021-07-22T12:13:27.000Z</time>
      </trkpt>
      <trkpt lat="54.675177" lon="9.409415">
        <ele>93.736831</ele>
        <time>2021-07-22T12:13:31.000Z</time>
      </trkpt>
      <trkpt lat="54.675278" lon="9.409333">
        <ele>93.734272</ele>
        <time>2021-07-22T12:13:38.000Z</time>
      </trkpt>
      <trkpt lat="54.675389" lon="9.409253">
        <ele>93.731514</ele>
        <time>2021-07-22T12:13:46.000Z</time>
      </trkpt>
      <trkpt lat="54.675443" lon="9.409233">
        <ele>93.730248</ele>
        <time>2021-07-22T12:13:50.000Z</time>
      </trkpt>
      <trkpt lat="54.675497" lon="9.409205">
        <ele>93.728955</ele>
        <time>2021-07-22T12:13:54.000Z</time>
      </trkpt>
      <trkpt lat="54.675548" lon="9.409165">
        <ele>93.727670</ele>
        <time>2021-07-22T12:13:58.000Z</time>
      </trkpt>
      <trkpt lat="54.675631" lon="9.409074">
        <ele>93.725417</ele>
        <time>2021-07-22T12:14:04.000Z</time>
      </trkpt>
      <trkpt lat="54.675696" lon="9.408992">
        <ele>93.725392</ele>
        <time>2021-07-22T12:14:09.000Z</time>
      </trkpt>
      <trkpt lat="54.675750" lon="9.408920">
        <ele>93.726391</ele>
        <time>2021-07-22T12:14:13.000Z</time>
      </trkpt>
      <trkpt lat="54.675893" lon="9.408743">
        <ele>93.728968</ele>
        <time>2021-07-22T12:14:22.000Z</time>
      </trkpt>
      <trkpt lat="54.675907" lon="9.408732">
        <ele>93.729193</ele>
        <time>2021-07-22T12:14:23.000Z</time>
      </trkpt>
      <trkpt lat="54.676025" lon="9.408643">
        <ele>93.731080</ele>
        <time>2021-07-22T12:14:30.000Z</time>
      </trkpt>
      <trkpt lat="54.676153" lon="9.408548">
        <ele>93.733121</ele>
        <time>2021-07-22T12:14:38.000Z</time>
      </trkpt>
      <trkpt lat="54.676292" lon="9.408433">
        <ele>93.735378</ele>
        <time>2021-07-22T12:14:48.000Z</time>
      </trkpt>
      <trkpt lat="54.676432" lon="9.408333">
        <ele>93.737598</ele>
        <time>2021-07-22T12:14:57.000Z</time>
      </trkpt>
      <trkpt lat="54.676570" lon="9.408225">
        <ele>93.739817</ele>
        <time>2021-07-22T12:15:06.000Z</time>
      </trkpt>
      <trkpt lat="54.676670" lon="9.408145">
        <ele>93.741432</ele>
        <time>2021-07-22T12:15:14.000Z</time>
      </trkpt>
      <trkpt lat="54.676774" lon="9.408000">
        <ele>93.743389</ele>
        <time>2021-07-22T12:15:22.000Z</time>
      </trkpt>
      <trkpt lat="54.676849" lon="9.407885">
        <ele>93.744858</ele>
        <time>2021-07-22T12:15:29.000Z</time>
      </trkpt>
      <trkpt lat="54.676935" lon="9.407821">
        <ele>93.746230</ele>
        <time>2021-07-22T12:15:36.000Z</time>
      </trkpt>
      <trkpt lat="54.676992" lon="9.407737">
        <ele>93.747327</ele>
        <time>2021-07-22T12:15:41.000Z</time>
      </trkpt>
      <trkpt lat="54.677004" lon="9.407728">
        <ele>93.747519</ele>
        <time>2021-07-22T12:15:42.000Z</time>
      </trkpt>
      <trkpt lat="54.677114" lon="9.407683">
        <ele>93.749175</ele>
        <time>2021-07-22T12:15:49.000Z</time>
      </trkpt>
      <trkpt lat="54.677230" lon="9.407581">
        <ele>93.751201</ele>
        <time>2021-07-22T12:15:57.000Z</time>
      </trkpt>
      <trkpt lat="54.677280" lon="9.407538">
        <ele>93.754237</ele>
        <time>2021-07-22T12:16:00.000Z</time>
      </trkpt>
      <trkpt lat="54.677338" lon="9.407488">
        <ele>93.757760</ele>
        <time>2021-07-22T12:16:04.000Z</time>
      </trkpt>
      <trkpt lat="54.677466" lon="9.407390">
        <ele>93.765370</ele>
        <time>2021-07-22T12:16:12.000Z</time>
      </trkpt>
      <trkpt lat="54.677578" lon="9.407284">
        <ele>93.772311</ele>
        <time>2021-07-22T12:16:19.000Z</time>
      </trkpt>
      <trkpt lat="54.677657" lon="9.407221">
        <ele>93.777040</ele>
        <time>2021-07-22T12:16:24.000Z</time>
      </trkpt>
      <trkpt lat="54.677701" lon="9.407193">
        <ele>93.779589</ele>
        <time>2021-07-22T12:16:27.000Z</time>
      </trkpt>
      <trkpt lat="54.677737" lon="9.407140">
        <ele>93.782159</ele>
        <time>2021-07-22T12:16:31.000Z</time>
      </trkpt>
      <trkpt lat="54.677742" lon="9.407110">
        <ele>93.783140</ele>
        <time>2021-07-22T12:16:33.000Z</time>
      </trkpt>
      <trkpt lat="54.677748" lon="9.407064">
        <ele>93.784623</ele>
        <time>2021-07-22T12:16:37.000Z</time>
      </trkpt>
      <trkpt lat="54.677751" lon="9.407025">
        <ele>93.785859</ele>
        <time>2021-07-22T12:16:38.000Z</time>
      </trkpt>
      <trkpt lat="54.677747" lon="9.406998">
        <ele>93.786735</ele>
        <time>2021-07-22T12:16:39.000Z</time>
      </trkpt>
      <trkpt lat="54.677714" lon="9.406792">
        <ele>93.793454</ele>
        <time>2021-07-22T12:16:48.000Z</time>
      </trkpt>
      <trkpt lat="54.677703" lon="9.406753">
        <ele>93.794818</ele>
        <time>2021-07-22T12:16:50.000Z</time>
      </trkpt>
      <trkpt lat="54.677687" lon="9.406685">
        <ele>93.797126</ele>
        <time>2021-07-22T12:16:53.000Z</time>
      </trkpt>
      <trkpt lat="54.677679" lon="9.406665">
        <ele>93.797890</ele>
        <time>2021-07-22T12:16:54.000Z</time>
      </trkpt>
      <trkpt lat="54.677600" lon="9.406444">
        <ele>93.806057</ele>
        <time>2021-07-22T12:17:03.000Z</time>
      </trkpt>
      <trkpt lat="54.677547" lon="9.406341">
        <ele>93.810391</ele>
        <time>2021-07-22T12:17:08.000Z</time>
      </trkpt>
      <trkpt lat="54.677479" lon="9.406208">
        <ele>93.815972</ele>
        <time>2021-07-22T12:17:14.000Z</time>
      </trkpt>
      <trkpt lat="54.677468" lon="9.406180">
        <ele>93.817036</ele>
        <time>2021-07-22T12:17:15.000Z</time>
      </trkpt>
      <trkpt lat="54.677459" lon="9.406127">
        <ele>93.818772</ele>
        <time>2021-07-22T12:17:17.000Z</time>
      </trkpt>
      <trkpt lat="54.677433" lon="9.406038">
        <ele>93.821907</ele>
        <time>2021-07-22T12:17:20.000Z</time>
      </trkpt>
      <trkpt lat="54.677399" lon="9.405901">
        <ele>93.826593</ele>
        <time>2021-07-22T12:17:26.000Z</time>
      </trkpt>
      <trkpt lat="54.677390" lon="9.405864">
        <ele>93.827854</ele>
        <time>2021-07-22T12:17:28.000Z</time>
      </trkpt>
      <trkpt lat="54.677362" lon="9.405765">
        <ele>93.831319</ele>
        <time>2021-07-22T12:17:33.000Z</time>
      </trkpt>
      <trkpt lat="54.677303" lon="9.405628">
        <ele>93.836688</ele>
        <time>2021-07-22T12:17:39.000Z</time>
      </trkpt>
      <trkpt lat="54.677268" lon="9.405513">
        <ele>93.840773</ele>
        <time>2021-07-22T12:17:43.000Z</time>
      </trkpt>
      <trkpt lat="54.677221" lon="9.405362">
        <ele>93.846164</ele>
        <time>2021-07-22T12:17:49.000Z</time>
      </trkpt>
      <trkpt lat="54.677211" lon="9.405339">
        <ele>93.847068</ele>
        <time>2021-07-22T12:17:50.000Z</time>
      </trkpt>
      <trkpt lat="54.677151" lon="9.405179">
        <ele>93.859440</ele>
        <time>2021-07-22T12:17:57.000Z</time>
      </trkpt>
      <trkpt lat="54.677147" lon="9.405162">
        <ele>93.860884</ele>
        <time>2021-07-22T12:17:58.000Z</time>
      </trkpt>
      <trkpt lat="54.677128" lon="9.405131">
        <ele>93.864439</ele>
        <time>2021-07-22T12:18:00.000Z</time>
      </trkpt>
      <trkpt lat="54.677089" lon="9.405039">
        <ele>93.873416</ele>
        <time>2021-07-22T12:18:04.000Z</time>
      </trkpt>
      <trkpt lat="54.677079" lon="9.405012">
        <ele>93.875939</ele>
        <time>2021-07-22T12:18:05.000Z</time>
      </trkpt>
      <trkpt lat="54.677026" lon="9.404859">
        <ele>93.889973</ele>
        <time>2021-07-22T12:18:11.000Z</time>
      </trkpt>
      <trkpt lat="54.676951" lon="9.404626">
        <ele>93.910958</ele>
        <time>2021-07-22T12:18:19.000Z</time>
      </trkpt>
      <trkpt lat="54.676920" lon="9.404492">
        <ele>93.922315</ele>
        <time>2021-07-22T12:18:24.000Z</time>
      </trkpt>
      <trkpt lat="54.676906" lon="9.404427">
        <ele>93.927773</ele>
        <time>2021-07-22T12:18:27.000Z</time>
      </trkpt>
      <trkpt lat="54.676856" lon="9.404302">
        <ele>93.939733</ele>
        <time>2021-07-22T12:18:33.000Z</time>
      </trkpt>
      <trkpt lat="54.676789" lon="9.404109">
        <ele>93.957447</ele>
        <time>2021-07-22T12:18:40.000Z</time>
      </trkpt>
      <trkpt lat="54.676744" lon="9.403927">
        <ele>93.973023</ele>
        <time>2021-07-22T12:18:47.000Z</time>
      </trkpt>
      <trkpt lat="54.676662" lon="9.403741">
        <ele>93.991428</ele>
        <time>2021-07-22T12:18:55.000Z</time>
      </trkpt>
      <trkpt lat="54.676618" lon="9.403605">
        <ele>94.003692</ele>
        <time>2021-07-22T12:19:01.000Z</time>
      </trkpt>
      <trkpt lat="54.676605" lon="9.403581">
        <ele>94.006279</ele>
        <time>2021-07-22T12:19:03.000Z</time>
      </trkpt>
      <trkpt lat="54.676590" lon="9.403538">
        <ele>94.010231</ele>
        <time>2021-07-22T12:19:05.000Z</time>
      </trkpt>
      <trkpt lat="54.676572" lon="9.403506">
        <ele>94.013744</ele>
        <time>2021-07-22T12:19:07.000Z</time>
      </trkpt>
      <trkpt lat="54.676493" lon="9.403328">
        <ele>94.031402</ele>
        <time>2021-07-22T12:19:14.000Z</time>
      </trkpt>
      <trkpt lat="54.676456" lon="9.403179">
        <ele>94.044162</ele>
        <time>2021-07-22T12:19:21.000Z</time>
      </trkpt>
      <trkpt lat="54.676430" lon="9.403128">
        <ele>94.049512</ele>
        <time>2021-07-22T12:19:24.000Z</time>
      </trkpt>
      <trkpt lat="54.676379" lon="9.403016">
        <ele>94.060731</ele>
        <time>2021-07-22T12:19:29.000Z</time>
      </trkpt>
      <trkpt lat="54.676275" lon="9.402866">
        <ele>94.079160</ele>
        <time>2021-07-22T12:19:36.000Z</time>
      </trkpt>
      <trkpt lat="54.676212" lon="9.402702">
        <ele>94.093025</ele>
        <time>2021-07-22T12:19:43.000Z</time>
      </trkpt>
      <trkpt lat="54.676153" lon="9.402554">
        <ele>94.085151</ele>
        <time>2021-07-22T12:19:49.000Z</time>
      </trkpt>
      <trkpt lat="54.676091" lon="9.402408">
        <ele>94.077216</ele>
        <time>2021-07-22T12:19:56.000Z</time>
      </trkpt>
      <trkpt lat="54.676009" lon="9.402197">
        <ele>94.066080</ele>
        <time>2021-07-22T12:20:03.000Z</time>
      </trkpt>
      <trkpt lat="54.675961" lon="9.402012">
        <ele>94.057198</ele>
        <time>2021-07-22T12:20:09.000Z</time>
      </trkpt>
      <trkpt lat="54.675857" lon="9.401846">
        <ele>94.046477</ele>
        <time>2021-07-22T12:20:17.000Z</time>
      </trkpt>
      <trkpt lat="54.675828" lon="9.401823">
        <ele>94.044060</ele>
        <time>2021-07-22T12:20:20.000Z</time>
      </trkpt>
      <trkpt lat="54.675748" lon="9.401801">
        <ele>94.037923</ele>
        <time>2021-07-22T12:20:24.000Z</time>
      </trkpt>
      <trkpt lat="54.675656" lon="9.401768">
        <ele>94.030805</ele>
        <time>2021-07-22T12:20:30.000Z</time>
      </trkpt>
      <trkpt lat="54.675586" lon="9.401772">
        <ele>94.025499</ele>
        <time>2021-07-22T12:20:35.000Z</time>
      </trkpt>
      <trkpt lat="54.675545" lon="9.401780">
        <ele>94.022373</ele>
        <time>2021-07-22T12:20:38.000Z</time>
      </trkpt>
      <trkpt lat="54.675430" lon="9.401761">
        <ele>94.013622</ele>
        <time>2021-07-22T12:20:45.000Z</time>
      </trkpt>
      <trkpt lat="54.675372" lon="9.401743">
        <ele>94.009158</ele>
        <time>2021-07-22T12:20:49.000Z</time>
      </trkpt>
      <trkpt lat="54.675346" lon="9.401738">
        <ele>94.007176</ele>
        <time>2021-07-22T12:20:51.000Z</time>
      </trkpt>
      <trkpt lat="54.675211" lon="9.401709">
        <ele>93.996870</ele>
        <time>2021-07-22T12:21:01.000Z</time>
      </trkpt>
      <trkpt lat="54.675172" lon="9.401709">
        <ele>93.993916</ele>
        <time>2021-07-22T12:21:04.000Z</time>
      </trkpt>
      <trkpt lat="54.675148" lon="9.401705">
        <ele>93.992089</ele>
        <time>2021-07-22T12:21:06.000Z</time>
      </trkpt>
      <trkpt lat="54.675113" lon="9.401708">
        <ele>93.989434</ele>
        <time>2021-07-22T12:21:08.000Z</time>
      </trkpt>
      <trkpt lat="54.675099" lon="9.401708">
        <ele>93.988374</ele>
        <time>2021-07-22T12:21:09.000Z</time>
      </trkpt>
      <trkpt lat="54.674920" lon="9.401769">
        <ele>93.974552</ele>
        <time>2021-07-22T12:21:18.000Z</time>
      </trkpt>
      <trkpt lat="54.674830" lon="9.401773">
        <ele>93.967732</ele>
        <time>2021-07-22T12:21:24.000Z</time>
      </trkpt>
      <trkpt lat="54.674771" lon="9.401751">
        <ele>93.963160</ele>
        <time>2021-07-22T12:21:26.000Z</time>
      </trkpt>
      <trkpt lat="54.674668" lon="9.401736">
        <ele>93.954313</ele>
        <time>2021-07-22T12:21:31.000Z</time>
      </trkpt>
      <trkpt lat="54.674634" lon="9.401723">
        <ele>93.950348</ele>
        <time>2021-07-22T12:21:33.000Z</time>
      </trkpt>
      <trkpt lat="54.674621" lon="9.401717">
        <ele>93.948815</ele>
        <time>2021-07-22T12:21:34.000Z</time>
      </trkpt>
      <trkpt lat="54.674582" lon="9.401703">
        <ele>93.944279</ele>
        <time>2021-07-22T12:21:37.000Z</time>
      </trkpt>
      <trkpt lat="54.674502" lon="9.401690">
        <ele>93.935129</ele>
        <time>2021-07-22T12:21:41.000Z</time>
      </trkpt>
      <trkpt lat="54.674385" lon="9.401655">
        <ele>93.921606</ele>
        <time>2021-07-22T12:21:47.000Z</time>
      </trkpt>
      <trkpt lat="54.674373" lon="9.401660">
        <ele>93.920201</ele>
        <time>2021-07-22T12:21:48.000Z</time>
      </trkpt>
      <trkpt lat="54.674345" lon="9.401664">
        <ele>93.917001</ele>
        <time>2021-07-22T12:21:50.000Z</time>
      </trkpt>
      <trkpt lat="54.674295" lon="9.401664">
        <ele>93.911307</ele>
        <time>2021-07-22T12:21:54.000Z</time>
      </trkpt>
      <trkpt lat="54.674205" lon="9.401675">
        <ele>93.901032</ele>
        <time>2021-07-22T12:22:00.000Z</time>
      </trkpt>
      <trkpt lat="54.674098" lon="9.401648">
        <ele>93.888718</ele>
        <time>2021-07-22T12:22:08.000Z</time>
      </trkpt>
      <trkpt lat="54.673944" lon="9.401584">
        <ele>93.870681</ele>
        <time>2021-07-22T12:22:16.000Z</time>
      </trkpt>
      <trkpt lat="54.673834" lon="9.401552">
        <ele>93.857978</ele>
        <time>2021-07-22T12:22:23.000Z</time>
      </trkpt>
      <trkpt lat="54.673688" lon="9.401570">
        <ele>93.841309</ele>
        <time>2021-07-22T12:22:31.000Z</time>
      </trkpt>
      <trkpt lat="54.673635" lon="9.401597">
        <ele>93.835017</ele>
        <time>2021-07-22T12:22:35.000Z</time>
      </trkpt>
      <trkpt lat="54.673594" lon="9.401637">
        <ele>93.829656</ele>
        <time>2021-07-22T12:22:37.000Z</time>
      </trkpt>
      <trkpt lat="54.673461" lon="9.401599">
        <ele>93.814304</ele>
        <time>2021-07-22T12:22:46.000Z</time>
      </trkpt>
      <trkpt lat="54.673378" lon="9.401576">
        <ele>93.804731</ele>
        <time>2021-07-22T12:22:51.000Z</time>
      </trkpt>
      <trkpt lat="54.673362" lon="9.401568">
        <ele>93.802835</ele>
        <time>2021-07-22T12:22:52.000Z</time>
      </trkpt>
      <trkpt lat="54.673246" lon="9.401515">
        <ele>93.789171</ele>
        <time>2021-07-22T12:23:00.000Z</time>
      </trkpt>
      <trkpt lat="54.673145" lon="9.401406">
        <ele>93.775613</ele>
        <time>2021-07-22T12:23:07.000Z</time>
      </trkpt>
      <trkpt lat="54.673059" lon="9.401327">
        <ele>93.764523</ele>
        <time>2021-07-22T12:23:13.000Z</time>
      </trkpt>
      <trkpt lat="54.673010" lon="9.401295">
        <ele>93.758558</ele>
        <time>2021-07-22T12:23:16.000Z</time>
      </trkpt>
      <trkpt lat="54.672984" lon="9.401309">
        <ele>93.755457</ele>
        <time>2021-07-22T12:23:19.000Z</time>
      </trkpt>
      <trkpt lat="54.672924" lon="9.401296">
        <ele>93.738919</ele>
        <time>2021-07-22T12:23:25.000Z</time>
      </trkpt>
      <trkpt lat="54.672826" lon="9.401301">
        <ele>93.700426</ele>
        <time>2021-07-22T12:23:30.000Z</time>
      </trkpt>
      <trkpt lat="54.672787" lon="9.401330">
        <ele>93.683759</ele>
        <time>2021-07-22T12:23:32.000Z</time>
      </trkpt>
      <trkpt lat="54.672771" lon="9.401348">
        <ele>93.676265</ele>
        <time>2021-07-22T12:23:33.000Z</time>
      </trkpt>
      <trkpt lat="54.672645" lon="9.401429">
        <ele>93.623489</ele>
        <time>2021-07-22T12:23:39.000Z</time>
      </trkpt>
      <trkpt lat="54.672606" lon="9.401631">
        <ele>93.575141</ele>
        <time>2021-07-22T12:23:46.000Z</time>
      </trkpt>
      <trkpt lat="54.672527" lon="9.401809">
        <ele>93.524200</ele>
        <time>2021-07-22T12:23:54.000Z</time>
      </trkpt>
      <trkpt lat="54.672460" lon="9.401964">
        <ele>93.480266</ele>
        <time>2021-07-22T12:24:01.000Z</time>
      </trkpt>
      <trkpt lat="54.672449" lon="9.401991">
        <ele>93.472767</ele>
        <time>2021-07-22T12:24:02.000Z</time>
      </trkpt>
      <trkpt lat="54.672387" lon="9.402134">
        <ele>93.432190</ele>
        <time>2021-07-22T12:24:09.000Z</time>
      </trkpt>
      <trkpt lat="54.672330" lon="9.402276">
        <ele>93.392946</ele>
        <time>2021-07-22T12:24:17.000Z</time>
      </trkpt>
      <trkpt lat="54.672266" lon="9.402435">
        <ele>93.348965</ele>
        <time>2021-07-22T12:24:24.000Z</time>
      </trkpt>
      <trkpt lat="54.672197" lon="9.402552">
        <ele>93.311025</ele>
        <time>2021-07-22T12:24:29.000Z</time>
      </trkpt>
      <trkpt lat="54.672174" lon="9.402615">
        <ele>93.294110</ele>
        <time>2021-07-22T12:24:32.000Z</time>
      </trkpt>
      <trkpt lat="54.672156" lon="9.402702">
        <ele>93.273132</ele>
        <time>2021-07-22T12:24:36.000Z</time>
      </trkpt>
      <trkpt lat="54.672140" lon="9.402742">
        <ele>93.262090</ele>
        <time>2021-07-22T12:24:38.000Z</time>
      </trkpt>
      <trkpt lat="54.672077" lon="9.402860">
        <ele>93.225628</ele>
        <time>2021-07-22T12:24:44.000Z</time>
      </trkpt>
      <trkpt lat="54.671986" lon="9.403074">
        <ele>93.165322</ele>
        <time>2021-07-22T12:24:52.000Z</time>
      </trkpt>
      <trkpt lat="54.671977" lon="9.403102">
        <ele>93.158049</ele>
        <time>2021-07-22T12:24:53.000Z</time>
      </trkpt>
      <trkpt lat="54.671947" lon="9.403188">
        <ele>93.135247</ele>
        <time>2021-07-22T12:24:57.000Z</time>
      </trkpt>
      <trkpt lat="54.671901" lon="9.403343">
        <ele>93.095693</ele>
        <time>2021-07-22T12:25:04.000Z</time>
      </trkpt>
      <trkpt lat="54.671830" lon="9.403551">
        <ele>93.038969</ele>
        <time>2021-07-22T12:25:11.000Z</time>
      </trkpt>
      <trkpt lat="54.671824" lon="9.403592">
        <ele>93.026065</ele>
        <time>2021-07-22T12:25:12.000Z</time>
      </trkpt>
      <trkpt lat="54.671782" lon="9.403780">
        <ele>92.964573</ele>
        <time>2021-07-22T12:25:17.000Z</time>
      </trkpt>
      <trkpt lat="54.671739" lon="9.403932">
        <ele>92.912945</ele>
        <time>2021-07-22T12:25:23.000Z</time>
      </trkpt>
      <trkpt lat="54.671689" lon="9.404084">
        <ele>92.859590</ele>
        <time>2021-07-22T12:25:29.000Z</time>
      </trkpt>
      <trkpt lat="54.671615" lon="9.404185">
        <ele>92.809850</ele>
        <time>2021-07-22T12:25:35.000Z</time>
      </trkpt>
      <trkpt lat="54.671579" lon="9.404239">
        <ele>92.784705</ele>
        <time>2021-07-22T12:25:38.000Z</time>
      </trkpt>
      <trkpt lat="54.671547" lon="9.404300">
        <ele>92.759576</ele>
        <time>2021-07-22T12:25:41.000Z</time>
      </trkpt>
      <trkpt lat="54.671536" lon="9.404320">
        <ele>92.751155</ele>
        <time>2021-07-22T12:25:42.000Z</time>
      </trkpt>
      <trkpt lat="54.671517" lon="9.404376">
        <ele>92.731345</ele>
        <time>2021-07-22T12:25:45.000Z</time>
      </trkpt>
      <trkpt lat="54.671514" lon="9.404464">
        <ele>92.704448</ele>
        <time>2021-07-22T12:25:49.000Z</time>
      </trkpt>
      <trkpt lat="54.671516" lon="9.404529">
        <ele>92.684588</ele>
        <time>2021-07-22T12:25:51.000Z</time>
      </trkpt>
      <trkpt lat="54.671493" lon="9.404636">
        <ele>92.649759</ele>
        <time>2021-07-22T12:25:55.000Z</time>
      </trkpt>
      <trkpt lat="54.671436" lon="9.404706">
        <ele>92.612872</ele>
        <time>2021-07-22T12:25:59.000Z</time>
      </trkpt>
      <trkpt lat="54.671430" lon="9.404722">
        <ele>92.607054</ele>
        <time>2021-07-22T12:26:00.000Z</time>
      </trkpt>
      <trkpt lat="54.671405" lon="9.404767">
        <ele>92.588014</ele>
        <time>2021-07-22T12:26:04.000Z</time>
      </trkpt>
      <trkpt lat="54.671395" lon="9.404782">
        <ele>92.581030</ele>
        <time>2021-07-22T12:26:05.000Z</time>
      </trkpt>
      <trkpt lat="54.671383" lon="9.404802">
        <ele>92.572236</ele>
        <time>2021-07-22T12:26:06.000Z</time>
      </trkpt>
      <trkpt lat="54.671337" lon="9.404890">
        <ele>92.536042</ele>
        <time>2021-07-22T12:26:11.000Z</time>
      </trkpt>
      <trkpt lat="54.671313" lon="9.404937">
        <ele>92.516911</ele>
        <time>2021-07-22T12:26:14.000Z</time>
      </trkpt>
      <trkpt lat="54.671251" lon="9.405063">
        <ele>92.466433</ele>
        <time>2021-07-22T12:26:21.000Z</time>
      </trkpt>
      <trkpt lat="54.671239" lon="9.405080">
        <ele>92.458248</ele>
        <time>2021-07-22T12:26:22.000Z</time>
      </trkpt>
      <trkpt lat="54.671151" lon="9.405236">
        <ele>92.391755</ele>
        <time>2021-07-22T12:26:31.000Z</time>
      </trkpt>
      <trkpt lat="54.671089" lon="9.405261">
        <ele>92.358164</ele>
        <time>2021-07-22T12:26:34.000Z</time>
      </trkpt>
      <trkpt lat="54.671039" lon="9.405307">
        <ele>92.328281</ele>
        <time>2021-07-22T12:26:37.000Z</time>
      </trkpt>
      <trkpt lat="54.671021" lon="9.405323">
        <ele>92.317603</ele>
        <time>2021-07-22T12:26:38.000Z</time>
      </trkpt>
      <trkpt lat="54.670952" lon="9.405449">
        <ele>92.264656</ele>
        <time>2021-07-22T12:26:43.000Z</time>
      </trkpt>
      <trkpt lat="54.670868" lon="9.405603">
        <ele>92.200064</ele>
        <time>2021-07-22T12:26:50.000Z</time>
      </trkpt>
      <trkpt lat="54.670825" lon="9.405646">
        <ele>92.173855</ele>
        <time>2021-07-22T12:26:52.000Z</time>
      </trkpt>
      <trkpt lat="54.670767" lon="9.405808">
        <ele>92.115720</ele>
        <time>2021-07-22T12:26:57.000Z</time>
      </trkpt>
      <trkpt lat="54.670727" lon="9.405998">
        <ele>92.087088</ele>
        <time>2021-07-22T12:27:03.000Z</time>
      </trkpt>
      <trkpt lat="54.670721" lon="9.406019">
        <ele>92.085397</ele>
        <time>2021-07-22T12:27:04.000Z</time>
      </trkpt>
      <trkpt lat="54.670725" lon="9.406121">
        <ele>92.078018</ele>
        <time>2021-07-22T12:27:09.000Z</time>
      </trkpt>
      <trkpt lat="54.670711" lon="9.406270">
        <ele>92.067123</ele>
        <time>2021-07-22T12:27:15.000Z</time>
      </trkpt>
      <trkpt lat="54.670705" lon="9.406299">
        <ele>92.064900</ele>
        <time>2021-07-22T12:27:16.000Z</time>
      </trkpt>
      <trkpt lat="54.670698" lon="9.406326">
        <ele>92.062764</ele>
        <time>2021-07-22T12:27:17.000Z</time>
      </trkpt>
      <trkpt lat="54.670652" lon="9.406469">
        <ele>92.050954</ele>
        <time>2021-07-22T12:27:24.000Z</time>
      </trkpt>
      <trkpt lat="54.670583" lon="9.406591">
        <ele>92.038637</ele>
        <time>2021-07-22T12:27:31.000Z</time>
      </trkpt>
      <trkpt lat="54.670503" lon="9.406696">
        <ele>92.026101</ele>
        <time>2021-07-22T12:27:36.000Z</time>
      </trkpt>
      <trkpt lat="54.670481" lon="9.406747">
        <ele>92.021509</ele>
        <time>2021-07-22T12:27:38.000Z</time>
      </trkpt>
      <trkpt lat="54.670416" lon="9.406954">
        <ele>92.004508</ele>
        <time>2021-07-22T12:27:45.000Z</time>
      </trkpt>
      <trkpt lat="54.670345" lon="9.407114">
        <ele>91.989951</ele>
        <time>2021-07-22T12:27:52.000Z</time>
      </trkpt>
      <trkpt lat="54.670231" lon="9.407347">
        <ele>91.967922</ele>
        <time>2021-07-22T12:28:02.000Z</time>
      </trkpt>
      <trkpt lat="54.670127" lon="9.407546">
        <ele>91.948562</ele>
        <time>2021-07-22T12:28:11.000Z</time>
      </trkpt>
      <trkpt lat="54.670020" lon="9.407718">
        <ele>91.930329</ele>
        <time>2021-07-22T12:28:20.000Z</time>
      </trkpt>
      <trkpt lat="54.669896" lon="9.407881">
        <ele>91.910888</ele>
        <time>2021-07-22T12:28:29.000Z</time>
      </trkpt>
      <trkpt lat="54.669821" lon="9.407993">
        <ele>91.898519</ele>
        <time>2021-07-22T12:28:36.000Z</time>
      </trkpt>
      <trkpt lat="54.669730" lon="9.408145">
        <ele>91.882728</ele>
        <time>2021-07-22T12:28:43.000Z</time>
      </trkpt>
      <trkpt lat="54.669662" lon="9.408354">
        <ele>91.888341</ele>
        <time>2021-07-22T12:28:52.000Z</time>
      </trkpt>
      <trkpt lat="54.669617" lon="9.408463">
        <ele>91.908542</ele>
        <time>2021-07-22T12:28:57.000Z</time>
      </trkpt>
      <trkpt lat="54.669601" lon="9.408478">
        <ele>91.913289</ele>
        <time>2021-07-22T12:28:58.000Z</time>
      </trkpt>
      <trkpt lat="54.669492" lon="9.408610">
        <ele>91.947999</ele>
        <time>2021-07-22T12:29:05.000Z</time>
      </trkpt>
      <trkpt lat="54.669413" lon="9.408782">
        <ele>91.981130</ele>
        <time>2021-07-22T12:29:13.000Z</time>
      </trkpt>
      <trkpt lat="54.669328" lon="9.408944">
        <ele>92.014125</ele>
        <time>2021-07-22T12:29:21.000Z</time>
      </trkpt>
      <trkpt lat="54.669314" lon="9.408961">
        <ele>92.018587</ele>
        <time>2021-07-22T12:29:22.000Z</time>
      </trkpt>
      <trkpt lat="54.669221" lon="9.409079">
        <ele>92.048674</ele>
        <time>2021-07-22T12:29:29.000Z</time>
      </trkpt>
      <trkpt lat="54.669096" lon="9.409168">
        <ele>92.083934</ele>
        <time>2021-07-22T12:29:37.000Z</time>
      </trkpt>
      <trkpt lat="54.669020" lon="9.409171">
        <ele>92.103763</ele>
        <time>2021-07-22T12:29:43.000Z</time>
      </trkpt>
      <trkpt lat="54.668931" lon="9.409183">
        <ele>92.127048</ele>
        <time>2021-07-22T12:29:50.000Z</time>
      </trkpt>
      <trkpt lat="54.668873" lon="9.409117">
        <ele>92.145158</ele>
        <time>2021-07-22T12:29:56.000Z</time>
      </trkpt>
      <trkpt lat="54.668782" lon="9.409060">
        <ele>92.170403</ele>
        <time>2021-07-22T12:30:01.000Z</time>
      </trkpt>
      <trkpt lat="54.668769" lon="9.409043">
        <ele>92.174654</ele>
        <time>2021-07-22T12:30:02.000Z</time>
      </trkpt>
      <trkpt lat="54.668648" lon="9.408963">
        <ele>92.208444</ele>
        <time>2021-07-22T12:30:10.000Z</time>
      </trkpt>
      <trkpt lat="54.668546" lon="9.408906">
        <ele>92.236403</ele>
        <time>2021-07-22T12:30:18.000Z</time>
      </trkpt>
      <trkpt lat="54.668540" lon="9.408904">
        <ele>92.237997</ele>
        <time>2021-07-22T12:30:19.000Z</time>
      </trkpt>
      <trkpt lat="54.668518" lon="9.408903">
        <ele>92.243738</ele>
        <time>2021-07-22T12:30:21.000Z</time>
      </trkpt>
      <trkpt lat="54.668486" lon="9.408915">
        <ele>92.252278</ele>
        <time>2021-07-22T12:30:25.000Z</time>
      </trkpt>
      <trkpt lat="54.668444" lon="9.409012">
        <ele>92.270557</ele>
        <time>2021-07-22T12:30:30.000Z</time>
      </trkpt>
      <trkpt lat="54.668446" lon="9.409109">
        <ele>92.285198</ele>
        <time>2021-07-22T12:30:35.000Z</time>
      </trkpt>
      <trkpt lat="54.668453" lon="9.409139">
        <ele>92.290077</ele>
        <time>2021-07-22T12:30:36.000Z</time>
      </trkpt>
      <trkpt lat="54.668463" lon="9.409190">
        <ele>92.298201</ele>
        <time>2021-07-22T12:30:38.000Z</time>
      </trkpt>
      <trkpt lat="54.668460" lon="9.409268">
        <ele>92.309992</ele>
        <time>2021-07-22T12:30:42.000Z</time>
      </trkpt>
      <trkpt lat="54.668377" lon="9.409411">
        <ele>92.340553</ele>
        <time>2021-07-22T12:30:50.000Z</time>
      </trkpt>
      <trkpt lat="54.668329" lon="9.409499">
        <ele>92.251813</ele>
        <time>2021-07-22T12:30:55.000Z</time>
      </trkpt>
      <trkpt lat="54.668304" lon="9.409545">
        <ele>92.200751</ele>
        <time>2021-07-22T12:30:57.000Z</time>
      </trkpt>
      <trkpt lat="54.668210" lon="9.409698">
        <ele>92.020182</ele>
        <time>2021-07-22T12:31:04.000Z</time>
      </trkpt>
      <trkpt lat="54.668099" lon="9.409904">
        <ele>91.792425</ele>
        <time>2021-07-22T12:31:13.000Z</time>
      </trkpt>
      <trkpt lat="54.667982" lon="9.410047">
        <ele>91.592017</ele>
        <time>2021-07-22T12:31:21.000Z</time>
      </trkpt>
      <trkpt lat="54.667907" lon="9.410139">
        <ele>91.463395</ele>
        <time>2021-07-22T12:31:26.000Z</time>
      </trkpt>
      <trkpt lat="54.667859" lon="9.410177">
        <ele>91.389553</ele>
        <time>2021-07-22T12:31:29.000Z</time>
      </trkpt>
      <trkpt lat="54.667815" lon="9.410185">
        <ele>91.327669</ele>
        <time>2021-07-22T12:31:32.000Z</time>
      </trkpt>
      <trkpt lat="54.667751" lon="9.410165">
        <ele>91.236699</ele>
        <time>2021-07-22T12:31:36.000Z</time>
      </trkpt>
      <trkpt lat="54.667641" lon="9.410089">
        <ele>91.071009</ele>
        <time>2021-07-22T12:31:44.000Z</time>
      </trkpt>
      <trkpt lat="54.667541" lon="9.410075">
        <ele>90.930676</ele>
        <time>2021-07-22T12:31:50.000Z</time>
      </trkpt>
      <trkpt lat="54.667509" lon="9.410070">
        <ele>90.885734</ele>
        <time>2021-07-22T12:31:52.000Z</time>
      </trkpt>
      <trkpt lat="54.667390" lon="9.410032">
        <ele>90.716468</ele>
        <time>2021-07-22T12:31:59.000Z</time>
      </trkpt>
      <trkpt lat="54.667267" lon="9.410031">
        <ele>90.544420</ele>
        <time>2021-07-22T12:32:07.000Z</time>
      </trkpt>
      <trkpt lat="54.667156" lon="9.409990">
        <ele>90.385656</ele>
        <time>2021-07-22T12:32:14.000Z</time>
      </trkpt>
      <trkpt lat="54.667061" lon="9.409942">
        <ele>90.247219</ele>
        <time>2021-07-22T12:32:21.000Z</time>
      </trkpt>
      <trkpt lat="54.666938" lon="9.409908">
        <ele>90.072988</ele>
        <time>2021-07-22T12:32:28.000Z</time>
      </trkpt>
      <trkpt lat="54.666853" lon="9.409925">
        <ele>89.953302</ele>
        <time>2021-07-22T12:32:33.000Z</time>
      </trkpt>
      <trkpt lat="54.666823" lon="9.409923">
        <ele>89.911308</ele>
        <time>2021-07-22T12:32:35.000Z</time>
      </trkpt>
      <trkpt lat="54.666692" lon="9.409948">
        <ele>89.638706</ele>
        <time>2021-07-22T12:32:44.000Z</time>
      </trkpt>
      <trkpt lat="54.666641" lon="9.410033">
        <ele>89.451459</ele>
        <time>2021-07-22T12:32:49.000Z</time>
      </trkpt>
      <trkpt lat="54.666626" lon="9.410065">
        <ele>89.388486</ele>
        <time>2021-07-22T12:32:51.000Z</time>
      </trkpt>
      <trkpt lat="54.666582" lon="9.410168">
        <ele>89.192721</ele>
        <time>2021-07-22T12:32:58.000Z</time>
      </trkpt>
      <trkpt lat="54.666596" lon="9.410241">
        <ele>89.075143</ele>
        <time>2021-07-22T12:33:04.000Z</time>
      </trkpt>
      <trkpt lat="54.666535" lon="9.410249">
        <ele>88.913430</ele>
        <time>2021-07-22T12:33:09.000Z</time>
      </trkpt>
      <trkpt lat="54.666502" lon="9.410247">
        <ele>88.826143</ele>
        <time>2021-07-22T12:33:12.000Z</time>
      </trkpt>
      <trkpt lat="54.666429" lon="9.410275">
        <ele>88.628481</ele>
        <time>2021-07-22T12:33:16.000Z</time>
      </trkpt>
      <trkpt lat="54.666365" lon="9.410302">
        <ele>88.454337</ele>
        <time>2021-07-22T12:33:19.000Z</time>
      </trkpt>
      <trkpt lat="54.666314" lon="9.410295">
        <ele>88.319098</ele>
        <time>2021-07-22T12:33:23.000Z</time>
      </trkpt>
      <trkpt lat="54.666302" lon="9.410286">
        <ele>88.284521</ele>
        <time>2021-07-22T12:33:24.000Z</time>
      </trkpt>
      <trkpt lat="54.666215" lon="9.410247">
        <ele>88.046938</ele>
        <time>2021-07-22T12:33:30.000Z</time>
      </trkpt>
      <trkpt lat="54.666200" lon="9.410238">
        <ele>88.004967</ele>
        <time>2021-07-22T12:33:31.000Z</time>
      </trkpt>
      <trkpt lat="54.666178" lon="9.410216">
        <ele>87.937786</ele>
        <time>2021-07-22T12:33:33.000Z</time>
      </trkpt>
      <trkpt lat="54.666082" lon="9.410165">
        <ele>87.672307</ele>
        <time>2021-07-22T12:33:40.000Z</time>
      </trkpt>
      <trkpt lat="54.665942" lon="9.410064">
        <ele>87.271304</ele>
        <time>2021-07-22T12:33:49.000Z</time>
      </trkpt>
      <trkpt lat="54.665840" lon="9.410049">
        <ele>87.000700</ele>
        <time>2021-07-22T12:33:55.000Z</time>
      </trkpt>
      <trkpt lat="54.665781" lon="9.409959">
        <ele>86.792717</ele>
        <time>2021-07-22T12:33:59.000Z</time>
      </trkpt>
      <trkpt lat="54.665742" lon="9.409889">
        <ele>86.644120</ele>
        <time>2021-07-22T12:34:02.000Z</time>
      </trkpt>
      <trkpt lat="54.665650" lon="9.409789">
        <ele>86.356861</ele>
        <time>2021-07-22T12:34:09.000Z</time>
      </trkpt>
      <trkpt lat="54.665524" lon="9.409732">
        <ele>86.012576</ele>
        <time>2021-07-22T12:34:17.000Z</time>
      </trkpt>
      <trkpt lat="54.665491" lon="9.409709">
        <ele>85.918522</ele>
        <time>2021-07-22T12:34:19.000Z</time>
      </trkpt>
      <trkpt lat="54.665441" lon="9.409704">
        <ele>85.786128</ele>
        <time>2021-07-22T12:34:22.000Z</time>
      </trkpt>
      <trkpt lat="54.665433" lon="9.409719">
        <ele>85.754934</ele>
        <time>2021-07-22T12:34:23.000Z</time>
      </trkpt>
      <trkpt lat="54.665424" lon="9.409758">
        <ele>85.690738</ele>
        <time>2021-07-22T12:34:25.000Z</time>
      </trkpt>
      <trkpt lat="54.665426" lon="9.409856">
        <ele>85.540819</ele>
        <time>2021-07-22T12:34:29.000Z</time>
      </trkpt>
      <trkpt lat="54.665435" lon="9.410017">
        <ele>85.293529</ele>
        <time>2021-07-22T12:34:35.000Z</time>
      </trkpt>
      <trkpt lat="54.665432" lon="9.410046">
        <ele>85.248489</ele>
        <time>2021-07-22T12:34:36.000Z</time>
      </trkpt>
      <trkpt lat="54.665428" lon="9.410072">
        <ele>85.207357</ele>
        <time>2021-07-22T12:34:37.000Z</time>
      </trkpt>
      <trkpt lat="54.665421" lon="9.410269">
        <ele>85.252966</ele>
        <time>2021-07-22T12:34:44.000Z</time>
      </trkpt>
      <trkpt lat="54.665389" lon="9.410508">
        <ele>85.663126</ele>
        <time>2021-07-22T12:34:52.000Z</time>
      </trkpt>
      <trkpt lat="54.665359" lon="9.410591">
        <ele>85.826767</ele>
        <time>2021-07-22T12:34:56.000Z</time>
      </trkpt>
      <trkpt lat="54.665350" lon="9.410684">
        <ele>85.984419</ele>
        <time>2021-07-22T12:35:00.000Z</time>
      </trkpt>
      <trkpt lat="54.665341" lon="9.410695">
        <ele>86.016281</ele>
        <time>2021-07-22T12:35:01.000Z</time>
      </trkpt>
      <trkpt lat="54.665301" lon="9.410750">
        <ele>86.164022</ele>
        <time>2021-07-22T12:35:05.000Z</time>
      </trkpt>
      <trkpt lat="54.665285" lon="9.410759">
        <ele>86.212661</ele>
        <time>2021-07-22T12:35:06.000Z</time>
      </trkpt>
      <trkpt lat="54.665214" lon="9.410748">
        <ele>86.418735</ele>
        <time>2021-07-22T12:35:11.000Z</time>
      </trkpt>
      <trkpt lat="54.665172" lon="9.410709">
        <ele>86.556553</ele>
        <time>2021-07-22T12:35:14.000Z</time>
      </trkpt>
      <trkpt lat="54.665066" lon="9.410632">
        <ele>86.888929</ele>
        <time>2021-07-22T12:35:20.000Z</time>
      </trkpt>
      <trkpt lat="54.665034" lon="9.410605">
        <ele>86.991864</ele>
        <time>2021-07-22T12:35:22.000Z</time>
      </trkpt>
      <trkpt lat="54.664969" lon="9.410488">
        <ele>87.263111</ele>
        <time>2021-07-22T12:35:29.000Z</time>
      </trkpt>
      <trkpt lat="54.664889" lon="9.410321">
        <ele>87.625667</ele>
        <time>2021-07-22T12:35:37.000Z</time>
      </trkpt>
      <trkpt lat="54.664856" lon="9.410227">
        <ele>87.809519</ele>
        <time>2021-07-22T12:35:41.000Z</time>
      </trkpt>
      <trkpt lat="54.664782" lon="9.410136">
        <ele>88.072030</ele>
        <time>2021-07-22T12:35:46.000Z</time>
      </trkpt>
      <trkpt lat="54.664738" lon="9.410021">
        <ele>88.302571</ele>
        <time>2021-07-22T12:35:51.000Z</time>
      </trkpt>
      <trkpt lat="54.664710" lon="9.409984">
        <ele>88.404448</ele>
        <time>2021-07-22T12:35:53.000Z</time>
      </trkpt>
      <trkpt lat="54.664691" lon="9.409963">
        <ele>88.469638</ele>
        <time>2021-07-22T12:35:55.000Z</time>
      </trkpt>
      <trkpt lat="54.664660" lon="9.409940">
        <ele>88.567157</ele>
        <time>2021-07-22T12:35:57.000Z</time>
      </trkpt>
      <trkpt lat="54.664622" lon="9.409903">
        <ele>88.693231</ele>
        <time>2021-07-22T12:35:59.000Z</time>
      </trkpt>
      <trkpt lat="54.664556" lon="9.409820">
        <ele>88.929158</ele>
        <time>2021-07-22T12:36:03.000Z</time>
      </trkpt>
      <trkpt lat="54.664527" lon="9.409772">
        <ele>89.045214</ele>
        <time>2021-07-22T12:36:06.000Z</time>
      </trkpt>
      <trkpt lat="54.664491" lon="9.409734">
        <ele>89.167147</ele>
        <time>2021-07-22T12:36:09.000Z</time>
      </trkpt>
      <trkpt lat="54.664456" lon="9.409734">
        <ele>89.268327</ele>
        <time>2021-07-22T12:36:11.000Z</time>
      </trkpt>
      <trkpt lat="54.664423" lon="9.409717">
        <ele>89.367870</ele>
        <time>2021-07-22T12:36:13.000Z</time>
      </trkpt>
      <trkpt lat="54.664364" lon="9.409628">
        <ele>89.594219</ele>
        <time>2021-07-22T12:36:19.000Z</time>
      </trkpt>
      <trkpt lat="54.664351" lon="9.409622">
        <ele>89.633116</ele>
        <time>2021-07-22T12:36:20.000Z</time>
      </trkpt>
      <trkpt lat="54.664331" lon="9.409604">
        <ele>89.698298</ele>
        <time>2021-07-22T12:36:22.000Z</time>
      </trkpt>
      <trkpt lat="54.664310" lon="9.409581">
        <ele>89.770161</ele>
        <time>2021-07-22T12:36:24.000Z</time>
      </trkpt>
      <trkpt lat="54.664293" lon="9.409575">
        <ele>89.820319</ele>
        <time>2021-07-22T12:36:26.000Z</time>
      </trkpt>
      <trkpt lat="54.664272" lon="9.409561">
        <ele>89.885383</ele>
        <time>2021-07-22T12:36:28.000Z</time>
      </trkpt>
      <trkpt lat="54.664256" lon="9.409549">
        <ele>89.935801</ele>
        <time>2021-07-22T12:36:29.000Z</time>
      </trkpt>
      <trkpt lat="54.664106" lon="9.409469">
        <ele>90.175796</ele>
        <time>2021-07-22T12:36:36.000Z</time>
      </trkpt>
      <trkpt lat="54.664027" lon="9.409342">
        <ele>89.924715</ele>
        <time>2021-07-22T12:36:43.000Z</time>
      </trkpt>
      <trkpt lat="54.663939" lon="9.409206">
        <ele>89.649990</ele>
        <time>2021-07-22T12:36:49.000Z</time>
      </trkpt>
      <trkpt lat="54.663870" lon="9.409082">
        <ele>89.418347</ele>
        <time>2021-07-22T12:36:56.000Z</time>
      </trkpt>
      <trkpt lat="54.663838" lon="9.409039">
        <ele>89.324014</ele>
        <time>2021-07-22T12:37:00.000Z</time>
      </trkpt>
      <trkpt lat="54.663845" lon="9.409023">
        <ele>89.297007</ele>
        <time>2021-07-22T12:37:02.000Z</time>
      </trkpt>
      <trkpt lat="54.663836" lon="9.408999">
        <ele>89.258501</ele>
        <time>2021-07-22T12:37:05.000Z</time>
      </trkpt>
      <trkpt lat="54.663845" lon="9.408937">
        <ele>89.172447</ele>
        <time>2021-07-22T12:37:08.000Z</time>
      </trkpt>
      <trkpt lat="54.663840" lon="9.408883">
        <ele>89.098827</ele>
        <time>2021-07-22T12:37:10.000Z</time>
      </trkpt>
      <trkpt lat="54.663837" lon="9.408815">
        <ele>89.007018</ele>
        <time>2021-07-22T12:37:14.000Z</time>
      </trkpt>
      <trkpt lat="54.663834" lon="9.408787">
        <ele>88.968683</ele>
        <time>2021-07-22T12:37:16.000Z</time>
      </trkpt>
      <trkpt lat="54.663843" lon="9.408764">
        <ele>88.931300</ele>
        <time>2021-07-22T12:37:18.000Z</time>
      </trkpt>
      <trkpt lat="54.663847" lon="9.408626">
        <ele>88.745290</ele>
        <time>2021-07-22T12:37:21.000Z</time>
      </trkpt>
      <trkpt lat="54.663815" lon="9.408504">
        <ele>88.564952</ele>
        <time>2021-07-22T12:37:25.000Z</time>
      </trkpt>
      <trkpt lat="54.663799" lon="9.408483">
        <ele>88.518196</ele>
        <time>2021-07-22T12:37:27.000Z</time>
      </trkpt>
      <trkpt lat="54.663788" lon="9.408467">
        <ele>88.484738</ele>
        <time>2021-07-22T12:37:28.000Z</time>
      </trkpt>
      <trkpt lat="54.663764" lon="9.408426">
        <ele>88.406207</ele>
        <time>2021-07-22T12:37:31.000Z</time>
      </trkpt>
      <trkpt lat="54.663749" lon="9.408391">
        <ele>88.347564</ele>
        <time>2021-07-22T12:37:33.000Z</time>
      </trkpt>
      <trkpt lat="54.663734" lon="9.408358">
        <ele>88.291062</ele>
        <time>2021-07-22T12:37:35.000Z</time>
      </trkpt>
      <trkpt lat="54.663702" lon="9.408320">
        <ele>88.200703</ele>
        <time>2021-07-22T12:37:38.000Z</time>
      </trkpt>
      <trkpt lat="54.663694" lon="9.408310">
        <ele>88.177726</ele>
        <time>2021-07-22T12:37:39.000Z</time>
      </trkpt>
      <trkpt lat="54.663674" lon="9.408271">
        <ele>88.107558</ele>
        <time>2021-07-22T12:37:41.000Z</time>
      </trkpt>
      <trkpt lat="54.663650" lon="9.408224">
        <ele>88.023155</ele>
        <time>2021-07-22T12:37:44.000Z</time>
      </trkpt>
      <trkpt lat="54.663650" lon="9.408221">
        <ele>88.019116</ele>
        <time>2021-07-22T12:37:45.000Z</time>
      </trkpt>
      <trkpt lat="54.663626" lon="9.408190">
        <ele>87.949387</ele>
        <time>2021-07-22T12:37:48.000Z</time>
      </trkpt>
      <trkpt lat="54.663614" lon="9.408108">
        <ele>87.835518</ele>
        <time>2021-07-22T12:37:52.000Z</time>
      </trkpt>
      <trkpt lat="54.663595" lon="9.407969">
        <ele>87.643239</ele>
        <time>2021-07-22T12:37:59.000Z</time>
      </trkpt>
      <trkpt lat="54.663552" lon="9.407878">
        <ele>87.485047</ele>
        <time>2021-07-22T12:38:03.000Z</time>
      </trkpt>
      <trkpt lat="54.663515" lon="9.407810">
        <ele>87.359361</ele>
        <time>2021-07-22T12:38:06.000Z</time>
      </trkpt>
      <trkpt lat="54.663494" lon="9.407763">
        <ele>87.279408</ele>
        <time>2021-07-22T12:38:10.000Z</time>
      </trkpt>
      <trkpt lat="54.663474" lon="9.407731">
        <ele>87.215982</ele>
        <time>2021-07-22T12:38:12.000Z</time>
      </trkpt>
      <trkpt lat="54.663465" lon="9.407713">
        <ele>87.183950</ele>
        <time>2021-07-22T12:38:13.000Z</time>
      </trkpt>
      <trkpt lat="54.663422" lon="9.407639">
        <ele>87.042736</ele>
        <time>2021-07-22T12:38:19.000Z</time>
      </trkpt>
      <trkpt lat="54.663369" lon="9.407594">
        <ele>86.905302</ele>
        <time>2021-07-22T12:38:23.000Z</time>
      </trkpt>
      <trkpt lat="54.663347" lon="9.407586">
        <ele>86.852975</ele>
        <time>2021-07-22T12:38:25.000Z</time>
      </trkpt>
      <trkpt lat="54.663327" lon="9.407573">
        <ele>86.803243</ele>
        <time>2021-07-22T12:38:27.000Z</time>
      </trkpt>
      <trkpt lat="54.663309" lon="9.407558">
        <ele>86.756734</ele>
        <time>2021-07-22T12:38:29.000Z</time>
      </trkpt>
      <trkpt lat="54.663271" lon="9.407551">
        <ele>86.667785</ele>
        <time>2021-07-22T12:38:32.000Z</time>
      </trkpt>
      <trkpt lat="54.663208" lon="9.407536">
        <ele>86.519763</ele>
        <time>2021-07-22T12:38:36.000Z</time>
      </trkpt>
      <trkpt lat="54.663168" lon="9.407530">
        <ele>86.426310</ele>
        <time>2021-07-22T12:38:39.000Z</time>
      </trkpt>
      <trkpt lat="54.663078" lon="9.407474">
        <ele>86.203675</ele>
        <time>2021-07-22T12:38:46.000Z</time>
      </trkpt>
      <trkpt lat="54.662952" lon="9.407410">
        <ele>86.009465</ele>
        <time>2021-07-22T12:38:54.000Z</time>
      </trkpt>
      <trkpt lat="54.662850" lon="9.407361">
        <ele>85.910192</ele>
        <time>2021-07-22T12:39:00.000Z</time>
      </trkpt>
      <trkpt lat="54.662757" lon="9.407294">
        <ele>85.815713</ele>
        <time>2021-07-22T12:39:06.000Z</time>
      </trkpt>
      <trkpt lat="54.662740" lon="9.407281">
        <ele>85.798282</ele>
        <time>2021-07-22T12:39:07.000Z</time>
      </trkpt>
      <trkpt lat="54.662668" lon="9.407218">
        <ele>85.722610</ele>
        <time>2021-07-22T12:39:12.000Z</time>
      </trkpt>
      <trkpt lat="54.662589" lon="9.407056">
        <ele>85.607682</ele>
        <time>2021-07-22T12:39:20.000Z</time>
      </trkpt>
      <trkpt lat="54.662522" lon="9.406899">
        <ele>85.501858</ele>
        <time>2021-07-22T12:39:27.000Z</time>
      </trkpt>
      <trkpt lat="54.662416" lon="9.406799">
        <ele>85.388622</ele>
        <time>2021-07-22T12:39:34.000Z</time>
      </trkpt>
      <trkpt lat="54.662297" lon="9.406718">
        <ele>85.268694</ele>
        <time>2021-07-22T12:39:42.000Z</time>
      </trkpt>
      <trkpt lat="54.662213" lon="9.406616">
        <ele>85.172437</ele>
        <time>2021-07-22T12:39:48.000Z</time>
      </trkpt>
      <trkpt lat="54.662198" lon="9.406607">
        <ele>85.157548</ele>
        <time>2021-07-22T12:39:49.000Z</time>
      </trkpt>
      <trkpt lat="54.662116" lon="9.406492">
        <ele>85.058536</ele>
        <time>2021-07-22T12:39:56.000Z</time>
      </trkpt>
      <trkpt lat="54.662013" lon="9.406384">
        <ele>84.945573</ele>
        <time>2021-07-22T12:40:04.000Z</time>
      </trkpt>
      <trkpt lat="54.661882" lon="9.406301">
        <ele>84.814740</ele>
        <time>2021-07-22T12:40:12.000Z</time>
      </trkpt>
      <trkpt lat="54.661784" lon="9.406245">
        <ele>84.717951</ele>
        <time>2021-07-22T12:40:18.000Z</time>
      </trkpt>
      <trkpt lat="54.661768" lon="9.406222">
        <ele>84.698439</ele>
        <time>2021-07-22T12:40:19.000Z</time>
      </trkpt>
      <trkpt lat="54.661686" lon="9.406113">
        <ele>84.601443</ele>
        <time>2021-07-22T12:40:25.000Z</time>
      </trkpt>
      <trkpt lat="54.661638" lon="9.406001">
        <ele>84.525836</ele>
        <time>2021-07-22T12:40:30.000Z</time>
      </trkpt>
      <trkpt lat="54.661657" lon="9.405940">
        <ele>84.488258</ele>
        <time>2021-07-22T12:40:33.000Z</time>
      </trkpt>
      <trkpt lat="54.661707" lon="9.405896">
        <ele>84.435646</ele>
        <time>2021-07-22T12:40:37.000Z</time>
      </trkpt>
      <trkpt lat="54.661718" lon="9.405881">
        <ele>84.422509</ele>
        <time>2021-07-22T12:40:38.000Z</time>
      </trkpt>
      <trkpt lat="54.661803" lon="9.405735">
        <ele>84.537380</ele>
        <time>2021-07-22T12:40:45.000Z</time>
      </trkpt>
      <trkpt lat="54.661883" lon="9.405615">
        <ele>84.694953</ele>
        <time>2021-07-22T12:40:51.000Z</time>
      </trkpt>
      <trkpt lat="54.661902" lon="9.405580">
        <ele>84.736259</ele>
        <time>2021-07-22T12:40:53.000Z</time>
      </trkpt>
      <trkpt lat="54.661916" lon="9.405555">
        <ele>84.766203</ele>
        <time>2021-07-22T12:40:58.000Z</time>
      </trkpt>
      <trkpt lat="54.661944" lon="9.405524">
        <ele>84.815669</ele>
        <time>2021-07-22T12:41:04.000Z</time>
      </trkpt>
      <trkpt lat="54.661952" lon="9.405510">
        <ele>84.832604</ele>
        <time>2021-07-22T12:41:09.000Z</time>
      </trkpt>
      <trkpt lat="54.661959" lon="9.405484">
        <ele>84.857283</ele>
        <time>2021-07-22T12:41:11.000Z</time>
      </trkpt>
      <trkpt lat="54.661996" lon="9.405428">
        <ele>84.930443</ele>
        <time>2021-07-22T12:41:18.000Z</time>
      </trkpt>
      <trkpt lat="54.662014" lon="9.405397">
        <ele>84.968242</ele>
        <time>2021-07-22T12:41:20.000Z</time>
      </trkpt>
      <trkpt lat="54.662028" lon="9.405269">
        <ele>85.080341</ele>
        <time>2021-07-22T12:41:25.000Z</time>
      </trkpt>
      <trkpt lat="54.662032" lon="9.405251">
        <ele>85.096934</ele>
        <time>2021-07-22T12:41:26.000Z</time>
      </trkpt>
      <trkpt lat="54.662037" lon="9.405230">
        <ele>85.116476</ele>
        <time>2021-07-22T12:41:29.000Z</time>
      </trkpt>
      <trkpt lat="54.662034" lon="9.405218">
        <ele>85.127725</ele>
        <time>2021-07-22T12:41:30.000Z</time>
      </trkpt>
      <trkpt lat="54.662028" lon="9.405170">
        <ele>85.169984</ele>
        <time>2021-07-22T12:41:32.000Z</time>
      </trkpt>
      <trkpt lat="54.662021" lon="9.405067">
        <ele>85.259227</ele>
        <time>2021-07-22T12:41:36.000Z</time>
      </trkpt>
      <trkpt lat="54.662023" lon="9.405011">
        <ele>85.307508</ele>
        <time>2021-07-22T12:41:38.000Z</time>
      </trkpt>
      <trkpt lat="54.662020" lon="9.404803">
        <ele>85.486552</ele>
        <time>2021-07-22T12:41:46.000Z</time>
      </trkpt>
      <trkpt lat="54.662013" lon="9.404670">
        <ele>85.601473</ele>
        <time>2021-07-22T12:41:51.000Z</time>
      </trkpt>
      <trkpt lat="54.662016" lon="9.404642">
        <ele>85.625978</ele>
        <time>2021-07-22T12:41:52.000Z</time>
      </trkpt>
      <trkpt lat="54.662034" lon="9.404393">
        <ele>85.841914</ele>
        <time>2021-07-22T12:42:01.000Z</time>
      </trkpt>
      <trkpt lat="54.662034" lon="9.404365">
        <ele>85.866009</ele>
        <time>2021-07-22T12:42:02.000Z</time>
      </trkpt>
      <trkpt lat="54.662023" lon="9.404166">
        <ele>86.038032</ele>
        <time>2021-07-22T12:42:09.000Z</time>
      </trkpt>
      <trkpt lat="54.662019" lon="9.404024">
        <ele>86.160371</ele>
        <time>2021-07-22T12:42:14.000Z</time>
      </trkpt>
      <trkpt lat="54.662018" lon="9.403944">
        <ele>86.229228</ele>
        <time>2021-07-22T12:42:17.000Z</time>
      </trkpt>
      <trkpt lat="54.662009" lon="9.403753">
        <ele>86.394132</ele>
        <time>2021-07-22T12:42:24.000Z</time>
      </trkpt>
      <trkpt lat="54.662004" lon="9.403592">
        <ele>86.532875</ele>
        <time>2021-07-22T12:42:29.000Z</time>
      </trkpt>
      <trkpt lat="54.662007" lon="9.403505">
        <ele>86.607873</ele>
        <time>2021-07-22T12:42:32.000Z</time>
      </trkpt>
      <trkpt lat="54.662059" lon="9.403348">
        <ele>86.763557</ele>
        <time>2021-07-22T12:42:39.000Z</time>
      </trkpt>
      <trkpt lat="54.662129" lon="9.403303">
        <ele>86.874667</ele>
        <time>2021-07-22T12:42:44.000Z</time>
      </trkpt>
      <trkpt lat="54.662183" lon="9.403289">
        <ele>86.955904</ele>
        <time>2021-07-22T12:42:47.000Z</time>
      </trkpt>
      <trkpt lat="54.662283" lon="9.403203">
        <ele>87.101411</ele>
        <time>2021-07-22T12:42:54.000Z</time>
      </trkpt>
      <trkpt lat="54.662325" lon="9.403156">
        <ele>87.143886</ele>
        <time>2021-07-22T12:42:58.000Z</time>
      </trkpt>
      <trkpt lat="54.662352" lon="9.403147">
        <ele>87.167231</ele>
        <time>2021-07-22T12:43:00.000Z</time>
      </trkpt>
      <trkpt lat="54.662367" lon="9.403056">
        <ele>87.213696</ele>
        <time>2021-07-22T12:43:05.000Z</time>
      </trkpt>
      <trkpt lat="54.662363" lon="9.403034">
        <ele>87.225021</ele>
        <time>2021-07-22T12:43:06.000Z</time>
      </trkpt>
      <trkpt lat="54.662360" lon="9.402959">
        <ele>87.261937</ele>
        <time>2021-07-22T12:43:09.000Z</time>
      </trkpt>
      <trkpt lat="54.662353" lon="9.402935">
        <ele>87.275136</ele>
        <time>2021-07-22T12:43:10.000Z</time>
      </trkpt>
      <trkpt lat="54.662351" lon="9.402904">
        <ele>87.290453</ele>
        <time>2021-07-22T12:43:11.000Z</time>
      </trkpt>
      <trkpt lat="54.662351" lon="9.402693">
        <ele>87.394065</ele>
        <time>2021-07-22T12:43:17.000Z</time>
      </trkpt>
      <trkpt lat="54.662295" lon="9.402550">
        <ele>87.478866</ele>
        <time>2021-07-22T12:43:22.000Z</time>
      </trkpt>
      <trkpt lat="54.662236" lon="9.402422">
        <ele>87.559239</ele>
        <time>2021-07-22T12:43:28.000Z</time>
      </trkpt>
      <trkpt lat="54.662214" lon="9.402309">
        <ele>87.617787</ele>
        <time>2021-07-22T12:43:34.000Z</time>
      </trkpt>
      <trkpt lat="54.662163" lon="9.402161">
        <ele>87.702383</ele>
        <time>2021-07-22T12:43:41.000Z</time>
      </trkpt>
      <trkpt lat="54.662089" lon="9.402057">
        <ele>87.783347</ele>
        <time>2021-07-22T12:43:48.000Z</time>
      </trkpt>
      <trkpt lat="54.662023" lon="9.401994">
        <ele>87.847353</ele>
        <time>2021-07-22T12:43:54.000Z</time>
      </trkpt>
      <trkpt lat="54.662010" lon="9.401984">
        <ele>87.859433</ele>
        <time>2021-07-22T12:43:55.000Z</time>
      </trkpt>
      <trkpt lat="54.661893" lon="9.401912">
        <ele>87.964870</ele>
        <time>2021-07-22T12:44:02.000Z</time>
      </trkpt>
      <trkpt lat="54.661790" lon="9.401866">
        <ele>88.055186</ele>
        <time>2021-07-22T12:44:08.000Z</time>
      </trkpt>
      <trkpt lat="54.661748" lon="9.401849">
        <ele>88.091808</ele>
        <time>2021-07-22T12:44:13.000Z</time>
      </trkpt>
      <trkpt lat="54.661716" lon="9.401814">
        <ele>88.123956</ele>
        <time>2021-07-22T12:44:15.000Z</time>
      </trkpt>
      <trkpt lat="54.661614" lon="9.401769">
        <ele>88.213328</ele>
        <time>2021-07-22T12:44:22.000Z</time>
      </trkpt>
      <trkpt lat="54.661534" lon="9.401765">
        <ele>88.281275</ele>
        <time>2021-07-22T12:44:27.000Z</time>
      </trkpt>
      <trkpt lat="54.661519" lon="9.401766">
        <ele>88.294020</ele>
        <time>2021-07-22T12:44:28.000Z</time>
      </trkpt>
      <trkpt lat="54.661493" lon="9.401755">
        <ele>88.316745</ele>
        <time>2021-07-22T12:44:30.000Z</time>
      </trkpt>
      <trkpt lat="54.661433" lon="9.401706">
        <ele>88.373081</ele>
        <time>2021-07-22T12:44:35.000Z</time>
      </trkpt>
      <trkpt lat="54.661327" lon="9.401586">
        <ele>88.480651</ele>
        <time>2021-07-22T12:44:42.000Z</time>
      </trkpt>
      <trkpt lat="54.661221" lon="9.401528">
        <ele>88.575043</ele>
        <time>2021-07-22T12:44:49.000Z</time>
      </trkpt>
      <trkpt lat="54.661129" lon="9.401501">
        <ele>88.634907</ele>
        <time>2021-07-22T12:44:55.000Z</time>
      </trkpt>
      <trkpt lat="54.661116" lon="9.401484">
        <ele>88.643717</ele>
        <time>2021-07-22T12:44:56.000Z</time>
      </trkpt>
      <trkpt lat="54.661018" lon="9.401394">
        <ele>88.703695</ele>
        <time>2021-07-22T12:45:03.000Z</time>
      </trkpt>
      <trkpt lat="54.660923" lon="9.401336">
        <ele>88.758150</ele>
        <time>2021-07-22T12:45:09.000Z</time>
      </trkpt>
      <trkpt lat="54.660902" lon="9.401291">
        <ele>88.776226</ele>
        <time>2021-07-22T12:45:11.000Z</time>
      </trkpt>
      <trkpt lat="54.660847" lon="9.401150">
        <ele>88.829394</ele>
        <time>2021-07-22T12:45:17.000Z</time>
      </trkpt>
      <trkpt lat="54.660811" lon="9.401103">
        <ele>88.853777</ele>
        <time>2021-07-22T12:45:20.000Z</time>
      </trkpt>
      <trkpt lat="54.660772" lon="9.401051">
        <ele>88.880397</ele>
        <time>2021-07-22T12:45:24.000Z</time>
      </trkpt>
      <trkpt lat="54.660702" lon="9.401007">
        <ele>88.920655</ele>
        <time>2021-07-22T12:45:29.000Z</time>
      </trkpt>
      <trkpt lat="54.660678" lon="9.400990">
        <ele>88.934673</ele>
        <time>2021-07-22T12:45:31.000Z</time>
      </trkpt>
      <trkpt lat="54.660556" lon="9.400972">
        <ele>89.000853</ele>
        <time>2021-07-22T12:45:38.000Z</time>
      </trkpt>
      <trkpt lat="54.660456" lon="9.400943">
        <ele>89.055658</ele>
        <time>2021-07-22T12:45:44.000Z</time>
      </trkpt>
      <trkpt lat="54.660428" lon="9.400903">
        <ele>89.075290</ele>
        <time>2021-07-22T12:45:47.000Z</time>
      </trkpt>
      <trkpt lat="54.660423" lon="9.400874">
        <ele>89.084751</ele>
        <time>2021-07-22T12:45:49.000Z</time>
      </trkpt>
      <trkpt lat="54.660421" lon="9.400869">
        <ele>89.086652</ele>
        <time>2021-07-22T12:45:50.000Z</time>
      </trkpt>
      <trkpt lat="54.660419" lon="9.400870">
        <ele>89.087777</ele>
        <time>2021-07-22T12:45:51.000Z</time>
      </trkpt>
      <trkpt lat="54.660372" lon="9.400873">
        <ele>89.113198</ele>
        <time>2021-07-22T12:45:57.000Z</time>
      </trkpt>
      <trkpt lat="54.660359" lon="9.400853">
        <ele>89.122603</ele>
        <time>2021-07-22T12:45:58.000Z</time>
      </trkpt>
      <trkpt lat="54.660331" lon="9.400818">
        <ele>89.141279</ele>
        <time>2021-07-22T12:46:00.000Z</time>
      </trkpt>
      <trkpt lat="54.660291" lon="9.400738">
        <ele>89.174339</ele>
        <time>2021-07-22T12:46:03.000Z</time>
      </trkpt>
      <trkpt lat="54.660221" lon="9.400644">
        <ele>89.222246</ele>
        <time>2021-07-22T12:46:10.000Z</time>
      </trkpt>
      <trkpt lat="54.660122" lon="9.400580">
        <ele>89.279374</ele>
        <time>2021-07-22T12:46:17.000Z</time>
      </trkpt>
      <trkpt lat="54.660094" lon="9.400549">
        <ele>89.297345</ele>
        <time>2021-07-22T12:46:20.000Z</time>
      </trkpt>
      <trkpt lat="54.660065" lon="9.400526">
        <ele>89.314590</ele>
        <time>2021-07-22T12:46:22.000Z</time>
      </trkpt>
      <trkpt lat="54.660038" lon="9.400486">
        <ele>89.333809</ele>
        <time>2021-07-22T12:46:24.000Z</time>
      </trkpt>
      <trkpt lat="54.659891" lon="9.400415">
        <ele>89.416304</ele>
        <time>2021-07-22T12:46:30.000Z</time>
      </trkpt>
      <trkpt lat="54.659844" lon="9.400367">
        <ele>89.445809</ele>
        <time>2021-07-22T12:46:33.000Z</time>
      </trkpt>
      <trkpt lat="54.659807" lon="9.400287">
        <ele>89.477832</ele>
        <time>2021-07-22T12:46:37.000Z</time>
      </trkpt>
      <trkpt lat="54.659733" lon="9.400164">
        <ele>89.533317</ele>
        <time>2021-07-22T12:46:44.000Z</time>
      </trkpt>
      <trkpt lat="54.659669" lon="9.400016">
        <ele>89.573147</ele>
        <time>2021-07-22T12:46:51.000Z</time>
      </trkpt>
      <trkpt lat="54.659660" lon="9.399991">
        <ele>89.573147</ele>
        <time>2021-07-22T12:46:52.000Z</time>
      </trkpt>
      <trkpt lat="54.659651" lon="9.399963">
        <ele>89.573147</ele>
        <time>2021-07-22T12:46:53.000Z</time>
      </trkpt>
      <trkpt lat="54.659585" lon="9.399864">
        <ele>89.573147</ele>
        <time>2021-07-22T12:46:58.000Z</time>
      </trkpt>
      <trkpt lat="54.659503" lon="9.399658">
        <ele>89.573147</ele>
        <time>2021-07-22T12:47:06.000Z</time>
      </trkpt>
      <trkpt lat="54.659558" lon="9.399488">
        <ele>89.573147</ele>
        <time>2021-07-22T12:47:13.000Z</time>
      </trkpt>
      <trkpt lat="54.659596" lon="9.399396">
        <ele>89.573147</ele>
        <time>2021-07-22T12:47:17.000Z</time>
      </trkpt>
      <trkpt lat="54.659639" lon="9.399287">
        <ele>89.573147</ele>
        <time>2021-07-22T12:47:22.000Z</time>
      </trkpt>
      <trkpt lat="54.659679" lon="9.399145">
        <ele>89.573147</ele>
        <time>2021-07-22T12:47:28.000Z</time>
      </trkpt>
      <trkpt lat="54.659713" lon="9.398984">
        <ele>89.573147</ele>
        <time>2021-07-22T12:47:34.000Z</time>
      </trkpt>
      <trkpt lat="54.659727" lon="9.398896">
        <ele>89.573147</ele>
        <time>2021-07-22T12:47:37.000Z</time>
      </trkpt>
      <trkpt lat="54.659777" lon="9.398673">
        <ele>89.573147</ele>
        <time>2021-07-22T12:47:45.000Z</time>
      </trkpt>
      <trkpt lat="54.659850" lon="9.398486">
        <ele>89.573147</ele>
        <time>2021-07-22T12:47:53.000Z</time>
      </trkpt>
      <trkpt lat="54.659891" lon="9.398296">
        <ele>89.573147</ele>
        <time>2021-07-22T12:48:00.000Z</time>
      </trkpt>
      <trkpt lat="54.659899" lon="9.398264">
        <ele>89.573147</ele>
        <time>2021-07-22T12:48:01.000Z</time>
      </trkpt>
      <trkpt lat="54.659958" lon="9.398074">
        <ele>89.573147</ele>
        <time>2021-07-22T12:48:09.000Z</time>
      </trkpt>
      <trkpt lat="54.660005" lon="9.397880">
        <ele>89.573147</ele>
        <time>2021-07-22T12:48:17.000Z</time>
      </trkpt>
      <trkpt lat="54.660071" lon="9.397662">
        <ele>89.573147</ele>
        <time>2021-07-22T12:48:26.000Z</time>
      </trkpt>
      <trkpt lat="54.660120" lon="9.397528">
        <ele>89.573147</ele>
        <time>2021-07-22T12:48:33.000Z</time>
      </trkpt>
      <trkpt lat="54.660183" lon="9.397368">
        <ele>89.573147</ele>
        <time>2021-07-22T12:48:40.000Z</time>
      </trkpt>
      <trkpt lat="54.660250" lon="9.397186">
        <ele>89.573147</ele>
        <time>2021-07-22T12:48:49.000Z</time>
      </trkpt>
      <trkpt lat="54.660322" lon="9.397046">
        <ele>89.573147</ele>
        <time>2021-07-22T12:48:56.000Z</time>
      </trkpt>
      <trkpt lat="54.660385" lon="9.396906">
        <ele>89.573147</ele>
        <time>2021-07-22T12:49:02.000Z</time>
      </trkpt>
      <trkpt lat="54.660389" lon="9.396887">
        <ele>89.573147</ele>
        <time>2021-07-22T12:49:03.000Z</time>
      </trkpt>
      <trkpt lat="54.660439" lon="9.396842">
        <ele>89.573147</ele>
        <time>2021-07-22T12:49:08.000Z</time>
      </trkpt>
      <trkpt lat="54.660457" lon="9.396829">
        <ele>89.573147</ele>
        <time>2021-07-22T12:49:10.000Z</time>
      </trkpt>
    </trkseg>
  </trk>
</gpx>